<?xml version="1.0" encoding="UTF-8" standalone="no" ?>
<gpx xmlns="http://www.topografix.com/GPX/1/1" xmlns:xsi="http://www.w3.org/2001/XMLSchema-instance" xsi:schemaLocation="http://www.topografix.com/GPX/1/1 http://www.topografix.com/GPX/1/1/gpx.xsd" version="1.1" creator="VisuGPX - https://www.visugpx.com">
  <metadata>
    <name>Valempoulières,le tour de La Faye de Valempoulières</name>
  </metadata>
  <trk>
    <name><![CDATA[Valempoulières,le tour de La Faye de Valempoulières_1]]></name>
    <trkseg>
      <trkpt lat="46.83471" lon="5.8701">
        <ele>670.6</ele>
        <time>2021-02-18T12:44:22Z</time>
      </trkpt>
      <trkpt lat="46.83472" lon="5.87003">
        <ele>670.4</ele>
        <time>2021-02-18T12:44:34Z</time>
      </trkpt>
      <trkpt lat="46.83477" lon="5.87004">
        <ele>670.8</ele>
        <time>2021-02-18T12:44:45Z</time>
      </trkpt>
      <trkpt lat="46.83482" lon="5.87008">
        <ele>671.5</ele>
        <time>2021-02-18T12:44:51Z</time>
      </trkpt>
      <trkpt lat="46.83487" lon="5.87012">
        <ele>671.8</ele>
        <time>2021-02-18T12:44:55Z</time>
      </trkpt>
      <trkpt lat="46.83492" lon="5.87015">
        <ele>672</ele>
        <time>2021-02-18T12:44:58Z</time>
      </trkpt>
      <trkpt lat="46.83497" lon="5.87018">
        <ele>671.9</ele>
        <time>2021-02-18T12:45:02Z</time>
      </trkpt>
      <trkpt lat="46.83502" lon="5.87021">
        <ele>672</ele>
        <time>2021-02-18T12:45:06Z</time>
      </trkpt>
      <trkpt lat="46.83507" lon="5.87023">
        <ele>672.5</ele>
        <time>2021-02-18T12:45:10Z</time>
      </trkpt>
      <trkpt lat="46.8351" lon="5.87028">
        <ele>673.3</ele>
        <time>2021-02-18T12:45:17Z</time>
      </trkpt>
      <trkpt lat="46.83515" lon="5.87031">
        <ele>673.6</ele>
        <time>2021-02-18T12:45:23Z</time>
      </trkpt>
      <trkpt lat="46.8352" lon="5.87033">
        <ele>672.9</ele>
        <time>2021-02-18T12:45:29Z</time>
      </trkpt>
      <trkpt lat="46.83525" lon="5.87032">
        <ele>672.1</ele>
        <time>2021-02-18T12:45:34Z</time>
      </trkpt>
      <trkpt lat="46.8353" lon="5.87032">
        <ele>672.1</ele>
        <time>2021-02-18T12:45:39Z</time>
      </trkpt>
      <trkpt lat="46.83535" lon="5.87032">
        <ele>673</ele>
        <time>2021-02-18T12:45:44Z</time>
      </trkpt>
      <trkpt lat="46.83541" lon="5.87032">
        <ele>674.2</ele>
        <time>2021-02-18T12:45:49Z</time>
      </trkpt>
      <trkpt lat="46.83546" lon="5.87032">
        <ele>675.2</ele>
        <time>2021-02-18T12:45:55Z</time>
      </trkpt>
      <trkpt lat="46.83551" lon="5.87032">
        <ele>675</ele>
        <time>2021-02-18T12:45:59Z</time>
      </trkpt>
      <trkpt lat="46.83556" lon="5.87031">
        <ele>674.2</ele>
        <time>2021-02-18T12:46:03Z</time>
      </trkpt>
      <trkpt lat="46.8356" lon="5.8703">
        <ele>672.9</ele>
        <time>2021-02-18T12:46:07Z</time>
      </trkpt>
      <trkpt lat="46.83565" lon="5.87029">
        <ele>671.5</ele>
        <time>2021-02-18T12:46:12Z</time>
      </trkpt>
      <trkpt lat="46.8357" lon="5.87028">
        <ele>670.7</ele>
        <time>2021-02-18T12:46:17Z</time>
      </trkpt>
      <trkpt lat="46.83574" lon="5.87026">
        <ele>670.2</ele>
        <time>2021-02-18T12:46:21Z</time>
      </trkpt>
      <trkpt lat="46.8358" lon="5.87023">
        <ele>669.4</ele>
        <time>2021-02-18T12:46:26Z</time>
      </trkpt>
      <trkpt lat="46.83585" lon="5.8702">
        <ele>669.5</ele>
        <time>2021-02-18T12:46:31Z</time>
      </trkpt>
      <trkpt lat="46.8359" lon="5.87017">
        <ele>669.6</ele>
        <time>2021-02-18T12:46:37Z</time>
      </trkpt>
      <trkpt lat="46.83594" lon="5.87018">
        <ele>670.3</ele>
        <time>2021-02-18T12:46:43Z</time>
      </trkpt>
      <trkpt lat="46.836" lon="5.87016">
        <ele>670.2</ele>
        <time>2021-02-18T12:46:48Z</time>
      </trkpt>
      <trkpt lat="46.83605" lon="5.87015">
        <ele>669.1</ele>
        <time>2021-02-18T12:46:52Z</time>
      </trkpt>
      <trkpt lat="46.8361" lon="5.87015">
        <ele>667.7</ele>
        <time>2021-02-18T12:46:57Z</time>
      </trkpt>
      <trkpt lat="46.83615" lon="5.87018">
        <ele>667</ele>
        <time>2021-02-18T12:47:02Z</time>
      </trkpt>
      <trkpt lat="46.83618" lon="5.87022">
        <ele>667.2</ele>
        <time>2021-02-18T12:47:07Z</time>
      </trkpt>
      <trkpt lat="46.83622" lon="5.87026">
        <ele>667.8</ele>
        <time>2021-02-18T12:47:12Z</time>
      </trkpt>
      <trkpt lat="46.83626" lon="5.8703">
        <ele>668.4</ele>
        <time>2021-02-18T12:47:18Z</time>
      </trkpt>
      <trkpt lat="46.83631" lon="5.87032">
        <ele>669.1</ele>
        <time>2021-02-18T12:47:23Z</time>
      </trkpt>
      <trkpt lat="46.83636" lon="5.87035">
        <ele>669.6</ele>
        <time>2021-02-18T12:47:28Z</time>
      </trkpt>
      <trkpt lat="46.8364" lon="5.8704">
        <ele>670</ele>
        <time>2021-02-18T12:47:33Z</time>
      </trkpt>
      <trkpt lat="46.83643" lon="5.87045">
        <ele>670.3</ele>
        <time>2021-02-18T12:47:38Z</time>
      </trkpt>
      <trkpt lat="46.83647" lon="5.87051">
        <ele>670.6</ele>
        <time>2021-02-18T12:47:43Z</time>
      </trkpt>
      <trkpt lat="46.83651" lon="5.87055">
        <ele>671</ele>
        <time>2021-02-18T12:47:48Z</time>
      </trkpt>
      <trkpt lat="46.83656" lon="5.87057">
        <ele>671.6</ele>
        <time>2021-02-18T12:47:53Z</time>
      </trkpt>
      <trkpt lat="46.8366" lon="5.87062">
        <ele>672</ele>
        <time>2021-02-18T12:47:58Z</time>
      </trkpt>
      <trkpt lat="46.83664" lon="5.87068">
        <ele>672.6</ele>
        <time>2021-02-18T12:48:03Z</time>
      </trkpt>
      <trkpt lat="46.83667" lon="5.87073">
        <ele>673.8</ele>
        <time>2021-02-18T12:48:08Z</time>
      </trkpt>
      <trkpt lat="46.8367" lon="5.87078">
        <ele>674.6</ele>
        <time>2021-02-18T12:48:13Z</time>
      </trkpt>
      <trkpt lat="46.83674" lon="5.87084">
        <ele>674.9</ele>
        <time>2021-02-18T12:48:18Z</time>
      </trkpt>
      <trkpt lat="46.83677" lon="5.87089">
        <ele>675.4</ele>
        <time>2021-02-18T12:48:23Z</time>
      </trkpt>
      <trkpt lat="46.83682" lon="5.87093">
        <ele>675.6</ele>
        <time>2021-02-18T12:48:28Z</time>
      </trkpt>
      <trkpt lat="46.83686" lon="5.87098">
        <ele>676.1</ele>
        <time>2021-02-18T12:48:33Z</time>
      </trkpt>
      <trkpt lat="46.8369" lon="5.87102">
        <ele>676.4</ele>
        <time>2021-02-18T12:48:38Z</time>
      </trkpt>
      <trkpt lat="46.83695" lon="5.87105">
        <ele>676.6</ele>
        <time>2021-02-18T12:48:43Z</time>
      </trkpt>
      <trkpt lat="46.83699" lon="5.87109">
        <ele>676.5</ele>
        <time>2021-02-18T12:48:48Z</time>
      </trkpt>
      <trkpt lat="46.83704" lon="5.87113">
        <ele>676.1</ele>
        <time>2021-02-18T12:48:54Z</time>
      </trkpt>
      <trkpt lat="46.83705" lon="5.87119">
        <ele>675.5</ele>
        <time>2021-02-18T12:49:20Z</time>
      </trkpt>
      <trkpt lat="46.8371" lon="5.87123">
        <ele>675.7</ele>
        <time>2021-02-18T12:49:25Z</time>
      </trkpt>
      <trkpt lat="46.83714" lon="5.87127">
        <ele>675.6</ele>
        <time>2021-02-18T12:49:29Z</time>
      </trkpt>
      <trkpt lat="46.83718" lon="5.87131">
        <ele>675.5</ele>
        <time>2021-02-18T12:49:33Z</time>
      </trkpt>
      <trkpt lat="46.83722" lon="5.87133">
        <ele>675.3</ele>
        <time>2021-02-18T12:49:37Z</time>
      </trkpt>
      <trkpt lat="46.83727" lon="5.87135">
        <ele>674.7</ele>
        <time>2021-02-18T12:49:41Z</time>
      </trkpt>
      <trkpt lat="46.83732" lon="5.87137">
        <ele>674.1</ele>
        <time>2021-02-18T12:49:46Z</time>
      </trkpt>
      <trkpt lat="46.83736" lon="5.87141">
        <ele>673.7</ele>
        <time>2021-02-18T12:49:50Z</time>
      </trkpt>
      <trkpt lat="46.8374" lon="5.87146">
        <ele>673.6</ele>
        <time>2021-02-18T12:49:55Z</time>
      </trkpt>
      <trkpt lat="46.83744" lon="5.87151">
        <ele>673.5</ele>
        <time>2021-02-18T12:50:00Z</time>
      </trkpt>
      <trkpt lat="46.83748" lon="5.87157">
        <ele>673.9</ele>
        <time>2021-02-18T12:50:05Z</time>
      </trkpt>
      <trkpt lat="46.83752" lon="5.87161">
        <ele>674.4</ele>
        <time>2021-02-18T12:50:09Z</time>
      </trkpt>
      <trkpt lat="46.83755" lon="5.87166">
        <ele>675.1</ele>
        <time>2021-02-18T12:50:14Z</time>
      </trkpt>
      <trkpt lat="46.8376" lon="5.87171">
        <ele>675.8</ele>
        <time>2021-02-18T12:50:19Z</time>
      </trkpt>
      <trkpt lat="46.83763" lon="5.87177">
        <ele>676.2</ele>
        <time>2021-02-18T12:50:24Z</time>
      </trkpt>
      <trkpt lat="46.83766" lon="5.87183">
        <ele>676.6</ele>
        <time>2021-02-18T12:50:28Z</time>
      </trkpt>
      <trkpt lat="46.83769" lon="5.87187">
        <ele>676.9</ele>
        <time>2021-02-18T12:50:32Z</time>
      </trkpt>
      <trkpt lat="46.83773" lon="5.87193">
        <ele>677.2</ele>
        <time>2021-02-18T12:50:37Z</time>
      </trkpt>
      <trkpt lat="46.83777" lon="5.87198">
        <ele>677.2</ele>
        <time>2021-02-18T12:50:41Z</time>
      </trkpt>
      <trkpt lat="46.83781" lon="5.87202">
        <ele>676.9</ele>
        <time>2021-02-18T12:50:45Z</time>
      </trkpt>
      <trkpt lat="46.83785" lon="5.87205">
        <ele>676.3</ele>
        <time>2021-02-18T12:50:50Z</time>
      </trkpt>
      <trkpt lat="46.8379" lon="5.87209">
        <ele>675.7</ele>
        <time>2021-02-18T12:50:55Z</time>
      </trkpt>
      <trkpt lat="46.83794" lon="5.87214">
        <ele>675.1</ele>
        <time>2021-02-18T12:50:59Z</time>
      </trkpt>
      <trkpt lat="46.83797" lon="5.87219">
        <ele>673.9</ele>
        <time>2021-02-18T12:51:04Z</time>
      </trkpt>
      <trkpt lat="46.83801" lon="5.87224">
        <ele>673.4</ele>
        <time>2021-02-18T12:51:08Z</time>
      </trkpt>
      <trkpt lat="46.83804" lon="5.87229">
        <ele>673.5</ele>
        <time>2021-02-18T12:51:13Z</time>
      </trkpt>
      <trkpt lat="46.83807" lon="5.87235">
        <ele>674</ele>
        <time>2021-02-18T12:51:18Z</time>
      </trkpt>
      <trkpt lat="46.8381" lon="5.8724">
        <ele>674.6</ele>
        <time>2021-02-18T12:51:22Z</time>
      </trkpt>
      <trkpt lat="46.83814" lon="5.87244">
        <ele>674.8</ele>
        <time>2021-02-18T12:51:27Z</time>
      </trkpt>
      <trkpt lat="46.83817" lon="5.87249">
        <ele>674.8</ele>
        <time>2021-02-18T12:51:31Z</time>
      </trkpt>
      <trkpt lat="46.83821" lon="5.87253">
        <ele>674.8</ele>
        <time>2021-02-18T12:51:35Z</time>
      </trkpt>
      <trkpt lat="46.83825" lon="5.87257">
        <ele>674.5</ele>
        <time>2021-02-18T12:51:39Z</time>
      </trkpt>
      <trkpt lat="46.8383" lon="5.8726">
        <ele>674</ele>
        <time>2021-02-18T12:51:44Z</time>
      </trkpt>
      <trkpt lat="46.83834" lon="5.87265">
        <ele>673.6</ele>
        <time>2021-02-18T12:51:49Z</time>
      </trkpt>
      <trkpt lat="46.83837" lon="5.87271">
        <ele>673.1</ele>
        <time>2021-02-18T12:51:53Z</time>
      </trkpt>
      <trkpt lat="46.83839" lon="5.87277">
        <ele>672.8</ele>
        <time>2021-02-18T12:51:57Z</time>
      </trkpt>
      <trkpt lat="46.83842" lon="5.87282">
        <ele>672.4</ele>
        <time>2021-02-18T12:52:01Z</time>
      </trkpt>
      <trkpt lat="46.83846" lon="5.87287">
        <ele>672.6</ele>
        <time>2021-02-18T12:52:05Z</time>
      </trkpt>
      <trkpt lat="46.8385" lon="5.87291">
        <ele>672.8</ele>
        <time>2021-02-18T12:52:10Z</time>
      </trkpt>
      <trkpt lat="46.83854" lon="5.87294">
        <ele>673.2</ele>
        <time>2021-02-18T12:52:15Z</time>
      </trkpt>
      <trkpt lat="46.83859" lon="5.87297">
        <ele>673.8</ele>
        <time>2021-02-18T12:52:20Z</time>
      </trkpt>
      <trkpt lat="46.83863" lon="5.87302">
        <ele>674.4</ele>
        <time>2021-02-18T12:52:25Z</time>
      </trkpt>
      <trkpt lat="46.83867" lon="5.87307">
        <ele>675</ele>
        <time>2021-02-18T12:52:29Z</time>
      </trkpt>
      <trkpt lat="46.83871" lon="5.87311">
        <ele>675.3</ele>
        <time>2021-02-18T12:52:33Z</time>
      </trkpt>
      <trkpt lat="46.83875" lon="5.87315">
        <ele>675.7</ele>
        <time>2021-02-18T12:52:37Z</time>
      </trkpt>
      <trkpt lat="46.83879" lon="5.87318">
        <ele>676.2</ele>
        <time>2021-02-18T12:52:42Z</time>
      </trkpt>
      <trkpt lat="46.83885" lon="5.8732">
        <ele>676.5</ele>
        <time>2021-02-18T12:52:47Z</time>
      </trkpt>
      <trkpt lat="46.8389" lon="5.87323">
        <ele>676.6</ele>
        <time>2021-02-18T12:52:51Z</time>
      </trkpt>
      <trkpt lat="46.83895" lon="5.87326">
        <ele>677</ele>
        <time>2021-02-18T12:52:55Z</time>
      </trkpt>
      <trkpt lat="46.83899" lon="5.87328">
        <ele>677.4</ele>
        <time>2021-02-18T12:52:59Z</time>
      </trkpt>
      <trkpt lat="46.83904" lon="5.87332">
        <ele>678</ele>
        <time>2021-02-18T12:53:04Z</time>
      </trkpt>
      <trkpt lat="46.83908" lon="5.87335">
        <ele>678.5</ele>
        <time>2021-02-18T12:53:08Z</time>
      </trkpt>
      <trkpt lat="46.83912" lon="5.87339">
        <ele>679.4</ele>
        <time>2021-02-18T12:53:13Z</time>
      </trkpt>
      <trkpt lat="46.83916" lon="5.87343">
        <ele>679.9</ele>
        <time>2021-02-18T12:53:18Z</time>
      </trkpt>
      <trkpt lat="46.83919" lon="5.87347">
        <ele>680.3</ele>
        <time>2021-02-18T12:53:22Z</time>
      </trkpt>
      <trkpt lat="46.83923" lon="5.87352">
        <ele>680.6</ele>
        <time>2021-02-18T12:53:26Z</time>
      </trkpt>
      <trkpt lat="46.83927" lon="5.87355">
        <ele>680.8</ele>
        <time>2021-02-18T12:53:30Z</time>
      </trkpt>
      <trkpt lat="46.83932" lon="5.87358">
        <ele>680.8</ele>
        <time>2021-02-18T12:53:34Z</time>
      </trkpt>
      <trkpt lat="46.83936" lon="5.87362">
        <ele>680.6</ele>
        <time>2021-02-18T12:53:39Z</time>
      </trkpt>
      <trkpt lat="46.8394" lon="5.87367">
        <ele>680.6</ele>
        <time>2021-02-18T12:53:44Z</time>
      </trkpt>
      <trkpt lat="46.83945" lon="5.87372">
        <ele>680.8</ele>
        <time>2021-02-18T12:53:49Z</time>
      </trkpt>
      <trkpt lat="46.83949" lon="5.87376">
        <ele>680.8</ele>
        <time>2021-02-18T12:53:54Z</time>
      </trkpt>
      <trkpt lat="46.83954" lon="5.87379">
        <ele>680.8</ele>
        <time>2021-02-18T12:53:59Z</time>
      </trkpt>
      <trkpt lat="46.83958" lon="5.87383">
        <ele>680.8</ele>
        <time>2021-02-18T12:54:04Z</time>
      </trkpt>
      <trkpt lat="46.83962" lon="5.87386">
        <ele>680.8</ele>
        <time>2021-02-18T12:54:09Z</time>
      </trkpt>
      <trkpt lat="46.83967" lon="5.87389">
        <ele>680.6</ele>
        <time>2021-02-18T12:54:14Z</time>
      </trkpt>
      <trkpt lat="46.83972" lon="5.8739">
        <ele>680.5</ele>
        <time>2021-02-18T12:54:20Z</time>
      </trkpt>
      <trkpt lat="46.83977" lon="5.8739">
        <ele>680.6</ele>
        <time>2021-02-18T12:54:25Z</time>
      </trkpt>
      <trkpt lat="46.83982" lon="5.87389">
        <ele>680.6</ele>
        <time>2021-02-18T12:54:30Z</time>
      </trkpt>
      <trkpt lat="46.83987" lon="5.87388">
        <ele>680.3</ele>
        <time>2021-02-18T12:54:35Z</time>
      </trkpt>
      <trkpt lat="46.83992" lon="5.87386">
        <ele>679.8</ele>
        <time>2021-02-18T12:54:40Z</time>
      </trkpt>
      <trkpt lat="46.83997" lon="5.87383">
        <ele>679.4</ele>
        <time>2021-02-18T12:54:45Z</time>
      </trkpt>
      <trkpt lat="46.84001" lon="5.87381">
        <ele>678.9</ele>
        <time>2021-02-18T12:54:51Z</time>
      </trkpt>
      <trkpt lat="46.84007" lon="5.87378">
        <ele>678</ele>
        <time>2021-02-18T12:54:57Z</time>
      </trkpt>
      <trkpt lat="46.84011" lon="5.87374">
        <ele>676.9</ele>
        <time>2021-02-18T12:55:02Z</time>
      </trkpt>
      <trkpt lat="46.84015" lon="5.87373">
        <ele>676.6</ele>
        <time>2021-02-18T12:55:07Z</time>
      </trkpt>
      <trkpt lat="46.8402" lon="5.87374">
        <ele>676.7</ele>
        <time>2021-02-18T12:55:12Z</time>
      </trkpt>
      <trkpt lat="46.84025" lon="5.87373">
        <ele>676.3</ele>
        <time>2021-02-18T12:55:17Z</time>
      </trkpt>
      <trkpt lat="46.8403" lon="5.87371">
        <ele>676.4</ele>
        <time>2021-02-18T12:55:22Z</time>
      </trkpt>
      <trkpt lat="46.84035" lon="5.87369">
        <ele>676.8</ele>
        <time>2021-02-18T12:55:27Z</time>
      </trkpt>
      <trkpt lat="46.84039" lon="5.87366">
        <ele>676.9</ele>
        <time>2021-02-18T12:55:32Z</time>
      </trkpt>
      <trkpt lat="46.84044" lon="5.87364">
        <ele>677</ele>
        <time>2021-02-18T12:55:38Z</time>
      </trkpt>
      <trkpt lat="46.84048" lon="5.87361">
        <ele>677.1</ele>
        <time>2021-02-18T12:55:45Z</time>
      </trkpt>
      <trkpt lat="46.84052" lon="5.87356">
        <ele>676.7</ele>
        <time>2021-02-18T12:55:50Z</time>
      </trkpt>
      <trkpt lat="46.84058" lon="5.87353">
        <ele>676</ele>
        <time>2021-02-18T12:55:55Z</time>
      </trkpt>
      <trkpt lat="46.84063" lon="5.87351">
        <ele>675.9</ele>
        <time>2021-02-18T12:55:58Z</time>
      </trkpt>
      <trkpt lat="46.84067" lon="5.8735">
        <ele>676.6</ele>
        <time>2021-02-18T12:56:00Z</time>
      </trkpt>
      <trkpt lat="46.84073" lon="5.87348">
        <ele>677.2</ele>
        <time>2021-02-18T12:56:04Z</time>
      </trkpt>
      <trkpt lat="46.84078" lon="5.87347">
        <ele>677.7</ele>
        <time>2021-02-18T12:56:08Z</time>
      </trkpt>
      <trkpt lat="46.84084" lon="5.87346">
        <ele>678.3</ele>
        <time>2021-02-18T12:56:12Z</time>
      </trkpt>
      <trkpt lat="46.84089" lon="5.87344">
        <ele>678.6</ele>
        <time>2021-02-18T12:56:16Z</time>
      </trkpt>
      <trkpt lat="46.84095" lon="5.87344">
        <ele>678.4</ele>
        <time>2021-02-18T12:56:20Z</time>
      </trkpt>
      <trkpt lat="46.841" lon="5.87345">
        <ele>678</ele>
        <time>2021-02-18T12:56:24Z</time>
      </trkpt>
      <trkpt lat="46.84105" lon="5.87347">
        <ele>677.3</ele>
        <time>2021-02-18T12:56:29Z</time>
      </trkpt>
      <trkpt lat="46.8411" lon="5.87347">
        <ele>676.6</ele>
        <time>2021-02-18T12:56:33Z</time>
      </trkpt>
      <trkpt lat="46.84115" lon="5.87347">
        <ele>675.5</ele>
        <time>2021-02-18T12:56:39Z</time>
      </trkpt>
      <trkpt lat="46.8412" lon="5.87348">
        <ele>675</ele>
        <time>2021-02-18T12:56:46Z</time>
      </trkpt>
      <trkpt lat="46.84125" lon="5.87349">
        <ele>674.8</ele>
        <time>2021-02-18T12:56:52Z</time>
      </trkpt>
      <trkpt lat="46.8413" lon="5.8735">
        <ele>674.8</ele>
        <time>2021-02-18T12:56:56Z</time>
      </trkpt>
      <trkpt lat="46.84136" lon="5.8735">
        <ele>674.8</ele>
        <time>2021-02-18T12:57:00Z</time>
      </trkpt>
      <trkpt lat="46.84141" lon="5.8735">
        <ele>674.9</ele>
        <time>2021-02-18T12:57:05Z</time>
      </trkpt>
      <trkpt lat="46.84146" lon="5.87348">
        <ele>674.9</ele>
        <time>2021-02-18T12:57:09Z</time>
      </trkpt>
      <trkpt lat="46.84151" lon="5.87345">
        <ele>675.1</ele>
        <time>2021-02-18T12:57:20Z</time>
      </trkpt>
      <trkpt lat="46.84155" lon="5.87345">
        <ele>675.6</ele>
        <time>2021-02-18T12:57:25Z</time>
      </trkpt>
      <trkpt lat="46.8416" lon="5.87347">
        <ele>676.3</ele>
        <time>2021-02-18T12:57:30Z</time>
      </trkpt>
      <trkpt lat="46.84165" lon="5.87349">
        <ele>676.8</ele>
        <time>2021-02-18T12:57:35Z</time>
      </trkpt>
      <trkpt lat="46.84169" lon="5.87349">
        <ele>677.5</ele>
        <time>2021-02-18T12:57:43Z</time>
      </trkpt>
      <trkpt lat="46.84174" lon="5.87347">
        <ele>677.7</ele>
        <time>2021-02-18T12:57:53Z</time>
      </trkpt>
      <trkpt lat="46.84178" lon="5.87351">
        <ele>678.3</ele>
        <time>2021-02-18T12:58:06Z</time>
      </trkpt>
      <trkpt lat="46.84183" lon="5.87355">
        <ele>678.3</ele>
        <time>2021-02-18T12:58:11Z</time>
      </trkpt>
      <trkpt lat="46.84187" lon="5.87358">
        <ele>678.5</ele>
        <time>2021-02-18T12:58:16Z</time>
      </trkpt>
      <trkpt lat="46.84192" lon="5.87361">
        <ele>678.3</ele>
        <time>2021-02-18T12:58:20Z</time>
      </trkpt>
      <trkpt lat="46.84196" lon="5.87365">
        <ele>678</ele>
        <time>2021-02-18T12:58:23Z</time>
      </trkpt>
      <trkpt lat="46.842" lon="5.87368">
        <ele>677.4</ele>
        <time>2021-02-18T12:58:28Z</time>
      </trkpt>
      <trkpt lat="46.84206" lon="5.8737">
        <ele>676.9</ele>
        <time>2021-02-18T12:58:33Z</time>
      </trkpt>
      <trkpt lat="46.8421" lon="5.87373">
        <ele>676.7</ele>
        <time>2021-02-18T12:58:37Z</time>
      </trkpt>
      <trkpt lat="46.84215" lon="5.87376">
        <ele>676.6</ele>
        <time>2021-02-18T12:58:42Z</time>
      </trkpt>
      <trkpt lat="46.84221" lon="5.87375">
        <ele>677</ele>
        <time>2021-02-18T12:58:49Z</time>
      </trkpt>
      <trkpt lat="46.84225" lon="5.87373">
        <ele>677.2</ele>
        <time>2021-02-18T12:58:53Z</time>
      </trkpt>
      <trkpt lat="46.8423" lon="5.87372">
        <ele>677.8</ele>
        <time>2021-02-18T12:58:59Z</time>
      </trkpt>
      <trkpt lat="46.84234" lon="5.8737">
        <ele>678.7</ele>
        <time>2021-02-18T12:59:05Z</time>
      </trkpt>
      <trkpt lat="46.84239" lon="5.87368">
        <ele>679.8</ele>
        <time>2021-02-18T12:59:11Z</time>
      </trkpt>
      <trkpt lat="46.84243" lon="5.87367">
        <ele>680.2</ele>
        <time>2021-02-18T12:59:16Z</time>
      </trkpt>
      <trkpt lat="46.84248" lon="5.87364">
        <ele>680.3</ele>
        <time>2021-02-18T12:59:21Z</time>
      </trkpt>
      <trkpt lat="46.84252" lon="5.8736">
        <ele>680.3</ele>
        <time>2021-02-18T12:59:25Z</time>
      </trkpt>
      <trkpt lat="46.84256" lon="5.87358">
        <ele>680.1</ele>
        <time>2021-02-18T12:59:29Z</time>
      </trkpt>
      <trkpt lat="46.84261" lon="5.87356">
        <ele>679.9</ele>
        <time>2021-02-18T12:59:33Z</time>
      </trkpt>
      <trkpt lat="46.84266" lon="5.87354">
        <ele>679.5</ele>
        <time>2021-02-18T12:59:37Z</time>
      </trkpt>
      <trkpt lat="46.84271" lon="5.87353">
        <ele>679.1</ele>
        <time>2021-02-18T12:59:41Z</time>
      </trkpt>
      <trkpt lat="46.84275" lon="5.87349">
        <ele>678.6</ele>
        <time>2021-02-18T12:59:48Z</time>
      </trkpt>
      <trkpt lat="46.8428" lon="5.87346">
        <ele>678.5</ele>
        <time>2021-02-18T12:59:54Z</time>
      </trkpt>
      <trkpt lat="46.84285" lon="5.87344">
        <ele>678.4</ele>
        <time>2021-02-18T12:59:58Z</time>
      </trkpt>
      <trkpt lat="46.84291" lon="5.87343">
        <ele>678.9</ele>
        <time>2021-02-18T13:00:02Z</time>
      </trkpt>
      <trkpt lat="46.84296" lon="5.87346">
        <ele>679.4</ele>
        <time>2021-02-18T13:00:06Z</time>
      </trkpt>
      <trkpt lat="46.843" lon="5.87349">
        <ele>679.5</ele>
        <time>2021-02-18T13:00:10Z</time>
      </trkpt>
      <trkpt lat="46.84305" lon="5.87351">
        <ele>679.1</ele>
        <time>2021-02-18T13:00:15Z</time>
      </trkpt>
      <trkpt lat="46.84311" lon="5.87352">
        <ele>678.9</ele>
        <time>2021-02-18T13:00:20Z</time>
      </trkpt>
      <trkpt lat="46.84316" lon="5.87352">
        <ele>679</ele>
        <time>2021-02-18T13:00:23Z</time>
      </trkpt>
      <trkpt lat="46.84321" lon="5.87353">
        <ele>678.7</ele>
        <time>2021-02-18T13:00:28Z</time>
      </trkpt>
      <trkpt lat="46.84326" lon="5.87355">
        <ele>678.1</ele>
        <time>2021-02-18T13:00:32Z</time>
      </trkpt>
      <trkpt lat="46.84331" lon="5.87358">
        <ele>677.2</ele>
        <time>2021-02-18T13:00:37Z</time>
      </trkpt>
      <trkpt lat="46.84336" lon="5.87358">
        <ele>676.9</ele>
        <time>2021-02-18T13:00:41Z</time>
      </trkpt>
      <trkpt lat="46.84341" lon="5.87359">
        <ele>676.7</ele>
        <time>2021-02-18T13:00:45Z</time>
      </trkpt>
      <trkpt lat="46.84345" lon="5.87364">
        <ele>676.2</ele>
        <time>2021-02-18T13:00:51Z</time>
      </trkpt>
      <trkpt lat="46.84349" lon="5.87368">
        <ele>675.7</ele>
        <time>2021-02-18T13:00:56Z</time>
      </trkpt>
      <trkpt lat="46.84353" lon="5.87373">
        <ele>675.1</ele>
        <time>2021-02-18T13:01:01Z</time>
      </trkpt>
      <trkpt lat="46.84358" lon="5.87377">
        <ele>674.6</ele>
        <time>2021-02-18T13:01:05Z</time>
      </trkpt>
      <trkpt lat="46.84362" lon="5.8738">
        <ele>674.1</ele>
        <time>2021-02-18T13:01:10Z</time>
      </trkpt>
      <trkpt lat="46.84367" lon="5.87383">
        <ele>673.8</ele>
        <time>2021-02-18T13:01:15Z</time>
      </trkpt>
      <trkpt lat="46.84372" lon="5.87383">
        <ele>673.9</ele>
        <time>2021-02-18T13:01:19Z</time>
      </trkpt>
      <trkpt lat="46.84378" lon="5.87384">
        <ele>674.6</ele>
        <time>2021-02-18T13:01:23Z</time>
      </trkpt>
      <trkpt lat="46.84384" lon="5.87384">
        <ele>675.6</ele>
        <time>2021-02-18T13:01:26Z</time>
      </trkpt>
      <trkpt lat="46.84388" lon="5.87385">
        <ele>676.5</ele>
        <time>2021-02-18T13:01:31Z</time>
      </trkpt>
      <trkpt lat="46.84393" lon="5.87388">
        <ele>676.7</ele>
        <time>2021-02-18T13:01:36Z</time>
      </trkpt>
      <trkpt lat="46.84398" lon="5.8739">
        <ele>676.3</ele>
        <time>2021-02-18T13:01:41Z</time>
      </trkpt>
      <trkpt lat="46.84403" lon="5.87391">
        <ele>675.9</ele>
        <time>2021-02-18T13:01:44Z</time>
      </trkpt>
      <trkpt lat="46.84409" lon="5.87393">
        <ele>675.5</ele>
        <time>2021-02-18T13:01:47Z</time>
      </trkpt>
      <trkpt lat="46.84414" lon="5.87395">
        <ele>675.3</ele>
        <time>2021-02-18T13:01:50Z</time>
      </trkpt>
      <trkpt lat="46.84419" lon="5.87397">
        <ele>674.9</ele>
        <time>2021-02-18T13:01:54Z</time>
      </trkpt>
      <trkpt lat="46.84424" lon="5.87398">
        <ele>674.2</ele>
        <time>2021-02-18T13:01:59Z</time>
      </trkpt>
      <trkpt lat="46.84429" lon="5.87399">
        <ele>673.5</ele>
        <time>2021-02-18T13:02:04Z</time>
      </trkpt>
      <trkpt lat="46.84434" lon="5.87399">
        <ele>672.8</ele>
        <time>2021-02-18T13:02:10Z</time>
      </trkpt>
      <trkpt lat="46.84438" lon="5.87402">
        <ele>672.3</ele>
        <time>2021-02-18T13:02:17Z</time>
      </trkpt>
      <trkpt lat="46.84443" lon="5.87403">
        <ele>672.4</ele>
        <time>2021-02-18T13:02:23Z</time>
      </trkpt>
      <trkpt lat="46.84448" lon="5.87403">
        <ele>672.7</ele>
        <time>2021-02-18T13:02:28Z</time>
      </trkpt>
      <trkpt lat="46.84452" lon="5.87402">
        <ele>673</ele>
        <time>2021-02-18T13:02:33Z</time>
      </trkpt>
      <trkpt lat="46.84457" lon="5.87401">
        <ele>673.2</ele>
        <time>2021-02-18T13:02:37Z</time>
      </trkpt>
      <trkpt lat="46.84462" lon="5.87398">
        <ele>673.7</ele>
        <time>2021-02-18T13:02:41Z</time>
      </trkpt>
      <trkpt lat="46.84467" lon="5.87396">
        <ele>673.7</ele>
        <time>2021-02-18T13:02:44Z</time>
      </trkpt>
      <trkpt lat="46.84471" lon="5.87395">
        <ele>673.2</ele>
        <time>2021-02-18T13:02:49Z</time>
      </trkpt>
      <trkpt lat="46.84476" lon="5.87394">
        <ele>672.7</ele>
        <time>2021-02-18T13:02:55Z</time>
      </trkpt>
      <trkpt lat="46.8448" lon="5.87395">
        <ele>672.6</ele>
        <time>2021-02-18T13:03:00Z</time>
      </trkpt>
      <trkpt lat="46.84486" lon="5.87394">
        <ele>673.1</ele>
        <time>2021-02-18T13:03:05Z</time>
      </trkpt>
      <trkpt lat="46.84491" lon="5.87394">
        <ele>674.2</ele>
        <time>2021-02-18T13:03:10Z</time>
      </trkpt>
      <trkpt lat="46.84496" lon="5.87394">
        <ele>675.1</ele>
        <time>2021-02-18T13:03:16Z</time>
      </trkpt>
      <trkpt lat="46.84501" lon="5.87393">
        <ele>675.5</ele>
        <time>2021-02-18T13:03:20Z</time>
      </trkpt>
      <trkpt lat="46.84506" lon="5.87392">
        <ele>675.7</ele>
        <time>2021-02-18T13:03:23Z</time>
      </trkpt>
      <trkpt lat="46.84511" lon="5.87391">
        <ele>675.9</ele>
        <time>2021-02-18T13:03:27Z</time>
      </trkpt>
      <trkpt lat="46.84516" lon="5.8739">
        <ele>675.6</ele>
        <time>2021-02-18T13:03:30Z</time>
      </trkpt>
      <trkpt lat="46.8452" lon="5.87387">
        <ele>674.9</ele>
        <time>2021-02-18T13:03:34Z</time>
      </trkpt>
      <trkpt lat="46.84526" lon="5.87386">
        <ele>674.9</ele>
        <time>2021-02-18T13:03:41Z</time>
      </trkpt>
      <trkpt lat="46.84531" lon="5.87388">
        <ele>673.6</ele>
        <time>2021-02-18T13:03:51Z</time>
      </trkpt>
      <trkpt lat="46.84536" lon="5.87392">
        <ele>673.4</ele>
        <time>2021-02-18T13:04:08Z</time>
      </trkpt>
      <trkpt lat="46.8454" lon="5.87396">
        <ele>672.6</ele>
        <time>2021-02-18T13:04:14Z</time>
      </trkpt>
      <trkpt lat="46.84545" lon="5.87393">
        <ele>672.5</ele>
        <time>2021-02-18T13:04:37Z</time>
      </trkpt>
      <trkpt lat="46.8455" lon="5.87392">
        <ele>673.7</ele>
        <time>2021-02-18T13:04:44Z</time>
      </trkpt>
      <trkpt lat="46.84555" lon="5.87393">
        <ele>674.6</ele>
        <time>2021-02-18T13:04:49Z</time>
      </trkpt>
      <trkpt lat="46.8456" lon="5.87395">
        <ele>674.7</ele>
        <time>2021-02-18T13:04:56Z</time>
      </trkpt>
      <trkpt lat="46.84565" lon="5.87398">
        <ele>674.1</ele>
        <time>2021-02-18T13:05:01Z</time>
      </trkpt>
      <trkpt lat="46.8457" lon="5.87398">
        <ele>673.6</ele>
        <time>2021-02-18T13:05:05Z</time>
      </trkpt>
      <trkpt lat="46.84575" lon="5.87398">
        <ele>673</ele>
        <time>2021-02-18T13:05:10Z</time>
      </trkpt>
      <trkpt lat="46.84579" lon="5.87401">
        <ele>672.4</ele>
        <time>2021-02-18T13:05:14Z</time>
      </trkpt>
      <trkpt lat="46.84584" lon="5.87403">
        <ele>671.9</ele>
        <time>2021-02-18T13:05:18Z</time>
      </trkpt>
      <trkpt lat="46.84589" lon="5.87405">
        <ele>671.1</ele>
        <time>2021-02-18T13:05:22Z</time>
      </trkpt>
      <trkpt lat="46.84595" lon="5.87406">
        <ele>670.3</ele>
        <time>2021-02-18T13:05:26Z</time>
      </trkpt>
      <trkpt lat="46.84601" lon="5.87405">
        <ele>669.6</ele>
        <time>2021-02-18T13:05:29Z</time>
      </trkpt>
      <trkpt lat="46.84606" lon="5.87404">
        <ele>668.6</ele>
        <time>2021-02-18T13:05:33Z</time>
      </trkpt>
      <trkpt lat="46.84611" lon="5.87405">
        <ele>667.2</ele>
        <time>2021-02-18T13:05:40Z</time>
      </trkpt>
      <trkpt lat="46.84616" lon="5.87405">
        <ele>666.4</ele>
        <time>2021-02-18T13:05:48Z</time>
      </trkpt>
      <trkpt lat="46.84621" lon="5.87404">
        <ele>666</ele>
        <time>2021-02-18T13:05:55Z</time>
      </trkpt>
      <trkpt lat="46.84625" lon="5.87406">
        <ele>665.6</ele>
        <time>2021-02-18T13:06:01Z</time>
      </trkpt>
      <trkpt lat="46.8463" lon="5.87408">
        <ele>665.4</ele>
        <time>2021-02-18T13:06:06Z</time>
      </trkpt>
      <trkpt lat="46.84635" lon="5.87411">
        <ele>665.1</ele>
        <time>2021-02-18T13:06:12Z</time>
      </trkpt>
      <trkpt lat="46.84639" lon="5.87412">
        <ele>664.7</ele>
        <time>2021-02-18T13:06:17Z</time>
      </trkpt>
      <trkpt lat="46.84645" lon="5.87413">
        <ele>664.2</ele>
        <time>2021-02-18T13:06:21Z</time>
      </trkpt>
      <trkpt lat="46.8465" lon="5.87414">
        <ele>663.9</ele>
        <time>2021-02-18T13:06:25Z</time>
      </trkpt>
      <trkpt lat="46.84655" lon="5.87415">
        <ele>663.7</ele>
        <time>2021-02-18T13:06:29Z</time>
      </trkpt>
      <trkpt lat="46.84659" lon="5.87416">
        <ele>663.4</ele>
        <time>2021-02-18T13:06:33Z</time>
      </trkpt>
      <trkpt lat="46.84664" lon="5.87416">
        <ele>663.1</ele>
        <time>2021-02-18T13:06:38Z</time>
      </trkpt>
      <trkpt lat="46.8467" lon="5.87417">
        <ele>662.9</ele>
        <time>2021-02-18T13:06:42Z</time>
      </trkpt>
      <trkpt lat="46.84674" lon="5.8742">
        <ele>663</ele>
        <time>2021-02-18T13:06:46Z</time>
      </trkpt>
      <trkpt lat="46.84679" lon="5.87421">
        <ele>663</ele>
        <time>2021-02-18T13:06:51Z</time>
      </trkpt>
      <trkpt lat="46.84683" lon="5.8742">
        <ele>663</ele>
        <time>2021-02-18T13:06:55Z</time>
      </trkpt>
      <trkpt lat="46.84689" lon="5.8742">
        <ele>664.3</ele>
        <time>2021-02-18T13:06:58Z</time>
      </trkpt>
      <trkpt lat="46.84694" lon="5.87421">
        <ele>665.5</ele>
        <time>2021-02-18T13:07:01Z</time>
      </trkpt>
      <trkpt lat="46.84699" lon="5.87422">
        <ele>666.9</ele>
        <time>2021-02-18T13:07:05Z</time>
      </trkpt>
      <trkpt lat="46.84704" lon="5.87424">
        <ele>668.2</ele>
        <time>2021-02-18T13:07:09Z</time>
      </trkpt>
      <trkpt lat="46.84708" lon="5.87426">
        <ele>669.4</ele>
        <time>2021-02-18T13:07:13Z</time>
      </trkpt>
      <trkpt lat="46.84715" lon="5.8743">
        <ele>669.5</ele>
        <time>2021-02-18T13:07:52Z</time>
      </trkpt>
      <trkpt lat="46.84719" lon="5.87432">
        <ele>669.8</ele>
        <time>2021-02-18T13:07:57Z</time>
      </trkpt>
      <trkpt lat="46.84722" lon="5.87437">
        <ele>669.1</ele>
        <time>2021-02-18T13:08:05Z</time>
      </trkpt>
      <trkpt lat="46.84727" lon="5.87438">
        <ele>668.9</ele>
        <time>2021-02-18T13:08:09Z</time>
      </trkpt>
      <trkpt lat="46.84732" lon="5.87439">
        <ele>668.5</ele>
        <time>2021-02-18T13:08:14Z</time>
      </trkpt>
      <trkpt lat="46.84737" lon="5.8744">
        <ele>668.2</ele>
        <time>2021-02-18T13:08:19Z</time>
      </trkpt>
      <trkpt lat="46.84743" lon="5.87441">
        <ele>667.7</ele>
        <time>2021-02-18T13:08:23Z</time>
      </trkpt>
      <trkpt lat="46.84748" lon="5.87443">
        <ele>667.8</ele>
        <time>2021-02-18T13:08:27Z</time>
      </trkpt>
      <trkpt lat="46.84753" lon="5.87445">
        <ele>668.4</ele>
        <time>2021-02-18T13:08:32Z</time>
      </trkpt>
      <trkpt lat="46.84758" lon="5.87447">
        <ele>668.9</ele>
        <time>2021-02-18T13:08:38Z</time>
      </trkpt>
      <trkpt lat="46.84764" lon="5.8745">
        <ele>670.2</ele>
        <time>2021-02-18T13:08:43Z</time>
      </trkpt>
      <trkpt lat="46.84768" lon="5.87454">
        <ele>670.9</ele>
        <time>2021-02-18T13:08:48Z</time>
      </trkpt>
      <trkpt lat="46.84773" lon="5.87458">
        <ele>671.4</ele>
        <time>2021-02-18T13:08:53Z</time>
      </trkpt>
      <trkpt lat="46.84777" lon="5.87462">
        <ele>671.8</ele>
        <time>2021-02-18T13:08:57Z</time>
      </trkpt>
      <trkpt lat="46.84781" lon="5.87466">
        <ele>672.2</ele>
        <time>2021-02-18T13:09:02Z</time>
      </trkpt>
      <trkpt lat="46.84786" lon="5.8747">
        <ele>671.8</ele>
        <time>2021-02-18T13:09:06Z</time>
      </trkpt>
      <trkpt lat="46.8479" lon="5.87475">
        <ele>671.5</ele>
        <time>2021-02-18T13:09:11Z</time>
      </trkpt>
      <trkpt lat="46.84794" lon="5.87478">
        <ele>671.6</ele>
        <time>2021-02-18T13:09:16Z</time>
      </trkpt>
      <trkpt lat="46.84799" lon="5.8748">
        <ele>671.8</ele>
        <time>2021-02-18T13:09:21Z</time>
      </trkpt>
      <trkpt lat="46.84803" lon="5.87483">
        <ele>671.9</ele>
        <time>2021-02-18T13:09:25Z</time>
      </trkpt>
      <trkpt lat="46.84808" lon="5.87487">
        <ele>672</ele>
        <time>2021-02-18T13:09:30Z</time>
      </trkpt>
      <trkpt lat="46.84813" lon="5.8749">
        <ele>671.8</ele>
        <time>2021-02-18T13:09:35Z</time>
      </trkpt>
      <trkpt lat="46.84818" lon="5.87492">
        <ele>671.9</ele>
        <time>2021-02-18T13:09:39Z</time>
      </trkpt>
      <trkpt lat="46.84822" lon="5.87495">
        <ele>672</ele>
        <time>2021-02-18T13:09:44Z</time>
      </trkpt>
      <trkpt lat="46.84826" lon="5.875">
        <ele>672</ele>
        <time>2021-02-18T13:09:50Z</time>
      </trkpt>
      <trkpt lat="46.8483" lon="5.87505">
        <ele>672</ele>
        <time>2021-02-18T13:09:56Z</time>
      </trkpt>
      <trkpt lat="46.84834" lon="5.87509">
        <ele>671.9</ele>
        <time>2021-02-18T13:10:00Z</time>
      </trkpt>
      <trkpt lat="46.84839" lon="5.87513">
        <ele>672.2</ele>
        <time>2021-02-18T13:10:04Z</time>
      </trkpt>
      <trkpt lat="46.84843" lon="5.87517">
        <ele>672.7</ele>
        <time>2021-02-18T13:10:09Z</time>
      </trkpt>
      <trkpt lat="46.84848" lon="5.8752">
        <ele>672.9</ele>
        <time>2021-02-18T13:10:13Z</time>
      </trkpt>
      <trkpt lat="46.84852" lon="5.87523">
        <ele>673.2</ele>
        <time>2021-02-18T13:10:17Z</time>
      </trkpt>
      <trkpt lat="46.84856" lon="5.87527">
        <ele>673.5</ele>
        <time>2021-02-18T13:10:22Z</time>
      </trkpt>
      <trkpt lat="46.8486" lon="5.87532">
        <ele>673.9</ele>
        <time>2021-02-18T13:10:27Z</time>
      </trkpt>
      <trkpt lat="46.84865" lon="5.87535">
        <ele>674.2</ele>
        <time>2021-02-18T13:10:31Z</time>
      </trkpt>
      <trkpt lat="46.84871" lon="5.87537">
        <ele>674.5</ele>
        <time>2021-02-18T13:10:35Z</time>
      </trkpt>
      <trkpt lat="46.84875" lon="5.8754">
        <ele>674.9</ele>
        <time>2021-02-18T13:10:40Z</time>
      </trkpt>
      <trkpt lat="46.8488" lon="5.87544">
        <ele>674.9</ele>
        <time>2021-02-18T13:10:46Z</time>
      </trkpt>
      <trkpt lat="46.84884" lon="5.87548">
        <ele>675.1</ele>
        <time>2021-02-18T13:10:51Z</time>
      </trkpt>
      <trkpt lat="46.84888" lon="5.87553">
        <ele>675.6</ele>
        <time>2021-02-18T13:10:57Z</time>
      </trkpt>
      <trkpt lat="46.84892" lon="5.87558">
        <ele>675.9</ele>
        <time>2021-02-18T13:11:02Z</time>
      </trkpt>
      <trkpt lat="46.84896" lon="5.87562">
        <ele>676.1</ele>
        <time>2021-02-18T13:11:06Z</time>
      </trkpt>
      <trkpt lat="46.84901" lon="5.87566">
        <ele>676.2</ele>
        <time>2021-02-18T13:11:10Z</time>
      </trkpt>
      <trkpt lat="46.84905" lon="5.8757">
        <ele>676.3</ele>
        <time>2021-02-18T13:11:14Z</time>
      </trkpt>
      <trkpt lat="46.84908" lon="5.87574">
        <ele>676</ele>
        <time>2021-02-18T13:11:18Z</time>
      </trkpt>
      <trkpt lat="46.84912" lon="5.87578">
        <ele>675.4</ele>
        <time>2021-02-18T13:11:22Z</time>
      </trkpt>
      <trkpt lat="46.84916" lon="5.87583">
        <ele>674.4</ele>
        <time>2021-02-18T13:11:27Z</time>
      </trkpt>
      <trkpt lat="46.84919" lon="5.87588">
        <ele>673.4</ele>
        <time>2021-02-18T13:11:32Z</time>
      </trkpt>
      <trkpt lat="46.8492" lon="5.87596">
        <ele>672.3</ele>
        <time>2021-02-18T13:11:37Z</time>
      </trkpt>
      <trkpt lat="46.84923" lon="5.87601">
        <ele>671.8</ele>
        <time>2021-02-18T13:11:42Z</time>
      </trkpt>
      <trkpt lat="46.84925" lon="5.87608">
        <ele>671.2</ele>
        <time>2021-02-18T13:11:47Z</time>
      </trkpt>
      <trkpt lat="46.84929" lon="5.87613">
        <ele>671</ele>
        <time>2021-02-18T13:11:52Z</time>
      </trkpt>
      <trkpt lat="46.84933" lon="5.87617">
        <ele>672</ele>
        <time>2021-02-18T13:11:57Z</time>
      </trkpt>
      <trkpt lat="46.84936" lon="5.87622">
        <ele>672.9</ele>
        <time>2021-02-18T13:12:08Z</time>
      </trkpt>
      <trkpt lat="46.84938" lon="5.87629">
        <ele>673.6</ele>
        <time>2021-02-18T13:12:13Z</time>
      </trkpt>
      <trkpt lat="46.84941" lon="5.87635">
        <ele>674.1</ele>
        <time>2021-02-18T13:12:18Z</time>
      </trkpt>
      <trkpt lat="46.84942" lon="5.87642">
        <ele>674.1</ele>
        <time>2021-02-18T13:12:23Z</time>
      </trkpt>
      <trkpt lat="46.84945" lon="5.87647">
        <ele>674.4</ele>
        <time>2021-02-18T13:12:27Z</time>
      </trkpt>
      <trkpt lat="46.84948" lon="5.87653">
        <ele>674.1</ele>
        <time>2021-02-18T13:12:32Z</time>
      </trkpt>
      <trkpt lat="46.8495" lon="5.8766">
        <ele>673.8</ele>
        <time>2021-02-18T13:12:38Z</time>
      </trkpt>
      <trkpt lat="46.84952" lon="5.87665">
        <ele>674.5</ele>
        <time>2021-02-18T13:12:42Z</time>
      </trkpt>
      <trkpt lat="46.84955" lon="5.87671">
        <ele>676.1</ele>
        <time>2021-02-18T13:12:46Z</time>
      </trkpt>
      <trkpt lat="46.84956" lon="5.87677">
        <ele>677.1</ele>
        <time>2021-02-18T13:12:52Z</time>
      </trkpt>
      <trkpt lat="46.84959" lon="5.87683">
        <ele>678.5</ele>
        <time>2021-02-18T13:12:57Z</time>
      </trkpt>
      <trkpt lat="46.84963" lon="5.87687">
        <ele>679.2</ele>
        <time>2021-02-18T13:13:02Z</time>
      </trkpt>
      <trkpt lat="46.84967" lon="5.87691">
        <ele>679.6</ele>
        <time>2021-02-18T13:13:06Z</time>
      </trkpt>
      <trkpt lat="46.84971" lon="5.87694">
        <ele>679.7</ele>
        <time>2021-02-18T13:13:10Z</time>
      </trkpt>
      <trkpt lat="46.84975" lon="5.87698">
        <ele>679.8</ele>
        <time>2021-02-18T13:13:15Z</time>
      </trkpt>
      <trkpt lat="46.84977" lon="5.87705">
        <ele>679.8</ele>
        <time>2021-02-18T13:13:20Z</time>
      </trkpt>
      <trkpt lat="46.8498" lon="5.87711">
        <ele>679.7</ele>
        <time>2021-02-18T13:13:25Z</time>
      </trkpt>
      <trkpt lat="46.84981" lon="5.87718">
        <ele>684</ele>
        <time>2021-02-18T13:13:52Z</time>
      </trkpt>
      <trkpt lat="46.84985" lon="5.87723">
        <ele>684.1</ele>
        <time>2021-02-18T13:13:58Z</time>
      </trkpt>
      <trkpt lat="46.84989" lon="5.87728">
        <ele>684.4</ele>
        <time>2021-02-18T13:14:04Z</time>
      </trkpt>
      <trkpt lat="46.84995" lon="5.87732">
        <ele>685.5</ele>
        <time>2021-02-18T13:14:09Z</time>
      </trkpt>
      <trkpt lat="46.85" lon="5.87735">
        <ele>686.8</ele>
        <time>2021-02-18T13:14:12Z</time>
      </trkpt>
      <trkpt lat="46.85004" lon="5.87738">
        <ele>688.4</ele>
        <time>2021-02-18T13:14:15Z</time>
      </trkpt>
      <trkpt lat="46.85008" lon="5.87742">
        <ele>690</ele>
        <time>2021-02-18T13:14:19Z</time>
      </trkpt>
      <trkpt lat="46.85012" lon="5.87745">
        <ele>691.2</ele>
        <time>2021-02-18T13:14:23Z</time>
      </trkpt>
      <trkpt lat="46.85016" lon="5.8775">
        <ele>692.8</ele>
        <time>2021-02-18T13:14:28Z</time>
      </trkpt>
      <trkpt lat="46.8502" lon="5.87755">
        <ele>693.7</ele>
        <time>2021-02-18T13:14:34Z</time>
      </trkpt>
      <trkpt lat="46.85024" lon="5.87761">
        <ele>693.8</ele>
        <time>2021-02-18T13:14:39Z</time>
      </trkpt>
      <trkpt lat="46.85029" lon="5.87764">
        <ele>694</ele>
        <time>2021-02-18T13:14:43Z</time>
      </trkpt>
      <trkpt lat="46.85033" lon="5.87767">
        <ele>694.4</ele>
        <time>2021-02-18T13:14:46Z</time>
      </trkpt>
      <trkpt lat="46.85037" lon="5.8777">
        <ele>695</ele>
        <time>2021-02-18T13:14:50Z</time>
      </trkpt>
      <trkpt lat="46.85041" lon="5.87774">
        <ele>695.6</ele>
        <time>2021-02-18T13:14:54Z</time>
      </trkpt>
      <trkpt lat="46.85042" lon="5.87781">
        <ele>694.6</ele>
        <time>2021-02-18T13:15:58Z</time>
      </trkpt>
      <trkpt lat="46.85045" lon="5.87786">
        <ele>694.7</ele>
        <time>2021-02-18T13:16:10Z</time>
      </trkpt>
      <trkpt lat="46.85048" lon="5.87791">
        <ele>695.9</ele>
        <time>2021-02-18T13:16:16Z</time>
      </trkpt>
      <trkpt lat="46.85053" lon="5.87794">
        <ele>696.4</ele>
        <time>2021-02-18T13:16:20Z</time>
      </trkpt>
      <trkpt lat="46.85057" lon="5.87798">
        <ele>696.6</ele>
        <time>2021-02-18T13:16:25Z</time>
      </trkpt>
      <trkpt lat="46.85062" lon="5.87799">
        <ele>696.6</ele>
        <time>2021-02-18T13:16:30Z</time>
      </trkpt>
      <trkpt lat="46.85068" lon="5.87799">
        <ele>701.4</ele>
        <time>2021-02-18T13:16:32Z</time>
      </trkpt>
      <trkpt lat="46.85072" lon="5.87801">
        <ele>705</ele>
        <time>2021-02-18T13:16:35Z</time>
      </trkpt>
      <trkpt lat="46.85078" lon="5.87803">
        <ele>709.7</ele>
        <time>2021-02-18T13:16:40Z</time>
      </trkpt>
      <trkpt lat="46.85082" lon="5.87806">
        <ele>713.3</ele>
        <time>2021-02-18T13:16:45Z</time>
      </trkpt>
      <trkpt lat="46.85086" lon="5.87811">
        <ele>715</ele>
        <time>2021-02-18T13:16:51Z</time>
      </trkpt>
      <trkpt lat="46.85088" lon="5.87818">
        <ele>714.2</ele>
        <time>2021-02-18T13:16:57Z</time>
      </trkpt>
      <trkpt lat="46.8509" lon="5.87824">
        <ele>712.1</ele>
        <time>2021-02-18T13:17:02Z</time>
      </trkpt>
      <trkpt lat="46.85093" lon="5.87829">
        <ele>709.5</ele>
        <time>2021-02-18T13:17:07Z</time>
      </trkpt>
      <trkpt lat="46.85097" lon="5.87833">
        <ele>707</ele>
        <time>2021-02-18T13:17:12Z</time>
      </trkpt>
      <trkpt lat="46.85101" lon="5.87839">
        <ele>705.4</ele>
        <time>2021-02-18T13:17:16Z</time>
      </trkpt>
      <trkpt lat="46.85103" lon="5.87846">
        <ele>703.3</ele>
        <time>2021-02-18T13:17:21Z</time>
      </trkpt>
      <trkpt lat="46.85106" lon="5.87851">
        <ele>701.8</ele>
        <time>2021-02-18T13:17:25Z</time>
      </trkpt>
      <trkpt lat="46.85106" lon="5.87858">
        <ele>700.6</ele>
        <time>2021-02-18T13:17:39Z</time>
      </trkpt>
      <trkpt lat="46.85111" lon="5.8786">
        <ele>701.7</ele>
        <time>2021-02-18T13:17:53Z</time>
      </trkpt>
      <trkpt lat="46.85112" lon="5.87867">
        <ele>704.9</ele>
        <time>2021-02-18T13:18:33Z</time>
      </trkpt>
      <trkpt lat="46.85114" lon="5.87874">
        <ele>704.9</ele>
        <time>2021-02-18T13:18:38Z</time>
      </trkpt>
      <trkpt lat="46.85116" lon="5.8788">
        <ele>705.1</ele>
        <time>2021-02-18T13:18:43Z</time>
      </trkpt>
      <trkpt lat="46.85119" lon="5.87886">
        <ele>705.3</ele>
        <time>2021-02-18T13:18:47Z</time>
      </trkpt>
      <trkpt lat="46.85123" lon="5.87892">
        <ele>705.9</ele>
        <time>2021-02-18T13:18:51Z</time>
      </trkpt>
      <trkpt lat="46.85126" lon="5.87898">
        <ele>706</ele>
        <time>2021-02-18T13:18:56Z</time>
      </trkpt>
      <trkpt lat="46.85129" lon="5.87904">
        <ele>706.2</ele>
        <time>2021-02-18T13:19:00Z</time>
      </trkpt>
      <trkpt lat="46.8513" lon="5.87912">
        <ele>707.4</ele>
        <time>2021-02-18T13:19:04Z</time>
      </trkpt>
      <trkpt lat="46.85131" lon="5.87919">
        <ele>709.3</ele>
        <time>2021-02-18T13:19:09Z</time>
      </trkpt>
      <trkpt lat="46.85133" lon="5.87926">
        <ele>711</ele>
        <time>2021-02-18T13:19:14Z</time>
      </trkpt>
      <trkpt lat="46.85136" lon="5.87933">
        <ele>712.4</ele>
        <time>2021-02-18T13:19:18Z</time>
      </trkpt>
      <trkpt lat="46.85139" lon="5.8794">
        <ele>713.8</ele>
        <time>2021-02-18T13:19:22Z</time>
      </trkpt>
      <trkpt lat="46.85141" lon="5.87945">
        <ele>714.4</ele>
        <time>2021-02-18T13:19:26Z</time>
      </trkpt>
      <trkpt lat="46.85144" lon="5.87952">
        <ele>714.9</ele>
        <time>2021-02-18T13:19:31Z</time>
      </trkpt>
      <trkpt lat="46.85146" lon="5.87958">
        <ele>714</ele>
        <time>2021-02-18T13:19:36Z</time>
      </trkpt>
      <trkpt lat="46.85146" lon="5.87965">
        <ele>712.5</ele>
        <time>2021-02-18T13:19:40Z</time>
      </trkpt>
      <trkpt lat="46.85147" lon="5.87973">
        <ele>710.5</ele>
        <time>2021-02-18T13:19:45Z</time>
      </trkpt>
      <trkpt lat="46.85149" lon="5.8798">
        <ele>708.7</ele>
        <time>2021-02-18T13:19:50Z</time>
      </trkpt>
      <trkpt lat="46.85152" lon="5.87985">
        <ele>707.4</ele>
        <time>2021-02-18T13:19:55Z</time>
      </trkpt>
      <trkpt lat="46.85155" lon="5.87991">
        <ele>706.6</ele>
        <time>2021-02-18T13:19:59Z</time>
      </trkpt>
      <trkpt lat="46.85156" lon="5.87999">
        <ele>705.7</ele>
        <time>2021-02-18T13:20:04Z</time>
      </trkpt>
      <trkpt lat="46.85155" lon="5.88006">
        <ele>704.8</ele>
        <time>2021-02-18T13:20:08Z</time>
      </trkpt>
      <trkpt lat="46.85157" lon="5.88013">
        <ele>703.1</ele>
        <time>2021-02-18T13:20:13Z</time>
      </trkpt>
      <trkpt lat="46.85159" lon="5.88021">
        <ele>701.5</ele>
        <time>2021-02-18T13:20:17Z</time>
      </trkpt>
      <trkpt lat="46.85161" lon="5.88027">
        <ele>700.6</ele>
        <time>2021-02-18T13:20:30Z</time>
      </trkpt>
      <trkpt lat="46.85164" lon="5.88033">
        <ele>701.5</ele>
        <time>2021-02-18T13:20:35Z</time>
      </trkpt>
      <trkpt lat="46.85167" lon="5.88039">
        <ele>702.6</ele>
        <time>2021-02-18T13:20:39Z</time>
      </trkpt>
      <trkpt lat="46.85169" lon="5.88045">
        <ele>704</ele>
        <time>2021-02-18T13:20:43Z</time>
      </trkpt>
      <trkpt lat="46.85168" lon="5.88051">
        <ele>705.5</ele>
        <time>2021-02-18T13:20:47Z</time>
      </trkpt>
      <trkpt lat="46.85168" lon="5.88058">
        <ele>706.8</ele>
        <time>2021-02-18T13:20:51Z</time>
      </trkpt>
      <trkpt lat="46.85168" lon="5.88066">
        <ele>708</ele>
        <time>2021-02-18T13:20:56Z</time>
      </trkpt>
      <trkpt lat="46.8517" lon="5.88073">
        <ele>708.9</ele>
        <time>2021-02-18T13:21:01Z</time>
      </trkpt>
      <trkpt lat="46.8517" lon="5.88081">
        <ele>709.4</ele>
        <time>2021-02-18T13:21:06Z</time>
      </trkpt>
      <trkpt lat="46.85169" lon="5.88088">
        <ele>709.9</ele>
        <time>2021-02-18T13:21:10Z</time>
      </trkpt>
      <trkpt lat="46.85168" lon="5.88095">
        <ele>710.3</ele>
        <time>2021-02-18T13:21:14Z</time>
      </trkpt>
      <trkpt lat="46.85167" lon="5.88101">
        <ele>710.5</ele>
        <time>2021-02-18T13:21:18Z</time>
      </trkpt>
      <trkpt lat="46.85166" lon="5.88108">
        <ele>710.5</ele>
        <time>2021-02-18T13:21:22Z</time>
      </trkpt>
      <trkpt lat="46.85164" lon="5.88116">
        <ele>710.3</ele>
        <time>2021-02-18T13:21:27Z</time>
      </trkpt>
      <trkpt lat="46.85163" lon="5.88122">
        <ele>710.3</ele>
        <time>2021-02-18T13:21:31Z</time>
      </trkpt>
      <trkpt lat="46.8516" lon="5.88127">
        <ele>710.5</ele>
        <time>2021-02-18T13:21:35Z</time>
      </trkpt>
      <trkpt lat="46.85158" lon="5.88133">
        <ele>710.9</ele>
        <time>2021-02-18T13:21:40Z</time>
      </trkpt>
      <trkpt lat="46.85154" lon="5.88139">
        <ele>711.1</ele>
        <time>2021-02-18T13:21:46Z</time>
      </trkpt>
      <trkpt lat="46.8515" lon="5.88143">
        <ele>711.2</ele>
        <time>2021-02-18T13:21:52Z</time>
      </trkpt>
      <trkpt lat="46.85146" lon="5.88148">
        <ele>710.9</ele>
        <time>2021-02-18T13:21:57Z</time>
      </trkpt>
      <trkpt lat="46.85142" lon="5.88154">
        <ele>710</ele>
        <time>2021-02-18T13:22:01Z</time>
      </trkpt>
      <trkpt lat="46.85138" lon="5.88159">
        <ele>708.8</ele>
        <time>2021-02-18T13:22:05Z</time>
      </trkpt>
      <trkpt lat="46.85135" lon="5.88163">
        <ele>707.3</ele>
        <time>2021-02-18T13:22:09Z</time>
      </trkpt>
      <trkpt lat="46.8513" lon="5.88168">
        <ele>705.7</ele>
        <time>2021-02-18T13:22:13Z</time>
      </trkpt>
      <trkpt lat="46.85127" lon="5.88174">
        <ele>703.9</ele>
        <time>2021-02-18T13:22:18Z</time>
      </trkpt>
      <trkpt lat="46.85123" lon="5.88179">
        <ele>702.8</ele>
        <time>2021-02-18T13:22:22Z</time>
      </trkpt>
      <trkpt lat="46.85121" lon="5.88185">
        <ele>701.5</ele>
        <time>2021-02-18T13:22:28Z</time>
      </trkpt>
      <trkpt lat="46.85118" lon="5.88191">
        <ele>700.5</ele>
        <time>2021-02-18T13:22:33Z</time>
      </trkpt>
      <trkpt lat="46.85118" lon="5.88198">
        <ele>699.9</ele>
        <time>2021-02-18T13:22:37Z</time>
      </trkpt>
      <trkpt lat="46.85119" lon="5.88205">
        <ele>699.7</ele>
        <time>2021-02-18T13:22:40Z</time>
      </trkpt>
      <trkpt lat="46.8512" lon="5.88211">
        <ele>699.8</ele>
        <time>2021-02-18T13:22:44Z</time>
      </trkpt>
      <trkpt lat="46.85121" lon="5.88218">
        <ele>700.3</ele>
        <time>2021-02-18T13:22:48Z</time>
      </trkpt>
      <trkpt lat="46.85123" lon="5.88225">
        <ele>701.1</ele>
        <time>2021-02-18T13:22:52Z</time>
      </trkpt>
      <trkpt lat="46.85125" lon="5.88232">
        <ele>702</ele>
        <time>2021-02-18T13:22:57Z</time>
      </trkpt>
      <trkpt lat="46.85126" lon="5.88239">
        <ele>703.2</ele>
        <time>2021-02-18T13:23:01Z</time>
      </trkpt>
      <trkpt lat="46.85125" lon="5.88245">
        <ele>704</ele>
        <time>2021-02-18T13:23:08Z</time>
      </trkpt>
      <trkpt lat="46.85127" lon="5.88251">
        <ele>710.7</ele>
        <time>2021-02-18T13:24:47Z</time>
      </trkpt>
      <trkpt lat="46.85131" lon="5.88256">
        <ele>713.1</ele>
        <time>2021-02-18T13:26:50Z</time>
      </trkpt>
      <trkpt lat="46.85132" lon="5.88262">
        <ele>712.7</ele>
        <time>2021-02-18T13:26:55Z</time>
      </trkpt>
      <trkpt lat="46.85135" lon="5.88269">
        <ele>712.4</ele>
        <time>2021-02-18T13:26:59Z</time>
      </trkpt>
      <trkpt lat="46.85137" lon="5.88275">
        <ele>712.6</ele>
        <time>2021-02-18T13:27:03Z</time>
      </trkpt>
      <trkpt lat="46.8514" lon="5.88281">
        <ele>713.4</ele>
        <time>2021-02-18T13:27:07Z</time>
      </trkpt>
      <trkpt lat="46.85142" lon="5.88287">
        <ele>714.6</ele>
        <time>2021-02-18T13:27:11Z</time>
      </trkpt>
      <trkpt lat="46.85145" lon="5.88294">
        <ele>715.7</ele>
        <time>2021-02-18T13:27:16Z</time>
      </trkpt>
      <trkpt lat="46.85147" lon="5.88301">
        <ele>716.5</ele>
        <time>2021-02-18T13:27:21Z</time>
      </trkpt>
      <trkpt lat="46.85149" lon="5.88307">
        <ele>716.6</ele>
        <time>2021-02-18T13:27:25Z</time>
      </trkpt>
      <trkpt lat="46.85153" lon="5.88312">
        <ele>716.7</ele>
        <time>2021-02-18T13:27:29Z</time>
      </trkpt>
      <trkpt lat="46.85157" lon="5.88318">
        <ele>716.8</ele>
        <time>2021-02-18T13:27:33Z</time>
      </trkpt>
      <trkpt lat="46.85161" lon="5.88322">
        <ele>716.7</ele>
        <time>2021-02-18T13:27:37Z</time>
      </trkpt>
      <trkpt lat="46.85165" lon="5.88326">
        <ele>717</ele>
        <time>2021-02-18T13:27:42Z</time>
      </trkpt>
      <trkpt lat="46.8516" lon="5.8833">
        <ele>717.5</ele>
        <time>2021-02-18T13:28:07Z</time>
      </trkpt>
      <trkpt lat="46.85157" lon="5.88335">
        <ele>716.8</ele>
        <time>2021-02-18T13:28:12Z</time>
      </trkpt>
      <trkpt lat="46.85162" lon="5.88335">
        <ele>711.9</ele>
        <time>2021-02-18T13:28:39Z</time>
      </trkpt>
      <trkpt lat="46.85168" lon="5.88339">
        <ele>711</ele>
        <time>2021-02-18T13:28:42Z</time>
      </trkpt>
      <trkpt lat="46.85171" lon="5.88344">
        <ele>710</ele>
        <time>2021-02-18T13:28:45Z</time>
      </trkpt>
      <trkpt lat="46.85176" lon="5.88348">
        <ele>708.9</ele>
        <time>2021-02-18T13:28:49Z</time>
      </trkpt>
      <trkpt lat="46.8518" lon="5.88352">
        <ele>707.9</ele>
        <time>2021-02-18T13:28:53Z</time>
      </trkpt>
      <trkpt lat="46.85183" lon="5.88358">
        <ele>706.9</ele>
        <time>2021-02-18T13:28:58Z</time>
      </trkpt>
      <trkpt lat="46.85187" lon="5.88363">
        <ele>706.6</ele>
        <time>2021-02-18T13:29:02Z</time>
      </trkpt>
      <trkpt lat="46.85191" lon="5.88365">
        <ele>706.7</ele>
        <time>2021-02-18T13:29:05Z</time>
      </trkpt>
      <trkpt lat="46.85196" lon="5.8837">
        <ele>706.9</ele>
        <time>2021-02-18T13:29:09Z</time>
      </trkpt>
      <trkpt lat="46.85199" lon="5.88375">
        <ele>707.3</ele>
        <time>2021-02-18T13:29:13Z</time>
      </trkpt>
      <trkpt lat="46.85202" lon="5.8838">
        <ele>707.6</ele>
        <time>2021-02-18T13:29:18Z</time>
      </trkpt>
      <trkpt lat="46.85204" lon="5.88386">
        <ele>707.9</ele>
        <time>2021-02-18T13:29:22Z</time>
      </trkpt>
      <trkpt lat="46.85207" lon="5.88392">
        <ele>708.4</ele>
        <time>2021-02-18T13:29:26Z</time>
      </trkpt>
      <trkpt lat="46.85211" lon="5.88397">
        <ele>709</ele>
        <time>2021-02-18T13:29:30Z</time>
      </trkpt>
      <trkpt lat="46.85215" lon="5.88402">
        <ele>709</ele>
        <time>2021-02-18T13:29:35Z</time>
      </trkpt>
      <trkpt lat="46.8522" lon="5.88407">
        <ele>708.9</ele>
        <time>2021-02-18T13:29:40Z</time>
      </trkpt>
      <trkpt lat="46.85224" lon="5.88411">
        <ele>709.3</ele>
        <time>2021-02-18T13:29:44Z</time>
      </trkpt>
      <trkpt lat="46.85228" lon="5.88414">
        <ele>709.8</ele>
        <time>2021-02-18T13:29:48Z</time>
      </trkpt>
      <trkpt lat="46.85233" lon="5.88419">
        <ele>710.2</ele>
        <time>2021-02-18T13:29:53Z</time>
      </trkpt>
      <trkpt lat="46.85237" lon="5.88423">
        <ele>710.5</ele>
        <time>2021-02-18T13:29:57Z</time>
      </trkpt>
      <trkpt lat="46.8524" lon="5.88428">
        <ele>711.1</ele>
        <time>2021-02-18T13:30:01Z</time>
      </trkpt>
      <trkpt lat="46.85244" lon="5.88433">
        <ele>712.3</ele>
        <time>2021-02-18T13:30:05Z</time>
      </trkpt>
      <trkpt lat="46.85248" lon="5.88437">
        <ele>713.2</ele>
        <time>2021-02-18T13:30:09Z</time>
      </trkpt>
      <trkpt lat="46.85252" lon="5.88441">
        <ele>714.2</ele>
        <time>2021-02-18T13:30:13Z</time>
      </trkpt>
      <trkpt lat="46.85256" lon="5.88446">
        <ele>715.1</ele>
        <time>2021-02-18T13:30:18Z</time>
      </trkpt>
      <trkpt lat="46.8526" lon="5.8845">
        <ele>715.1</ele>
        <time>2021-02-18T13:30:26Z</time>
      </trkpt>
      <trkpt lat="46.85263" lon="5.88454">
        <ele>714.5</ele>
        <time>2021-02-18T13:30:30Z</time>
      </trkpt>
      <trkpt lat="46.85266" lon="5.8846">
        <ele>713.9</ele>
        <time>2021-02-18T13:30:34Z</time>
      </trkpt>
      <trkpt lat="46.85269" lon="5.88467">
        <ele>713.3</ele>
        <time>2021-02-18T13:30:38Z</time>
      </trkpt>
      <trkpt lat="46.85271" lon="5.88474">
        <ele>712.7</ele>
        <time>2021-02-18T13:30:42Z</time>
      </trkpt>
      <trkpt lat="46.85271" lon="5.88481">
        <ele>712.2</ele>
        <time>2021-02-18T13:30:46Z</time>
      </trkpt>
      <trkpt lat="46.85272" lon="5.88487">
        <ele>711.9</ele>
        <time>2021-02-18T13:30:50Z</time>
      </trkpt>
      <trkpt lat="46.85275" lon="5.88493">
        <ele>711.9</ele>
        <time>2021-02-18T13:30:54Z</time>
      </trkpt>
      <trkpt lat="46.85276" lon="5.885">
        <ele>712.4</ele>
        <time>2021-02-18T13:30:58Z</time>
      </trkpt>
      <trkpt lat="46.85277" lon="5.88508">
        <ele>713</ele>
        <time>2021-02-18T13:31:03Z</time>
      </trkpt>
      <trkpt lat="46.85277" lon="5.88516">
        <ele>713.6</ele>
        <time>2021-02-18T13:31:08Z</time>
      </trkpt>
      <trkpt lat="46.85276" lon="5.88523">
        <ele>713.8</ele>
        <time>2021-02-18T13:31:12Z</time>
      </trkpt>
      <trkpt lat="46.85276" lon="5.88531">
        <ele>713.8</ele>
        <time>2021-02-18T13:31:16Z</time>
      </trkpt>
      <trkpt lat="46.85277" lon="5.88538">
        <ele>713.5</ele>
        <time>2021-02-18T13:31:20Z</time>
      </trkpt>
      <trkpt lat="46.85279" lon="5.88545">
        <ele>712.9</ele>
        <time>2021-02-18T13:31:24Z</time>
      </trkpt>
      <trkpt lat="46.85279" lon="5.88552">
        <ele>712.2</ele>
        <time>2021-02-18T13:31:28Z</time>
      </trkpt>
      <trkpt lat="46.85279" lon="5.88559">
        <ele>711.3</ele>
        <time>2021-02-18T13:31:33Z</time>
      </trkpt>
      <trkpt lat="46.85279" lon="5.88566">
        <ele>710.8</ele>
        <time>2021-02-18T13:31:37Z</time>
      </trkpt>
      <trkpt lat="46.85279" lon="5.88574">
        <ele>710.5</ele>
        <time>2021-02-18T13:31:41Z</time>
      </trkpt>
      <trkpt lat="46.8528" lon="5.88581">
        <ele>710.4</ele>
        <time>2021-02-18T13:31:46Z</time>
      </trkpt>
      <trkpt lat="46.85282" lon="5.88589">
        <ele>710.7</ele>
        <time>2021-02-18T13:31:51Z</time>
      </trkpt>
      <trkpt lat="46.85286" lon="5.88595">
        <ele>712</ele>
        <time>2021-02-18T13:31:55Z</time>
      </trkpt>
      <trkpt lat="46.85289" lon="5.88601">
        <ele>712.9</ele>
        <time>2021-02-18T13:32:00Z</time>
      </trkpt>
      <trkpt lat="46.85292" lon="5.88607">
        <ele>712.1</ele>
        <time>2021-02-18T13:32:06Z</time>
      </trkpt>
      <trkpt lat="46.85296" lon="5.88611">
        <ele>711.4</ele>
        <time>2021-02-18T13:32:10Z</time>
      </trkpt>
      <trkpt lat="46.85301" lon="5.88615">
        <ele>711</ele>
        <time>2021-02-18T13:32:14Z</time>
      </trkpt>
      <trkpt lat="46.85306" lon="5.88619">
        <ele>711.3</ele>
        <time>2021-02-18T13:32:18Z</time>
      </trkpt>
      <trkpt lat="46.85311" lon="5.88622">
        <ele>711.9</ele>
        <time>2021-02-18T13:32:22Z</time>
      </trkpt>
      <trkpt lat="46.85315" lon="5.88626">
        <ele>712.4</ele>
        <time>2021-02-18T13:32:26Z</time>
      </trkpt>
      <trkpt lat="46.8532" lon="5.8863">
        <ele>713.4</ele>
        <time>2021-02-18T13:32:30Z</time>
      </trkpt>
      <trkpt lat="46.85324" lon="5.88633">
        <ele>714.8</ele>
        <time>2021-02-18T13:32:34Z</time>
      </trkpt>
      <trkpt lat="46.85329" lon="5.88637">
        <ele>716.8</ele>
        <time>2021-02-18T13:32:40Z</time>
      </trkpt>
      <trkpt lat="46.85332" lon="5.88642">
        <ele>718.3</ele>
        <time>2021-02-18T13:32:45Z</time>
      </trkpt>
      <trkpt lat="46.85336" lon="5.88647">
        <ele>719.1</ele>
        <time>2021-02-18T13:32:50Z</time>
      </trkpt>
      <trkpt lat="46.85341" lon="5.8865">
        <ele>718.9</ele>
        <time>2021-02-18T13:32:54Z</time>
      </trkpt>
      <trkpt lat="46.85346" lon="5.88654">
        <ele>718.6</ele>
        <time>2021-02-18T13:32:58Z</time>
      </trkpt>
      <trkpt lat="46.85351" lon="5.88657">
        <ele>718</ele>
        <time>2021-02-18T13:33:02Z</time>
      </trkpt>
      <trkpt lat="46.85356" lon="5.8866">
        <ele>717</ele>
        <time>2021-02-18T13:33:06Z</time>
      </trkpt>
      <trkpt lat="46.85359" lon="5.88665">
        <ele>715.5</ele>
        <time>2021-02-18T13:33:12Z</time>
      </trkpt>
      <trkpt lat="46.85363" lon="5.88671">
        <ele>714.6</ele>
        <time>2021-02-18T13:33:17Z</time>
      </trkpt>
      <trkpt lat="46.85366" lon="5.88676">
        <ele>713.9</ele>
        <time>2021-02-18T13:33:22Z</time>
      </trkpt>
      <trkpt lat="46.8537" lon="5.8868">
        <ele>713.9</ele>
        <time>2021-02-18T13:33:25Z</time>
      </trkpt>
      <trkpt lat="46.85374" lon="5.88684">
        <ele>714.2</ele>
        <time>2021-02-18T13:33:28Z</time>
      </trkpt>
      <trkpt lat="46.85378" lon="5.88687">
        <ele>714.5</ele>
        <time>2021-02-18T13:33:31Z</time>
      </trkpt>
      <trkpt lat="46.85382" lon="5.88692">
        <ele>714.6</ele>
        <time>2021-02-18T13:33:35Z</time>
      </trkpt>
      <trkpt lat="46.85385" lon="5.88697">
        <ele>714.1</ele>
        <time>2021-02-18T13:33:40Z</time>
      </trkpt>
      <trkpt lat="46.85388" lon="5.88703">
        <ele>713.2</ele>
        <time>2021-02-18T13:33:46Z</time>
      </trkpt>
      <trkpt lat="46.85389" lon="5.8871">
        <ele>712.7</ele>
        <time>2021-02-18T13:33:51Z</time>
      </trkpt>
      <trkpt lat="46.85392" lon="5.88715">
        <ele>712</ele>
        <time>2021-02-18T13:33:57Z</time>
      </trkpt>
      <trkpt lat="46.85395" lon="5.88721">
        <ele>710.9</ele>
        <time>2021-02-18T13:34:03Z</time>
      </trkpt>
      <trkpt lat="46.85398" lon="5.88726">
        <ele>710.4</ele>
        <time>2021-02-18T13:34:08Z</time>
      </trkpt>
      <trkpt lat="46.85402" lon="5.8873">
        <ele>710.9</ele>
        <time>2021-02-18T13:34:12Z</time>
      </trkpt>
      <trkpt lat="46.85406" lon="5.88733">
        <ele>711.8</ele>
        <time>2021-02-18T13:34:17Z</time>
      </trkpt>
      <trkpt lat="46.8541" lon="5.88736">
        <ele>712.7</ele>
        <time>2021-02-18T13:34:22Z</time>
      </trkpt>
      <trkpt lat="46.85415" lon="5.88739">
        <ele>713.6</ele>
        <time>2021-02-18T13:34:27Z</time>
      </trkpt>
      <trkpt lat="46.85419" lon="5.8874">
        <ele>714.1</ele>
        <time>2021-02-18T13:34:31Z</time>
      </trkpt>
      <trkpt lat="46.85424" lon="5.8874">
        <ele>715</ele>
        <time>2021-02-18T13:34:37Z</time>
      </trkpt>
      <trkpt lat="46.8543" lon="5.88739">
        <ele>715.6</ele>
        <time>2021-02-18T13:34:42Z</time>
      </trkpt>
      <trkpt lat="46.85435" lon="5.88737">
        <ele>716.1</ele>
        <time>2021-02-18T13:34:47Z</time>
      </trkpt>
      <trkpt lat="46.85439" lon="5.88733">
        <ele>716.5</ele>
        <time>2021-02-18T13:34:52Z</time>
      </trkpt>
      <trkpt lat="46.85444" lon="5.8873">
        <ele>716.5</ele>
        <time>2021-02-18T13:34:57Z</time>
      </trkpt>
      <trkpt lat="46.85448" lon="5.88727">
        <ele>716.3</ele>
        <time>2021-02-18T13:35:02Z</time>
      </trkpt>
      <trkpt lat="46.85453" lon="5.88725">
        <ele>715.8</ele>
        <time>2021-02-18T13:35:07Z</time>
      </trkpt>
      <trkpt lat="46.85458" lon="5.88722">
        <ele>715.5</ele>
        <time>2021-02-18T13:35:12Z</time>
      </trkpt>
      <trkpt lat="46.85463" lon="5.8872">
        <ele>714.8</ele>
        <time>2021-02-18T13:35:18Z</time>
      </trkpt>
      <trkpt lat="46.85467" lon="5.88718">
        <ele>714.4</ele>
        <time>2021-02-18T13:35:23Z</time>
      </trkpt>
      <trkpt lat="46.85472" lon="5.88718">
        <ele>713.9</ele>
        <time>2021-02-18T13:35:29Z</time>
      </trkpt>
      <trkpt lat="46.85476" lon="5.88716">
        <ele>713.4</ele>
        <time>2021-02-18T13:35:35Z</time>
      </trkpt>
      <trkpt lat="46.85482" lon="5.88715">
        <ele>713.1</ele>
        <time>2021-02-18T13:35:39Z</time>
      </trkpt>
      <trkpt lat="46.85487" lon="5.88716">
        <ele>712.3</ele>
        <time>2021-02-18T13:35:44Z</time>
      </trkpt>
      <trkpt lat="46.85492" lon="5.88719">
        <ele>711.2</ele>
        <time>2021-02-18T13:35:49Z</time>
      </trkpt>
      <trkpt lat="46.85496" lon="5.88721">
        <ele>709.6</ele>
        <time>2021-02-18T13:35:55Z</time>
      </trkpt>
      <trkpt lat="46.85501" lon="5.88723">
        <ele>708.1</ele>
        <time>2021-02-18T13:35:59Z</time>
      </trkpt>
      <trkpt lat="46.85506" lon="5.88725">
        <ele>707</ele>
        <time>2021-02-18T13:36:02Z</time>
      </trkpt>
      <trkpt lat="46.85512" lon="5.88726">
        <ele>705.7</ele>
        <time>2021-02-18T13:36:05Z</time>
      </trkpt>
      <trkpt lat="46.85517" lon="5.88728">
        <ele>703.9</ele>
        <time>2021-02-18T13:36:09Z</time>
      </trkpt>
      <trkpt lat="46.85521" lon="5.88732">
        <ele>702.2</ele>
        <time>2021-02-18T13:36:13Z</time>
      </trkpt>
      <trkpt lat="46.85526" lon="5.88735">
        <ele>700.8</ele>
        <time>2021-02-18T13:36:17Z</time>
      </trkpt>
      <trkpt lat="46.8553" lon="5.88739">
        <ele>697.9</ele>
        <time>2021-02-18T13:36:25Z</time>
      </trkpt>
      <trkpt lat="46.85535" lon="5.88743">
        <ele>696.7</ele>
        <time>2021-02-18T13:36:30Z</time>
      </trkpt>
      <trkpt lat="46.85539" lon="5.88747">
        <ele>695.8</ele>
        <time>2021-02-18T13:36:34Z</time>
      </trkpt>
      <trkpt lat="46.85544" lon="5.8875">
        <ele>695</ele>
        <time>2021-02-18T13:36:39Z</time>
      </trkpt>
      <trkpt lat="46.85549" lon="5.88753">
        <ele>694.2</ele>
        <time>2021-02-18T13:36:44Z</time>
      </trkpt>
      <trkpt lat="46.85554" lon="5.88754">
        <ele>693.7</ele>
        <time>2021-02-18T13:36:49Z</time>
      </trkpt>
      <trkpt lat="46.85559" lon="5.88756">
        <ele>692.2</ele>
        <time>2021-02-18T13:36:55Z</time>
      </trkpt>
      <trkpt lat="46.85564" lon="5.88758">
        <ele>690.6</ele>
        <time>2021-02-18T13:37:02Z</time>
      </trkpt>
      <trkpt lat="46.85568" lon="5.8876">
        <ele>689.7</ele>
        <time>2021-02-18T13:37:06Z</time>
      </trkpt>
      <trkpt lat="46.85574" lon="5.88761">
        <ele>688.8</ele>
        <time>2021-02-18T13:37:11Z</time>
      </trkpt>
      <trkpt lat="46.85578" lon="5.88763">
        <ele>687.8</ele>
        <time>2021-02-18T13:37:17Z</time>
      </trkpt>
      <trkpt lat="46.85583" lon="5.88765">
        <ele>686.9</ele>
        <time>2021-02-18T13:37:29Z</time>
      </trkpt>
      <trkpt lat="46.85588" lon="5.88766">
        <ele>687.1</ele>
        <time>2021-02-18T13:37:33Z</time>
      </trkpt>
      <trkpt lat="46.85595" lon="5.88765">
        <ele>689.8</ele>
        <time>2021-02-18T13:37:35Z</time>
      </trkpt>
      <trkpt lat="46.856" lon="5.88768">
        <ele>688.8</ele>
        <time>2021-02-18T13:37:47Z</time>
      </trkpt>
      <trkpt lat="46.85605" lon="5.88769">
        <ele>688.9</ele>
        <time>2021-02-18T13:37:50Z</time>
      </trkpt>
      <trkpt lat="46.85609" lon="5.88772">
        <ele>688.7</ele>
        <time>2021-02-18T13:37:55Z</time>
      </trkpt>
      <trkpt lat="46.85614" lon="5.88772">
        <ele>688.6</ele>
        <time>2021-02-18T13:37:58Z</time>
      </trkpt>
      <trkpt lat="46.85619" lon="5.88771">
        <ele>689.2</ele>
        <time>2021-02-18T13:38:01Z</time>
      </trkpt>
      <trkpt lat="46.85625" lon="5.88771">
        <ele>690</ele>
        <time>2021-02-18T13:38:04Z</time>
      </trkpt>
      <trkpt lat="46.85629" lon="5.88772">
        <ele>691</ele>
        <time>2021-02-18T13:38:08Z</time>
      </trkpt>
      <trkpt lat="46.85634" lon="5.88774">
        <ele>690.6</ele>
        <time>2021-02-18T13:38:14Z</time>
      </trkpt>
      <trkpt lat="46.85638" lon="5.88777">
        <ele>689.4</ele>
        <time>2021-02-18T13:38:20Z</time>
      </trkpt>
      <trkpt lat="46.85643" lon="5.8878">
        <ele>688.5</ele>
        <time>2021-02-18T13:38:25Z</time>
      </trkpt>
      <trkpt lat="46.85649" lon="5.8878">
        <ele>688.3</ele>
        <time>2021-02-18T13:38:28Z</time>
      </trkpt>
      <trkpt lat="46.85656" lon="5.88777">
        <ele>688.9</ele>
        <time>2021-02-18T13:38:30Z</time>
      </trkpt>
      <trkpt lat="46.8566" lon="5.88775">
        <ele>689.2</ele>
        <time>2021-02-18T13:38:32Z</time>
      </trkpt>
      <trkpt lat="46.85665" lon="5.88776">
        <ele>689.7</ele>
        <time>2021-02-18T13:38:35Z</time>
      </trkpt>
      <trkpt lat="46.85669" lon="5.88779">
        <ele>689.9</ele>
        <time>2021-02-18T13:38:40Z</time>
      </trkpt>
      <trkpt lat="46.85674" lon="5.88781">
        <ele>689.6</ele>
        <time>2021-02-18T13:38:46Z</time>
      </trkpt>
      <trkpt lat="46.85678" lon="5.88784">
        <ele>689.3</ele>
        <time>2021-02-18T13:38:50Z</time>
      </trkpt>
      <trkpt lat="46.85684" lon="5.88787">
        <ele>688.7</ele>
        <time>2021-02-18T13:38:54Z</time>
      </trkpt>
      <trkpt lat="46.85688" lon="5.88789">
        <ele>688</ele>
        <time>2021-02-18T13:38:57Z</time>
      </trkpt>
      <trkpt lat="46.85693" lon="5.88793">
        <ele>686.5</ele>
        <time>2021-02-18T13:39:02Z</time>
      </trkpt>
      <trkpt lat="46.85697" lon="5.88796">
        <ele>684.6</ele>
        <time>2021-02-18T13:39:07Z</time>
      </trkpt>
      <trkpt lat="46.85701" lon="5.888">
        <ele>682.5</ele>
        <time>2021-02-18T13:39:12Z</time>
      </trkpt>
      <trkpt lat="46.85704" lon="5.88806">
        <ele>680.4</ele>
        <time>2021-02-18T13:39:18Z</time>
      </trkpt>
      <trkpt lat="46.85707" lon="5.88812">
        <ele>679</ele>
        <time>2021-02-18T13:39:24Z</time>
      </trkpt>
      <trkpt lat="46.85709" lon="5.88819">
        <ele>677.7</ele>
        <time>2021-02-18T13:39:29Z</time>
      </trkpt>
      <trkpt lat="46.85711" lon="5.88825">
        <ele>676.7</ele>
        <time>2021-02-18T13:39:33Z</time>
      </trkpt>
      <trkpt lat="46.85714" lon="5.88831">
        <ele>675.4</ele>
        <time>2021-02-18T13:39:38Z</time>
      </trkpt>
      <trkpt lat="46.85716" lon="5.88838">
        <ele>674.2</ele>
        <time>2021-02-18T13:39:43Z</time>
      </trkpt>
      <trkpt lat="46.85718" lon="5.88844">
        <ele>673.2</ele>
        <time>2021-02-18T13:39:47Z</time>
      </trkpt>
      <trkpt lat="46.8572" lon="5.88852">
        <ele>672</ele>
        <time>2021-02-18T13:39:52Z</time>
      </trkpt>
      <trkpt lat="46.85721" lon="5.88859">
        <ele>670.7</ele>
        <time>2021-02-18T13:39:57Z</time>
      </trkpt>
      <trkpt lat="46.85724" lon="5.88865">
        <ele>669.3</ele>
        <time>2021-02-18T13:40:02Z</time>
      </trkpt>
      <trkpt lat="46.85728" lon="5.8887">
        <ele>667.6</ele>
        <time>2021-02-18T13:40:07Z</time>
      </trkpt>
      <trkpt lat="46.85731" lon="5.88875">
        <ele>666.7</ele>
        <time>2021-02-18T13:40:11Z</time>
      </trkpt>
      <trkpt lat="46.85735" lon="5.8888">
        <ele>666.4</ele>
        <time>2021-02-18T13:40:15Z</time>
      </trkpt>
      <trkpt lat="46.85737" lon="5.88886">
        <ele>666.5</ele>
        <time>2021-02-18T13:40:19Z</time>
      </trkpt>
      <trkpt lat="46.85741" lon="5.8889">
        <ele>666.5</ele>
        <time>2021-02-18T13:40:23Z</time>
      </trkpt>
      <trkpt lat="46.85744" lon="5.88895">
        <ele>666.3</ele>
        <time>2021-02-18T13:40:28Z</time>
      </trkpt>
      <trkpt lat="46.85749" lon="5.889">
        <ele>666.1</ele>
        <time>2021-02-18T13:40:33Z</time>
      </trkpt>
      <trkpt lat="46.85753" lon="5.88905">
        <ele>666.1</ele>
        <time>2021-02-18T13:40:38Z</time>
      </trkpt>
      <trkpt lat="46.85757" lon="5.88908">
        <ele>667.3</ele>
        <time>2021-02-18T13:40:45Z</time>
      </trkpt>
      <trkpt lat="46.85762" lon="5.88909">
        <ele>668.8</ele>
        <time>2021-02-18T13:40:57Z</time>
      </trkpt>
      <trkpt lat="46.85767" lon="5.88912">
        <ele>668.4</ele>
        <time>2021-02-18T13:41:03Z</time>
      </trkpt>
      <trkpt lat="46.85771" lon="5.88916">
        <ele>668</ele>
        <time>2021-02-18T13:41:09Z</time>
      </trkpt>
      <trkpt lat="46.85774" lon="5.88923">
        <ele>667.4</ele>
        <time>2021-02-18T13:41:17Z</time>
      </trkpt>
      <trkpt lat="46.85776" lon="5.88928">
        <ele>666.7</ele>
        <time>2021-02-18T13:41:32Z</time>
      </trkpt>
      <trkpt lat="46.85781" lon="5.88931">
        <ele>667.3</ele>
        <time>2021-02-18T13:41:36Z</time>
      </trkpt>
      <trkpt lat="46.85785" lon="5.88934">
        <ele>668.1</ele>
        <time>2021-02-18T13:41:40Z</time>
      </trkpt>
      <trkpt lat="46.8579" lon="5.88937">
        <ele>668.9</ele>
        <time>2021-02-18T13:41:46Z</time>
      </trkpt>
      <trkpt lat="46.85794" lon="5.88939">
        <ele>668.8</ele>
        <time>2021-02-18T13:41:53Z</time>
      </trkpt>
      <trkpt lat="46.85799" lon="5.88944">
        <ele>668.1</ele>
        <time>2021-02-18T13:41:59Z</time>
      </trkpt>
      <trkpt lat="46.85803" lon="5.88946">
        <ele>667.8</ele>
        <time>2021-02-18T13:42:03Z</time>
      </trkpt>
      <trkpt lat="46.85808" lon="5.8895">
        <ele>667</ele>
        <time>2021-02-18T13:42:10Z</time>
      </trkpt>
      <trkpt lat="46.85812" lon="5.88954">
        <ele>666</ele>
        <time>2021-02-18T13:42:15Z</time>
      </trkpt>
      <trkpt lat="46.85816" lon="5.88961">
        <ele>664</ele>
        <time>2021-02-18T13:42:19Z</time>
      </trkpt>
      <trkpt lat="46.8582" lon="5.88966">
        <ele>663.2</ele>
        <time>2021-02-18T13:42:22Z</time>
      </trkpt>
      <trkpt lat="46.85824" lon="5.88969">
        <ele>662.1</ele>
        <time>2021-02-18T13:42:44Z</time>
      </trkpt>
      <trkpt lat="46.8582" lon="5.88971">
        <ele>662.8</ele>
        <time>2021-02-18T13:43:09Z</time>
      </trkpt>
      <trkpt lat="46.85824" lon="5.88972">
        <ele>668.9</ele>
        <time>2021-02-18T13:43:47Z</time>
      </trkpt>
      <trkpt lat="46.85829" lon="5.8897">
        <ele>670.3</ele>
        <time>2021-02-18T13:43:58Z</time>
      </trkpt>
      <trkpt lat="46.85823" lon="5.88966">
        <ele>670.6</ele>
        <time>2021-02-18T13:45:04Z</time>
      </trkpt>
      <trkpt lat="46.85818" lon="5.88967">
        <ele>670.6</ele>
        <time>2021-02-18T13:45:07Z</time>
      </trkpt>
      <trkpt lat="46.85823" lon="5.88969">
        <ele>671.4</ele>
        <time>2021-02-18T13:45:19Z</time>
      </trkpt>
      <trkpt lat="46.85828" lon="5.88972">
        <ele>671.2</ele>
        <time>2021-02-18T13:45:23Z</time>
      </trkpt>
      <trkpt lat="46.85833" lon="5.88975">
        <ele>670.8</ele>
        <time>2021-02-18T13:45:27Z</time>
      </trkpt>
      <trkpt lat="46.85837" lon="5.88979">
        <ele>670.6</ele>
        <time>2021-02-18T13:45:32Z</time>
      </trkpt>
      <trkpt lat="46.8584" lon="5.88984">
        <ele>670.2</ele>
        <time>2021-02-18T13:45:36Z</time>
      </trkpt>
      <trkpt lat="46.85844" lon="5.88991">
        <ele>669.8</ele>
        <time>2021-02-18T13:45:40Z</time>
      </trkpt>
      <trkpt lat="46.85847" lon="5.88996">
        <ele>669.3</ele>
        <time>2021-02-18T13:45:44Z</time>
      </trkpt>
      <trkpt lat="46.85849" lon="5.89001">
        <ele>668.8</ele>
        <time>2021-02-18T13:45:48Z</time>
      </trkpt>
      <trkpt lat="46.85853" lon="5.89007">
        <ele>668.3</ele>
        <time>2021-02-18T13:45:53Z</time>
      </trkpt>
      <trkpt lat="46.85858" lon="5.89011">
        <ele>668</ele>
        <time>2021-02-18T13:45:57Z</time>
      </trkpt>
      <trkpt lat="46.85862" lon="5.89016">
        <ele>667.4</ele>
        <time>2021-02-18T13:46:01Z</time>
      </trkpt>
      <trkpt lat="46.85865" lon="5.89021">
        <ele>666.7</ele>
        <time>2021-02-18T13:46:05Z</time>
      </trkpt>
      <trkpt lat="46.85868" lon="5.89028">
        <ele>665.5</ele>
        <time>2021-02-18T13:46:10Z</time>
      </trkpt>
      <trkpt lat="46.85871" lon="5.89034">
        <ele>664.6</ele>
        <time>2021-02-18T13:46:14Z</time>
      </trkpt>
      <trkpt lat="46.85875" lon="5.8904">
        <ele>663.8</ele>
        <time>2021-02-18T13:46:19Z</time>
      </trkpt>
      <trkpt lat="46.85877" lon="5.89046">
        <ele>662.9</ele>
        <time>2021-02-18T13:46:24Z</time>
      </trkpt>
      <trkpt lat="46.8588" lon="5.89052">
        <ele>661.9</ele>
        <time>2021-02-18T13:46:29Z</time>
      </trkpt>
      <trkpt lat="46.85883" lon="5.89058">
        <ele>661</ele>
        <time>2021-02-18T13:46:34Z</time>
      </trkpt>
      <trkpt lat="46.85884" lon="5.89064">
        <ele>659.7</ele>
        <time>2021-02-18T13:46:39Z</time>
      </trkpt>
      <trkpt lat="46.85887" lon="5.89071">
        <ele>658.5</ele>
        <time>2021-02-18T13:46:44Z</time>
      </trkpt>
      <trkpt lat="46.8589" lon="5.89077">
        <ele>657.9</ele>
        <time>2021-02-18T13:46:48Z</time>
      </trkpt>
      <trkpt lat="46.85893" lon="5.89083">
        <ele>657.7</ele>
        <time>2021-02-18T13:46:51Z</time>
      </trkpt>
      <trkpt lat="46.85897" lon="5.89089">
        <ele>657.7</ele>
        <time>2021-02-18T13:46:55Z</time>
      </trkpt>
      <trkpt lat="46.85899" lon="5.89096">
        <ele>658.2</ele>
        <time>2021-02-18T13:46:59Z</time>
      </trkpt>
      <trkpt lat="46.85901" lon="5.89104">
        <ele>659</ele>
        <time>2021-02-18T13:47:03Z</time>
      </trkpt>
      <trkpt lat="46.85903" lon="5.8911">
        <ele>660</ele>
        <time>2021-02-18T13:47:07Z</time>
      </trkpt>
      <trkpt lat="46.85904" lon="5.89117">
        <ele>661.1</ele>
        <time>2021-02-18T13:47:12Z</time>
      </trkpt>
      <trkpt lat="46.85905" lon="5.89124">
        <ele>662</ele>
        <time>2021-02-18T13:47:17Z</time>
      </trkpt>
      <trkpt lat="46.85906" lon="5.89131">
        <ele>662.5</ele>
        <time>2021-02-18T13:47:21Z</time>
      </trkpt>
      <trkpt lat="46.85909" lon="5.89137">
        <ele>662.9</ele>
        <time>2021-02-18T13:47:25Z</time>
      </trkpt>
      <trkpt lat="46.8591" lon="5.89144">
        <ele>663</ele>
        <time>2021-02-18T13:47:29Z</time>
      </trkpt>
      <trkpt lat="46.85912" lon="5.89151">
        <ele>662.8</ele>
        <time>2021-02-18T13:47:34Z</time>
      </trkpt>
      <trkpt lat="46.85913" lon="5.89159">
        <ele>663</ele>
        <time>2021-02-18T13:47:38Z</time>
      </trkpt>
      <trkpt lat="46.85913" lon="5.89165">
        <ele>662.9</ele>
        <time>2021-02-18T13:47:42Z</time>
      </trkpt>
      <trkpt lat="46.85914" lon="5.89173">
        <ele>662.4</ele>
        <time>2021-02-18T13:47:47Z</time>
      </trkpt>
      <trkpt lat="46.85915" lon="5.8918">
        <ele>661.7</ele>
        <time>2021-02-18T13:47:52Z</time>
      </trkpt>
      <trkpt lat="46.85917" lon="5.89186">
        <ele>661.2</ele>
        <time>2021-02-18T13:47:57Z</time>
      </trkpt>
      <trkpt lat="46.85919" lon="5.89192">
        <ele>660.9</ele>
        <time>2021-02-18T13:48:02Z</time>
      </trkpt>
      <trkpt lat="46.85922" lon="5.89198">
        <ele>661</ele>
        <time>2021-02-18T13:48:06Z</time>
      </trkpt>
      <trkpt lat="46.85924" lon="5.89205">
        <ele>661.2</ele>
        <time>2021-02-18T13:48:10Z</time>
      </trkpt>
      <trkpt lat="46.85926" lon="5.89211">
        <ele>661.4</ele>
        <time>2021-02-18T13:48:14Z</time>
      </trkpt>
      <trkpt lat="46.85927" lon="5.89218">
        <ele>661.2</ele>
        <time>2021-02-18T13:48:19Z</time>
      </trkpt>
      <trkpt lat="46.85931" lon="5.89224">
        <ele>661.2</ele>
        <time>2021-02-18T13:48:24Z</time>
      </trkpt>
      <trkpt lat="46.85934" lon="5.89229">
        <ele>661.7</ele>
        <time>2021-02-18T13:48:28Z</time>
      </trkpt>
      <trkpt lat="46.85938" lon="5.89234">
        <ele>662.4</ele>
        <time>2021-02-18T13:48:32Z</time>
      </trkpt>
      <trkpt lat="46.85942" lon="5.89239">
        <ele>663.3</ele>
        <time>2021-02-18T13:48:36Z</time>
      </trkpt>
      <trkpt lat="46.85945" lon="5.89245">
        <ele>664.3</ele>
        <time>2021-02-18T13:48:41Z</time>
      </trkpt>
      <trkpt lat="46.85948" lon="5.89251">
        <ele>665</ele>
        <time>2021-02-18T13:48:45Z</time>
      </trkpt>
      <trkpt lat="46.8595" lon="5.89256">
        <ele>665.5</ele>
        <time>2021-02-18T13:48:50Z</time>
      </trkpt>
      <trkpt lat="46.85953" lon="5.89263">
        <ele>665.9</ele>
        <time>2021-02-18T13:48:55Z</time>
      </trkpt>
      <trkpt lat="46.85956" lon="5.89269">
        <ele>666.6</ele>
        <time>2021-02-18T13:48:59Z</time>
      </trkpt>
      <trkpt lat="46.85959" lon="5.89276">
        <ele>667.6</ele>
        <time>2021-02-18T13:49:04Z</time>
      </trkpt>
      <trkpt lat="46.85963" lon="5.8928">
        <ele>668.4</ele>
        <time>2021-02-18T13:49:08Z</time>
      </trkpt>
      <trkpt lat="46.85967" lon="5.89283">
        <ele>669.6</ele>
        <time>2021-02-18T13:49:12Z</time>
      </trkpt>
      <trkpt lat="46.85969" lon="5.8929">
        <ele>670.6</ele>
        <time>2021-02-18T13:49:16Z</time>
      </trkpt>
      <trkpt lat="46.85972" lon="5.89295">
        <ele>671.5</ele>
        <time>2021-02-18T13:49:20Z</time>
      </trkpt>
      <trkpt lat="46.85975" lon="5.89302">
        <ele>672.3</ele>
        <time>2021-02-18T13:49:25Z</time>
      </trkpt>
      <trkpt lat="46.85978" lon="5.89308">
        <ele>671.8</ele>
        <time>2021-02-18T13:49:30Z</time>
      </trkpt>
      <trkpt lat="46.85981" lon="5.89315">
        <ele>670.7</ele>
        <time>2021-02-18T13:49:35Z</time>
      </trkpt>
      <trkpt lat="46.85984" lon="5.89321">
        <ele>670.7</ele>
        <time>2021-02-18T13:49:39Z</time>
      </trkpt>
      <trkpt lat="46.85987" lon="5.89327">
        <ele>670.8</ele>
        <time>2021-02-18T13:49:45Z</time>
      </trkpt>
      <trkpt lat="46.8599" lon="5.89333">
        <ele>670.5</ele>
        <time>2021-02-18T13:49:50Z</time>
      </trkpt>
      <trkpt lat="46.85993" lon="5.89339">
        <ele>670.2</ele>
        <time>2021-02-18T13:49:56Z</time>
      </trkpt>
      <trkpt lat="46.85997" lon="5.89345">
        <ele>669.4</ele>
        <time>2021-02-18T13:50:01Z</time>
      </trkpt>
      <trkpt lat="46.86" lon="5.8935">
        <ele>668.4</ele>
        <time>2021-02-18T13:50:05Z</time>
      </trkpt>
      <trkpt lat="46.86003" lon="5.89356">
        <ele>667.4</ele>
        <time>2021-02-18T13:50:09Z</time>
      </trkpt>
      <trkpt lat="46.86007" lon="5.89361">
        <ele>667.4</ele>
        <time>2021-02-18T13:50:12Z</time>
      </trkpt>
      <trkpt lat="46.86009" lon="5.89367">
        <ele>668.3</ele>
        <time>2021-02-18T13:50:16Z</time>
      </trkpt>
      <trkpt lat="46.86012" lon="5.89372">
        <ele>671.3</ele>
        <time>2021-02-18T13:50:21Z</time>
      </trkpt>
      <trkpt lat="46.86015" lon="5.89378">
        <ele>674.3</ele>
        <time>2021-02-18T13:50:25Z</time>
      </trkpt>
      <trkpt lat="46.86018" lon="5.89383">
        <ele>677</ele>
        <time>2021-02-18T13:50:29Z</time>
      </trkpt>
      <trkpt lat="46.86019" lon="5.89391">
        <ele>678.7</ele>
        <time>2021-02-18T13:50:33Z</time>
      </trkpt>
      <trkpt lat="46.8602" lon="5.89398">
        <ele>678.7</ele>
        <time>2021-02-18T13:50:37Z</time>
      </trkpt>
      <trkpt lat="46.86022" lon="5.89406">
        <ele>678.5</ele>
        <time>2021-02-18T13:50:42Z</time>
      </trkpt>
      <trkpt lat="46.86023" lon="5.89413">
        <ele>678.5</ele>
        <time>2021-02-18T13:50:47Z</time>
      </trkpt>
      <trkpt lat="46.86025" lon="5.8942">
        <ele>678.1</ele>
        <time>2021-02-18T13:50:53Z</time>
      </trkpt>
      <trkpt lat="46.86025" lon="5.89428">
        <ele>677.3</ele>
        <time>2021-02-18T13:50:58Z</time>
      </trkpt>
      <trkpt lat="46.86025" lon="5.89435">
        <ele>676.9</ele>
        <time>2021-02-18T13:51:03Z</time>
      </trkpt>
      <trkpt lat="46.86025" lon="5.89442">
        <ele>677.1</ele>
        <time>2021-02-18T13:51:08Z</time>
      </trkpt>
      <trkpt lat="46.86024" lon="5.89449">
        <ele>677.6</ele>
        <time>2021-02-18T13:51:13Z</time>
      </trkpt>
      <trkpt lat="46.86023" lon="5.89456">
        <ele>677.9</ele>
        <time>2021-02-18T13:51:18Z</time>
      </trkpt>
      <trkpt lat="46.86026" lon="5.8946">
        <ele>679.5</ele>
        <time>2021-02-18T13:51:25Z</time>
      </trkpt>
      <trkpt lat="46.86027" lon="5.89467">
        <ele>681</ele>
        <time>2021-02-18T13:51:33Z</time>
      </trkpt>
      <trkpt lat="46.86027" lon="5.89474">
        <ele>681.8</ele>
        <time>2021-02-18T13:51:38Z</time>
      </trkpt>
      <trkpt lat="46.86025" lon="5.89481">
        <ele>682.3</ele>
        <time>2021-02-18T13:51:43Z</time>
      </trkpt>
      <trkpt lat="46.86026" lon="5.89488">
        <ele>682.6</ele>
        <time>2021-02-18T13:51:49Z</time>
      </trkpt>
      <trkpt lat="46.86026" lon="5.89496">
        <ele>682.7</ele>
        <time>2021-02-18T13:51:54Z</time>
      </trkpt>
      <trkpt lat="46.86025" lon="5.89504">
        <ele>682.3</ele>
        <time>2021-02-18T13:51:59Z</time>
      </trkpt>
      <trkpt lat="46.86024" lon="5.89512">
        <ele>681.5</ele>
        <time>2021-02-18T13:52:04Z</time>
      </trkpt>
      <trkpt lat="46.86022" lon="5.89518">
        <ele>680.5</ele>
        <time>2021-02-18T13:52:08Z</time>
      </trkpt>
      <trkpt lat="46.86021" lon="5.89526">
        <ele>679.2</ele>
        <time>2021-02-18T13:52:13Z</time>
      </trkpt>
      <trkpt lat="46.86019" lon="5.89533">
        <ele>677.6</ele>
        <time>2021-02-18T13:52:18Z</time>
      </trkpt>
      <trkpt lat="46.86018" lon="5.8954">
        <ele>675.8</ele>
        <time>2021-02-18T13:52:23Z</time>
      </trkpt>
      <trkpt lat="46.86017" lon="5.89547">
        <ele>674.9</ele>
        <time>2021-02-18T13:52:28Z</time>
      </trkpt>
      <trkpt lat="46.86015" lon="5.89553">
        <ele>674.1</ele>
        <time>2021-02-18T13:52:33Z</time>
      </trkpt>
      <trkpt lat="46.86014" lon="5.8956">
        <ele>674.2</ele>
        <time>2021-02-18T13:52:36Z</time>
      </trkpt>
      <trkpt lat="46.86013" lon="5.89566">
        <ele>674.3</ele>
        <time>2021-02-18T13:52:39Z</time>
      </trkpt>
      <trkpt lat="46.86012" lon="5.89573">
        <ele>674.3</ele>
        <time>2021-02-18T13:52:43Z</time>
      </trkpt>
      <trkpt lat="46.86011" lon="5.89579">
        <ele>674</ele>
        <time>2021-02-18T13:52:51Z</time>
      </trkpt>
      <trkpt lat="46.8601" lon="5.89587">
        <ele>678.6</ele>
        <time>2021-02-18T13:53:43Z</time>
      </trkpt>
      <trkpt lat="46.86007" lon="5.89592">
        <ele>679.7</ele>
        <time>2021-02-18T13:53:48Z</time>
      </trkpt>
      <trkpt lat="46.86004" lon="5.89598">
        <ele>680.4</ele>
        <time>2021-02-18T13:53:53Z</time>
      </trkpt>
      <trkpt lat="46.86001" lon="5.89604">
        <ele>681.7</ele>
        <time>2021-02-18T13:53:58Z</time>
      </trkpt>
      <trkpt lat="46.86003" lon="5.8961">
        <ele>682.4</ele>
        <time>2021-02-18T13:54:07Z</time>
      </trkpt>
      <trkpt lat="46.86005" lon="5.89616">
        <ele>681.2</ele>
        <time>2021-02-18T13:54:20Z</time>
      </trkpt>
      <trkpt lat="46.86" lon="5.89618">
        <ele>679.2</ele>
        <time>2021-02-18T13:54:32Z</time>
      </trkpt>
      <trkpt lat="46.85997" lon="5.89624">
        <ele>677.5</ele>
        <time>2021-02-18T13:54:43Z</time>
      </trkpt>
      <trkpt lat="46.85994" lon="5.89629">
        <ele>677.3</ele>
        <time>2021-02-18T13:54:47Z</time>
      </trkpt>
      <trkpt lat="46.8599" lon="5.89633">
        <ele>676.9</ele>
        <time>2021-02-18T13:54:51Z</time>
      </trkpt>
      <trkpt lat="46.85987" lon="5.89637">
        <ele>676</ele>
        <time>2021-02-18T13:54:56Z</time>
      </trkpt>
      <trkpt lat="46.85982" lon="5.89642">
        <ele>675.4</ele>
        <time>2021-02-18T13:55:00Z</time>
      </trkpt>
      <trkpt lat="46.85979" lon="5.89647">
        <ele>674.5</ele>
        <time>2021-02-18T13:55:04Z</time>
      </trkpt>
      <trkpt lat="46.85976" lon="5.89653">
        <ele>673.6</ele>
        <time>2021-02-18T13:55:09Z</time>
      </trkpt>
      <trkpt lat="46.85973" lon="5.89658">
        <ele>673.3</ele>
        <time>2021-02-18T13:55:13Z</time>
      </trkpt>
      <trkpt lat="46.85969" lon="5.89663">
        <ele>673.2</ele>
        <time>2021-02-18T13:55:17Z</time>
      </trkpt>
      <trkpt lat="46.85965" lon="5.89667">
        <ele>673.1</ele>
        <time>2021-02-18T13:55:25Z</time>
      </trkpt>
      <trkpt lat="46.85962" lon="5.89674">
        <ele>672.4</ele>
        <time>2021-02-18T13:55:32Z</time>
      </trkpt>
      <trkpt lat="46.85959" lon="5.89678">
        <ele>671.6</ele>
        <time>2021-02-18T13:55:58Z</time>
      </trkpt>
      <trkpt lat="46.85954" lon="5.8968">
        <ele>671.7</ele>
        <time>2021-02-18T13:56:05Z</time>
      </trkpt>
      <trkpt lat="46.8595" lon="5.89683">
        <ele>671.6</ele>
        <time>2021-02-18T13:56:12Z</time>
      </trkpt>
      <trkpt lat="46.85945" lon="5.89687">
        <ele>671.5</ele>
        <time>2021-02-18T13:56:19Z</time>
      </trkpt>
      <trkpt lat="46.85941" lon="5.8969">
        <ele>671.3</ele>
        <time>2021-02-18T13:56:23Z</time>
      </trkpt>
      <trkpt lat="46.85937" lon="5.89695">
        <ele>670.9</ele>
        <time>2021-02-18T13:56:28Z</time>
      </trkpt>
      <trkpt lat="46.85933" lon="5.89699">
        <ele>670</ele>
        <time>2021-02-18T13:56:34Z</time>
      </trkpt>
      <trkpt lat="46.8593" lon="5.89706">
        <ele>668.7</ele>
        <time>2021-02-18T13:56:42Z</time>
      </trkpt>
      <trkpt lat="46.85924" lon="5.8972">
        <ele>669.4</ele>
        <time>2021-02-18T13:56:46Z</time>
      </trkpt>
      <trkpt lat="46.85921" lon="5.89727">
        <ele>670</ele>
        <time>2021-02-18T13:56:49Z</time>
      </trkpt>
      <trkpt lat="46.85919" lon="5.89733">
        <ele>670.8</ele>
        <time>2021-02-18T13:57:06Z</time>
      </trkpt>
      <trkpt lat="46.85915" lon="5.89736">
        <ele>670.5</ele>
        <time>2021-02-18T13:57:10Z</time>
      </trkpt>
      <trkpt lat="46.8591" lon="5.89739">
        <ele>670.3</ele>
        <time>2021-02-18T13:57:16Z</time>
      </trkpt>
      <trkpt lat="46.85905" lon="5.89741">
        <ele>670</ele>
        <time>2021-02-18T13:57:21Z</time>
      </trkpt>
      <trkpt lat="46.85901" lon="5.89747">
        <ele>670.1</ele>
        <time>2021-02-18T13:57:23Z</time>
      </trkpt>
      <trkpt lat="46.85896" lon="5.89751">
        <ele>670.3</ele>
        <time>2021-02-18T13:57:26Z</time>
      </trkpt>
      <trkpt lat="46.85891" lon="5.89749">
        <ele>670.2</ele>
        <time>2021-02-18T13:57:32Z</time>
      </trkpt>
      <trkpt lat="46.85886" lon="5.89748">
        <ele>669.6</ele>
        <time>2021-02-18T13:57:38Z</time>
      </trkpt>
      <trkpt lat="46.85882" lon="5.89745">
        <ele>669</ele>
        <time>2021-02-18T13:57:43Z</time>
      </trkpt>
      <trkpt lat="46.85876" lon="5.89743">
        <ele>668.4</ele>
        <time>2021-02-18T13:57:48Z</time>
      </trkpt>
      <trkpt lat="46.85871" lon="5.89741">
        <ele>667.7</ele>
        <time>2021-02-18T13:57:53Z</time>
      </trkpt>
      <trkpt lat="46.85866" lon="5.89742">
        <ele>667.2</ele>
        <time>2021-02-18T13:57:57Z</time>
      </trkpt>
      <trkpt lat="46.85862" lon="5.89745">
        <ele>666.6</ele>
        <time>2021-02-18T13:58:02Z</time>
      </trkpt>
      <trkpt lat="46.85856" lon="5.89746">
        <ele>666.1</ele>
        <time>2021-02-18T13:58:08Z</time>
      </trkpt>
      <trkpt lat="46.85851" lon="5.89747">
        <ele>665.7</ele>
        <time>2021-02-18T13:58:13Z</time>
      </trkpt>
      <trkpt lat="46.85847" lon="5.89748">
        <ele>665.3</ele>
        <time>2021-02-18T13:58:18Z</time>
      </trkpt>
      <trkpt lat="46.85841" lon="5.89751">
        <ele>665.1</ele>
        <time>2021-02-18T13:58:22Z</time>
      </trkpt>
      <trkpt lat="46.85836" lon="5.89755">
        <ele>665.2</ele>
        <time>2021-02-18T13:58:26Z</time>
      </trkpt>
      <trkpt lat="46.85831" lon="5.89759">
        <ele>665.4</ele>
        <time>2021-02-18T13:58:30Z</time>
      </trkpt>
      <trkpt lat="46.85827" lon="5.8976">
        <ele>665.4</ele>
        <time>2021-02-18T13:58:34Z</time>
      </trkpt>
      <trkpt lat="46.85822" lon="5.89763">
        <ele>665.7</ele>
        <time>2021-02-18T13:58:38Z</time>
      </trkpt>
      <trkpt lat="46.85817" lon="5.89763">
        <ele>665.6</ele>
        <time>2021-02-18T13:58:42Z</time>
      </trkpt>
      <trkpt lat="46.85812" lon="5.89764">
        <ele>665.2</ele>
        <time>2021-02-18T13:58:46Z</time>
      </trkpt>
      <trkpt lat="46.85807" lon="5.89765">
        <ele>664.7</ele>
        <time>2021-02-18T13:58:50Z</time>
      </trkpt>
      <trkpt lat="46.85803" lon="5.89767">
        <ele>664.3</ele>
        <time>2021-02-18T13:58:55Z</time>
      </trkpt>
      <trkpt lat="46.85798" lon="5.89764">
        <ele>662</ele>
        <time>2021-02-18T13:59:30Z</time>
      </trkpt>
      <trkpt lat="46.85792" lon="5.89764">
        <ele>661.6</ele>
        <time>2021-02-18T13:59:35Z</time>
      </trkpt>
      <trkpt lat="46.85787" lon="5.89769">
        <ele>663.1</ele>
        <time>2021-02-18T13:59:37Z</time>
      </trkpt>
      <trkpt lat="46.85783" lon="5.89773">
        <ele>664.3</ele>
        <time>2021-02-18T13:59:40Z</time>
      </trkpt>
      <trkpt lat="46.85779" lon="5.89776">
        <ele>666.1</ele>
        <time>2021-02-18T13:59:46Z</time>
      </trkpt>
      <trkpt lat="46.85777" lon="5.89783">
        <ele>666.8</ele>
        <time>2021-02-18T13:59:52Z</time>
      </trkpt>
      <trkpt lat="46.85775" lon="5.8979">
        <ele>666.6</ele>
        <time>2021-02-18T13:59:57Z</time>
      </trkpt>
      <trkpt lat="46.85775" lon="5.89798">
        <ele>666.2</ele>
        <time>2021-02-18T14:00:02Z</time>
      </trkpt>
      <trkpt lat="46.85775" lon="5.89805">
        <ele>665.6</ele>
        <time>2021-02-18T14:00:06Z</time>
      </trkpt>
      <trkpt lat="46.85775" lon="5.89811">
        <ele>664.7</ele>
        <time>2021-02-18T14:00:11Z</time>
      </trkpt>
      <trkpt lat="46.85775" lon="5.89819">
        <ele>663.4</ele>
        <time>2021-02-18T14:00:16Z</time>
      </trkpt>
      <trkpt lat="46.85776" lon="5.89826">
        <ele>661.8</ele>
        <time>2021-02-18T14:00:22Z</time>
      </trkpt>
      <trkpt lat="46.85778" lon="5.89833">
        <ele>658</ele>
        <time>2021-02-18T14:00:35Z</time>
      </trkpt>
      <trkpt lat="46.8578" lon="5.89839">
        <ele>656.8</ele>
        <time>2021-02-18T14:00:40Z</time>
      </trkpt>
      <trkpt lat="46.85782" lon="5.89845">
        <ele>655.7</ele>
        <time>2021-02-18T14:00:44Z</time>
      </trkpt>
      <trkpt lat="46.85784" lon="5.89851">
        <ele>654.7</ele>
        <time>2021-02-18T14:00:48Z</time>
      </trkpt>
      <trkpt lat="46.85787" lon="5.89858">
        <ele>653.5</ele>
        <time>2021-02-18T14:00:52Z</time>
      </trkpt>
      <trkpt lat="46.85789" lon="5.89864">
        <ele>651.9</ele>
        <time>2021-02-18T14:00:57Z</time>
      </trkpt>
      <trkpt lat="46.85791" lon="5.89871">
        <ele>650.3</ele>
        <time>2021-02-18T14:01:02Z</time>
      </trkpt>
      <trkpt lat="46.85792" lon="5.89878">
        <ele>648.9</ele>
        <time>2021-02-18T14:01:06Z</time>
      </trkpt>
      <trkpt lat="46.85793" lon="5.89885">
        <ele>647.6</ele>
        <time>2021-02-18T14:01:11Z</time>
      </trkpt>
      <trkpt lat="46.85794" lon="5.89891">
        <ele>647</ele>
        <time>2021-02-18T14:01:15Z</time>
      </trkpt>
      <trkpt lat="46.85795" lon="5.89899">
        <ele>647.1</ele>
        <time>2021-02-18T14:01:19Z</time>
      </trkpt>
      <trkpt lat="46.85796" lon="5.89906">
        <ele>646.9</ele>
        <time>2021-02-18T14:01:23Z</time>
      </trkpt>
      <trkpt lat="46.85799" lon="5.89912">
        <ele>646.9</ele>
        <time>2021-02-18T14:01:28Z</time>
      </trkpt>
      <trkpt lat="46.85802" lon="5.89918">
        <ele>646.8</ele>
        <time>2021-02-18T14:01:34Z</time>
      </trkpt>
      <trkpt lat="46.85804" lon="5.89925">
        <ele>646.8</ele>
        <time>2021-02-18T14:01:52Z</time>
      </trkpt>
      <trkpt lat="46.85805" lon="5.89931">
        <ele>646.5</ele>
        <time>2021-02-18T14:01:58Z</time>
      </trkpt>
      <trkpt lat="46.85808" lon="5.89937">
        <ele>646.2</ele>
        <time>2021-02-18T14:02:04Z</time>
      </trkpt>
      <trkpt lat="46.85813" lon="5.89947">
        <ele>648.7</ele>
        <time>2021-02-18T14:02:06Z</time>
      </trkpt>
      <trkpt lat="46.85816" lon="5.89953">
        <ele>650.3</ele>
        <time>2021-02-18T14:02:09Z</time>
      </trkpt>
      <trkpt lat="46.85816" lon="5.8996">
        <ele>652.9</ele>
        <time>2021-02-18T14:02:18Z</time>
      </trkpt>
      <trkpt lat="46.85815" lon="5.89967">
        <ele>653.8</ele>
        <time>2021-02-18T14:02:27Z</time>
      </trkpt>
      <trkpt lat="46.85817" lon="5.89974">
        <ele>654</ele>
        <time>2021-02-18T14:02:32Z</time>
      </trkpt>
      <trkpt lat="46.8582" lon="5.8998">
        <ele>654.1</ele>
        <time>2021-02-18T14:02:37Z</time>
      </trkpt>
      <trkpt lat="46.85823" lon="5.89985">
        <ele>654.2</ele>
        <time>2021-02-18T14:02:41Z</time>
      </trkpt>
      <trkpt lat="46.85827" lon="5.89991">
        <ele>654.2</ele>
        <time>2021-02-18T14:02:45Z</time>
      </trkpt>
      <trkpt lat="46.8583" lon="5.89996">
        <ele>654.3</ele>
        <time>2021-02-18T14:02:49Z</time>
      </trkpt>
      <trkpt lat="46.85833" lon="5.90002">
        <ele>654.4</ele>
        <time>2021-02-18T14:02:53Z</time>
      </trkpt>
      <trkpt lat="46.85834" lon="5.90009">
        <ele>654.4</ele>
        <time>2021-02-18T14:02:58Z</time>
      </trkpt>
      <trkpt lat="46.85836" lon="5.90015">
        <ele>654.2</ele>
        <time>2021-02-18T14:03:03Z</time>
      </trkpt>
      <trkpt lat="46.85837" lon="5.90022">
        <ele>653.6</ele>
        <time>2021-02-18T14:03:07Z</time>
      </trkpt>
      <trkpt lat="46.85838" lon="5.90029">
        <ele>652.4</ele>
        <time>2021-02-18T14:03:11Z</time>
      </trkpt>
      <trkpt lat="46.85839" lon="5.90035">
        <ele>651.3</ele>
        <time>2021-02-18T14:03:15Z</time>
      </trkpt>
      <trkpt lat="46.85843" lon="5.90042">
        <ele>650.3</ele>
        <time>2021-02-18T14:03:20Z</time>
      </trkpt>
      <trkpt lat="46.85845" lon="5.90048">
        <ele>649.7</ele>
        <time>2021-02-18T14:03:24Z</time>
      </trkpt>
      <trkpt lat="46.85848" lon="5.90054">
        <ele>648.8</ele>
        <time>2021-02-18T14:03:28Z</time>
      </trkpt>
      <trkpt lat="46.85849" lon="5.90063">
        <ele>647.5</ele>
        <time>2021-02-18T14:03:33Z</time>
      </trkpt>
      <trkpt lat="46.85848" lon="5.9007">
        <ele>646.6</ele>
        <time>2021-02-18T14:03:37Z</time>
      </trkpt>
      <trkpt lat="46.85849" lon="5.90078">
        <ele>646.3</ele>
        <time>2021-02-18T14:03:41Z</time>
      </trkpt>
      <trkpt lat="46.8585" lon="5.90085">
        <ele>645</ele>
        <time>2021-02-18T14:03:47Z</time>
      </trkpt>
      <trkpt lat="46.85852" lon="5.90092">
        <ele>642.8</ele>
        <time>2021-02-18T14:03:53Z</time>
      </trkpt>
      <trkpt lat="46.85851" lon="5.90099">
        <ele>641.1</ele>
        <time>2021-02-18T14:03:58Z</time>
      </trkpt>
      <trkpt lat="46.8585" lon="5.90106">
        <ele>640</ele>
        <time>2021-02-18T14:04:02Z</time>
      </trkpt>
      <trkpt lat="46.85849" lon="5.90113">
        <ele>638.9</ele>
        <time>2021-02-18T14:04:06Z</time>
      </trkpt>
      <trkpt lat="46.85848" lon="5.90119">
        <ele>638.1</ele>
        <time>2021-02-18T14:04:10Z</time>
      </trkpt>
      <trkpt lat="46.85847" lon="5.90127">
        <ele>637</ele>
        <time>2021-02-18T14:04:16Z</time>
      </trkpt>
      <trkpt lat="46.85847" lon="5.90135">
        <ele>636.8</ele>
        <time>2021-02-18T14:04:20Z</time>
      </trkpt>
      <trkpt lat="46.85848" lon="5.90143">
        <ele>636.8</ele>
        <time>2021-02-18T14:04:25Z</time>
      </trkpt>
      <trkpt lat="46.85847" lon="5.90151">
        <ele>637.1</ele>
        <time>2021-02-18T14:04:30Z</time>
      </trkpt>
      <trkpt lat="46.85847" lon="5.90159">
        <ele>637.2</ele>
        <time>2021-02-18T14:04:35Z</time>
      </trkpt>
      <trkpt lat="46.85846" lon="5.90165">
        <ele>637.4</ele>
        <time>2021-02-18T14:04:39Z</time>
      </trkpt>
      <trkpt lat="46.85845" lon="5.90173">
        <ele>637.7</ele>
        <time>2021-02-18T14:04:44Z</time>
      </trkpt>
      <trkpt lat="46.85843" lon="5.9018">
        <ele>638.6</ele>
        <time>2021-02-18T14:04:50Z</time>
      </trkpt>
      <trkpt lat="46.8584" lon="5.90187">
        <ele>639</ele>
        <time>2021-02-18T14:04:56Z</time>
      </trkpt>
      <trkpt lat="46.85838" lon="5.90193">
        <ele>639</ele>
        <time>2021-02-18T14:05:01Z</time>
      </trkpt>
      <trkpt lat="46.85834" lon="5.90198">
        <ele>639.2</ele>
        <time>2021-02-18T14:05:06Z</time>
      </trkpt>
      <trkpt lat="46.8583" lon="5.90201">
        <ele>639.3</ele>
        <time>2021-02-18T14:05:11Z</time>
      </trkpt>
      <trkpt lat="46.85825" lon="5.90203">
        <ele>639.4</ele>
        <time>2021-02-18T14:05:16Z</time>
      </trkpt>
      <trkpt lat="46.85821" lon="5.90205">
        <ele>639.4</ele>
        <time>2021-02-18T14:05:22Z</time>
      </trkpt>
      <trkpt lat="46.85815" lon="5.90205">
        <ele>639.9</ele>
        <time>2021-02-18T14:05:33Z</time>
      </trkpt>
      <trkpt lat="46.85811" lon="5.90205">
        <ele>640.1</ele>
        <time>2021-02-18T14:05:39Z</time>
      </trkpt>
      <trkpt lat="46.85806" lon="5.90205">
        <ele>640.3</ele>
        <time>2021-02-18T14:05:46Z</time>
      </trkpt>
      <trkpt lat="46.85801" lon="5.90207">
        <ele>640.3</ele>
        <time>2021-02-18T14:05:52Z</time>
      </trkpt>
      <trkpt lat="46.85797" lon="5.90208">
        <ele>640</ele>
        <time>2021-02-18T14:05:57Z</time>
      </trkpt>
      <trkpt lat="46.85793" lon="5.90213">
        <ele>639.7</ele>
        <time>2021-02-18T14:06:02Z</time>
      </trkpt>
      <trkpt lat="46.85789" lon="5.90218">
        <ele>639.4</ele>
        <time>2021-02-18T14:06:06Z</time>
      </trkpt>
      <trkpt lat="46.85785" lon="5.90223">
        <ele>639.1</ele>
        <time>2021-02-18T14:06:10Z</time>
      </trkpt>
      <trkpt lat="46.85782" lon="5.90229">
        <ele>638.7</ele>
        <time>2021-02-18T14:06:15Z</time>
      </trkpt>
      <trkpt lat="46.85778" lon="5.90233">
        <ele>638</ele>
        <time>2021-02-18T14:06:20Z</time>
      </trkpt>
      <trkpt lat="46.85776" lon="5.90241">
        <ele>637.3</ele>
        <time>2021-02-18T14:06:25Z</time>
      </trkpt>
      <trkpt lat="46.85775" lon="5.90248">
        <ele>636.7</ele>
        <time>2021-02-18T14:06:29Z</time>
      </trkpt>
      <trkpt lat="46.85775" lon="5.90255">
        <ele>635.9</ele>
        <time>2021-02-18T14:06:33Z</time>
      </trkpt>
      <trkpt lat="46.85774" lon="5.90262">
        <ele>635</ele>
        <time>2021-02-18T14:06:37Z</time>
      </trkpt>
      <trkpt lat="46.85773" lon="5.90269">
        <ele>634.1</ele>
        <time>2021-02-18T14:06:41Z</time>
      </trkpt>
      <trkpt lat="46.85772" lon="5.90276">
        <ele>633</ele>
        <time>2021-02-18T14:06:45Z</time>
      </trkpt>
      <trkpt lat="46.8577" lon="5.90282">
        <ele>631.6</ele>
        <time>2021-02-18T14:06:49Z</time>
      </trkpt>
      <trkpt lat="46.85768" lon="5.90288">
        <ele>629.9</ele>
        <time>2021-02-18T14:06:53Z</time>
      </trkpt>
      <trkpt lat="46.85766" lon="5.90295">
        <ele>628.8</ele>
        <time>2021-02-18T14:06:57Z</time>
      </trkpt>
      <trkpt lat="46.85764" lon="5.90303">
        <ele>628.3</ele>
        <time>2021-02-18T14:07:01Z</time>
      </trkpt>
      <trkpt lat="46.85764" lon="5.9031">
        <ele>628</ele>
        <time>2021-02-18T14:07:05Z</time>
      </trkpt>
      <trkpt lat="46.85762" lon="5.90316">
        <ele>627.9</ele>
        <time>2021-02-18T14:07:10Z</time>
      </trkpt>
      <trkpt lat="46.85762" lon="5.90323">
        <ele>626.9</ele>
        <time>2021-02-18T14:07:16Z</time>
      </trkpt>
      <trkpt lat="46.85759" lon="5.90329">
        <ele>626.1</ele>
        <time>2021-02-18T14:07:21Z</time>
      </trkpt>
      <trkpt lat="46.85755" lon="5.90335">
        <ele>625.5</ele>
        <time>2021-02-18T14:07:26Z</time>
      </trkpt>
      <trkpt lat="46.85753" lon="5.90341">
        <ele>624.7</ele>
        <time>2021-02-18T14:07:31Z</time>
      </trkpt>
      <trkpt lat="46.8575" lon="5.90347">
        <ele>624</ele>
        <time>2021-02-18T14:07:36Z</time>
      </trkpt>
      <trkpt lat="46.85746" lon="5.90353">
        <ele>623.5</ele>
        <time>2021-02-18T14:07:41Z</time>
      </trkpt>
      <trkpt lat="46.85742" lon="5.90357">
        <ele>622.8</ele>
        <time>2021-02-18T14:07:45Z</time>
      </trkpt>
      <trkpt lat="46.85738" lon="5.90361">
        <ele>621.9</ele>
        <time>2021-02-18T14:07:50Z</time>
      </trkpt>
      <trkpt lat="46.85734" lon="5.90365">
        <ele>621.2</ele>
        <time>2021-02-18T14:07:54Z</time>
      </trkpt>
      <trkpt lat="46.8573" lon="5.9037">
        <ele>620.2</ele>
        <time>2021-02-18T14:07:59Z</time>
      </trkpt>
      <trkpt lat="46.85727" lon="5.90374">
        <ele>619.2</ele>
        <time>2021-02-18T14:08:04Z</time>
      </trkpt>
      <trkpt lat="46.85723" lon="5.9038">
        <ele>618.5</ele>
        <time>2021-02-18T14:08:09Z</time>
      </trkpt>
      <trkpt lat="46.8572" lon="5.90387">
        <ele>618</ele>
        <time>2021-02-18T14:08:13Z</time>
      </trkpt>
      <trkpt lat="46.85718" lon="5.90394">
        <ele>617.2</ele>
        <time>2021-02-18T14:08:18Z</time>
      </trkpt>
      <trkpt lat="46.85717" lon="5.90402">
        <ele>616.2</ele>
        <time>2021-02-18T14:08:23Z</time>
      </trkpt>
      <trkpt lat="46.85717" lon="5.90409">
        <ele>616.2</ele>
        <time>2021-02-18T14:08:26Z</time>
      </trkpt>
      <trkpt lat="46.85717" lon="5.90416">
        <ele>615.9</ele>
        <time>2021-02-18T14:08:30Z</time>
      </trkpt>
      <trkpt lat="46.85716" lon="5.90422">
        <ele>615.7</ele>
        <time>2021-02-18T14:08:34Z</time>
      </trkpt>
      <trkpt lat="46.85714" lon="5.9043">
        <ele>615.8</ele>
        <time>2021-02-18T14:08:39Z</time>
      </trkpt>
      <trkpt lat="46.85711" lon="5.90435">
        <ele>616.3</ele>
        <time>2021-02-18T14:08:44Z</time>
      </trkpt>
      <trkpt lat="46.8571" lon="5.90442">
        <ele>617.2</ele>
        <time>2021-02-18T14:08:49Z</time>
      </trkpt>
      <trkpt lat="46.85708" lon="5.9045">
        <ele>618.2</ele>
        <time>2021-02-18T14:08:54Z</time>
      </trkpt>
      <trkpt lat="46.85705" lon="5.90456">
        <ele>619</ele>
        <time>2021-02-18T14:08:58Z</time>
      </trkpt>
      <trkpt lat="46.85703" lon="5.90463">
        <ele>619.3</ele>
        <time>2021-02-18T14:09:03Z</time>
      </trkpt>
      <trkpt lat="46.85699" lon="5.90467">
        <ele>619.2</ele>
        <time>2021-02-18T14:09:09Z</time>
      </trkpt>
      <trkpt lat="46.85694" lon="5.90469">
        <ele>619</ele>
        <time>2021-02-18T14:09:15Z</time>
      </trkpt>
      <trkpt lat="46.85689" lon="5.9047">
        <ele>618.8</ele>
        <time>2021-02-18T14:09:20Z</time>
      </trkpt>
      <trkpt lat="46.85686" lon="5.90478">
        <ele>620.8</ele>
        <time>2021-02-18T14:09:22Z</time>
      </trkpt>
      <trkpt lat="46.85682" lon="5.9048">
        <ele>621.9</ele>
        <time>2021-02-18T14:09:28Z</time>
      </trkpt>
      <trkpt lat="46.85677" lon="5.90483">
        <ele>621.7</ele>
        <time>2021-02-18T14:09:35Z</time>
      </trkpt>
      <trkpt lat="46.85673" lon="5.90487">
        <ele>621</ele>
        <time>2021-02-18T14:09:41Z</time>
      </trkpt>
      <trkpt lat="46.8567" lon="5.90492">
        <ele>620.5</ele>
        <time>2021-02-18T14:09:45Z</time>
      </trkpt>
      <trkpt lat="46.85666" lon="5.90498">
        <ele>619.7</ele>
        <time>2021-02-18T14:09:50Z</time>
      </trkpt>
      <trkpt lat="46.85664" lon="5.90504">
        <ele>620</ele>
        <time>2021-02-18T14:09:52Z</time>
      </trkpt>
      <trkpt lat="46.8566" lon="5.90509">
        <ele>619.9</ele>
        <time>2021-02-18T14:09:56Z</time>
      </trkpt>
      <trkpt lat="46.85656" lon="5.90512">
        <ele>619.5</ele>
        <time>2021-02-18T14:10:01Z</time>
      </trkpt>
      <trkpt lat="46.85651" lon="5.90516">
        <ele>618.6</ele>
        <time>2021-02-18T14:10:07Z</time>
      </trkpt>
      <trkpt lat="46.85647" lon="5.90519">
        <ele>617.2</ele>
        <time>2021-02-18T14:10:14Z</time>
      </trkpt>
      <trkpt lat="46.85642" lon="5.90523">
        <ele>616.6</ele>
        <time>2021-02-18T14:10:18Z</time>
      </trkpt>
      <trkpt lat="46.85638" lon="5.90527">
        <ele>616.1</ele>
        <time>2021-02-18T14:10:22Z</time>
      </trkpt>
      <trkpt lat="46.85634" lon="5.90531">
        <ele>615.4</ele>
        <time>2021-02-18T14:10:26Z</time>
      </trkpt>
      <trkpt lat="46.8563" lon="5.90534">
        <ele>614.5</ele>
        <time>2021-02-18T14:10:31Z</time>
      </trkpt>
      <trkpt lat="46.85626" lon="5.90538">
        <ele>613.9</ele>
        <time>2021-02-18T14:10:35Z</time>
      </trkpt>
      <trkpt lat="46.85622" lon="5.90543">
        <ele>613.3</ele>
        <time>2021-02-18T14:10:40Z</time>
      </trkpt>
      <trkpt lat="46.85618" lon="5.90549">
        <ele>612.8</ele>
        <time>2021-02-18T14:10:45Z</time>
      </trkpt>
      <trkpt lat="46.85614" lon="5.90553">
        <ele>612.3</ele>
        <time>2021-02-18T14:10:49Z</time>
      </trkpt>
      <trkpt lat="46.8561" lon="5.90556">
        <ele>611.7</ele>
        <time>2021-02-18T14:10:53Z</time>
      </trkpt>
      <trkpt lat="46.85606" lon="5.90562">
        <ele>611.1</ele>
        <time>2021-02-18T14:10:58Z</time>
      </trkpt>
      <trkpt lat="46.85602" lon="5.90567">
        <ele>610.6</ele>
        <time>2021-02-18T14:11:02Z</time>
      </trkpt>
      <trkpt lat="46.85597" lon="5.90571">
        <ele>610.1</ele>
        <time>2021-02-18T14:11:06Z</time>
      </trkpt>
      <trkpt lat="46.85593" lon="5.90573">
        <ele>608.9</ele>
        <time>2021-02-18T14:11:12Z</time>
      </trkpt>
      <trkpt lat="46.85589" lon="5.90577">
        <ele>608</ele>
        <time>2021-02-18T14:11:16Z</time>
      </trkpt>
      <trkpt lat="46.85584" lon="5.9058">
        <ele>606.8</ele>
        <time>2021-02-18T14:11:21Z</time>
      </trkpt>
      <trkpt lat="46.8558" lon="5.90584">
        <ele>605.1</ele>
        <time>2021-02-18T14:11:27Z</time>
      </trkpt>
      <trkpt lat="46.85576" lon="5.9059">
        <ele>606</ele>
        <time>2021-02-18T14:11:31Z</time>
      </trkpt>
      <trkpt lat="46.85572" lon="5.90596">
        <ele>607.6</ele>
        <time>2021-02-18T14:11:35Z</time>
      </trkpt>
      <trkpt lat="46.85568" lon="5.90599">
        <ele>608.7</ele>
        <time>2021-02-18T14:11:39Z</time>
      </trkpt>
      <trkpt lat="46.85564" lon="5.90603">
        <ele>609.7</ele>
        <time>2021-02-18T14:11:43Z</time>
      </trkpt>
      <trkpt lat="46.8556" lon="5.90607">
        <ele>611</ele>
        <time>2021-02-18T14:11:47Z</time>
      </trkpt>
      <trkpt lat="46.85556" lon="5.90612">
        <ele>612.5</ele>
        <time>2021-02-18T14:11:52Z</time>
      </trkpt>
      <trkpt lat="46.85553" lon="5.90617">
        <ele>613.3</ele>
        <time>2021-02-18T14:11:56Z</time>
      </trkpt>
      <trkpt lat="46.85549" lon="5.90622">
        <ele>614</ele>
        <time>2021-02-18T14:12:01Z</time>
      </trkpt>
      <trkpt lat="46.85545" lon="5.90628">
        <ele>614.4</ele>
        <time>2021-02-18T14:12:06Z</time>
      </trkpt>
      <trkpt lat="46.85543" lon="5.90634">
        <ele>615.1</ele>
        <time>2021-02-18T14:12:12Z</time>
      </trkpt>
      <trkpt lat="46.85539" lon="5.90639">
        <ele>616</ele>
        <time>2021-02-18T14:12:17Z</time>
      </trkpt>
      <trkpt lat="46.85535" lon="5.90643">
        <ele>617.2</ele>
        <time>2021-02-18T14:12:23Z</time>
      </trkpt>
      <trkpt lat="46.8553" lon="5.90646">
        <ele>617.8</ele>
        <time>2021-02-18T14:12:27Z</time>
      </trkpt>
      <trkpt lat="46.85526" lon="5.90649">
        <ele>618.4</ele>
        <time>2021-02-18T14:12:32Z</time>
      </trkpt>
      <trkpt lat="46.85522" lon="5.90652">
        <ele>619.2</ele>
        <time>2021-02-18T14:12:37Z</time>
      </trkpt>
      <trkpt lat="46.85517" lon="5.90655">
        <ele>619.9</ele>
        <time>2021-02-18T14:12:42Z</time>
      </trkpt>
      <trkpt lat="46.85513" lon="5.90658">
        <ele>620.2</ele>
        <time>2021-02-18T14:12:46Z</time>
      </trkpt>
      <trkpt lat="46.85509" lon="5.90662">
        <ele>620.9</ele>
        <time>2021-02-18T14:12:51Z</time>
      </trkpt>
      <trkpt lat="46.85505" lon="5.90668">
        <ele>621.5</ele>
        <time>2021-02-18T14:12:56Z</time>
      </trkpt>
      <trkpt lat="46.85502" lon="5.90673">
        <ele>622</ele>
        <time>2021-02-18T14:13:00Z</time>
      </trkpt>
      <trkpt lat="46.85497" lon="5.90677">
        <ele>622.7</ele>
        <time>2021-02-18T14:13:04Z</time>
      </trkpt>
      <trkpt lat="46.85494" lon="5.90683">
        <ele>623</ele>
        <time>2021-02-18T14:13:09Z</time>
      </trkpt>
      <trkpt lat="46.8549" lon="5.90688">
        <ele>623.2</ele>
        <time>2021-02-18T14:13:13Z</time>
      </trkpt>
      <trkpt lat="46.85486" lon="5.90692">
        <ele>623.1</ele>
        <time>2021-02-18T14:13:16Z</time>
      </trkpt>
      <trkpt lat="46.85482" lon="5.90695">
        <ele>623</ele>
        <time>2021-02-18T14:13:20Z</time>
      </trkpt>
      <trkpt lat="46.85477" lon="5.90698">
        <ele>622.8</ele>
        <time>2021-02-18T14:13:24Z</time>
      </trkpt>
      <trkpt lat="46.85472" lon="5.907">
        <ele>622.5</ele>
        <time>2021-02-18T14:13:27Z</time>
      </trkpt>
      <trkpt lat="46.85467" lon="5.90705">
        <ele>622.3</ele>
        <time>2021-02-18T14:13:29Z</time>
      </trkpt>
      <trkpt lat="46.85462" lon="5.90708">
        <ele>622</ele>
        <time>2021-02-18T14:13:33Z</time>
      </trkpt>
      <trkpt lat="46.85458" lon="5.90711">
        <ele>621.8</ele>
        <time>2021-02-18T14:13:37Z</time>
      </trkpt>
      <trkpt lat="46.85453" lon="5.90714">
        <ele>621.5</ele>
        <time>2021-02-18T14:13:41Z</time>
      </trkpt>
      <trkpt lat="46.85448" lon="5.90717">
        <ele>621.3</ele>
        <time>2021-02-18T14:13:46Z</time>
      </trkpt>
      <trkpt lat="46.85443" lon="5.9072">
        <ele>621.3</ele>
        <time>2021-02-18T14:13:50Z</time>
      </trkpt>
      <trkpt lat="46.85439" lon="5.90724">
        <ele>621.3</ele>
        <time>2021-02-18T14:13:54Z</time>
      </trkpt>
      <trkpt lat="46.85436" lon="5.90729">
        <ele>621.2</ele>
        <time>2021-02-18T14:13:58Z</time>
      </trkpt>
      <trkpt lat="46.85432" lon="5.90734">
        <ele>620.8</ele>
        <time>2021-02-18T14:14:02Z</time>
      </trkpt>
      <trkpt lat="46.85428" lon="5.90739">
        <ele>620.6</ele>
        <time>2021-02-18T14:14:06Z</time>
      </trkpt>
      <trkpt lat="46.85424" lon="5.90744">
        <ele>620.2</ele>
        <time>2021-02-18T14:14:10Z</time>
      </trkpt>
      <trkpt lat="46.85421" lon="5.90748">
        <ele>619.7</ele>
        <time>2021-02-18T14:14:14Z</time>
      </trkpt>
      <trkpt lat="46.85416" lon="5.90753">
        <ele>618.1</ele>
        <time>2021-02-18T14:14:19Z</time>
      </trkpt>
      <trkpt lat="46.85412" lon="5.90756">
        <ele>616.9</ele>
        <time>2021-02-18T14:14:23Z</time>
      </trkpt>
      <trkpt lat="46.85408" lon="5.9076">
        <ele>615.5</ele>
        <time>2021-02-18T14:14:27Z</time>
      </trkpt>
      <trkpt lat="46.85404" lon="5.90764">
        <ele>614.4</ele>
        <time>2021-02-18T14:14:31Z</time>
      </trkpt>
      <trkpt lat="46.854" lon="5.90767">
        <ele>613.5</ele>
        <time>2021-02-18T14:14:35Z</time>
      </trkpt>
      <trkpt lat="46.85395" lon="5.9077">
        <ele>612.4</ele>
        <time>2021-02-18T14:14:39Z</time>
      </trkpt>
      <trkpt lat="46.8539" lon="5.90772">
        <ele>611.4</ele>
        <time>2021-02-18T14:14:43Z</time>
      </trkpt>
      <trkpt lat="46.85386" lon="5.90776">
        <ele>610</ele>
        <time>2021-02-18T14:14:48Z</time>
      </trkpt>
      <trkpt lat="46.85383" lon="5.90781">
        <ele>608.9</ele>
        <time>2021-02-18T14:14:52Z</time>
      </trkpt>
      <trkpt lat="46.85379" lon="5.90787">
        <ele>608.2</ele>
        <time>2021-02-18T14:14:57Z</time>
      </trkpt>
      <trkpt lat="46.85376" lon="5.90792">
        <ele>607.7</ele>
        <time>2021-02-18T14:15:01Z</time>
      </trkpt>
      <trkpt lat="46.85373" lon="5.90798">
        <ele>607.2</ele>
        <time>2021-02-18T14:15:05Z</time>
      </trkpt>
      <trkpt lat="46.8537" lon="5.90804">
        <ele>606.6</ele>
        <time>2021-02-18T14:15:09Z</time>
      </trkpt>
      <trkpt lat="46.85367" lon="5.90809">
        <ele>605.7</ele>
        <time>2021-02-18T14:15:13Z</time>
      </trkpt>
      <trkpt lat="46.85364" lon="5.90815">
        <ele>605.1</ele>
        <time>2021-02-18T14:15:17Z</time>
      </trkpt>
      <trkpt lat="46.8536" lon="5.9082">
        <ele>605.1</ele>
        <time>2021-02-18T14:15:22Z</time>
      </trkpt>
      <trkpt lat="46.85355" lon="5.90825">
        <ele>604.9</ele>
        <time>2021-02-18T14:15:27Z</time>
      </trkpt>
      <trkpt lat="46.85351" lon="5.90828">
        <ele>605</ele>
        <time>2021-02-18T14:15:31Z</time>
      </trkpt>
      <trkpt lat="46.85347" lon="5.90833">
        <ele>605.3</ele>
        <time>2021-02-18T14:15:36Z</time>
      </trkpt>
      <trkpt lat="46.85343" lon="5.90837">
        <ele>605.5</ele>
        <time>2021-02-18T14:15:40Z</time>
      </trkpt>
      <trkpt lat="46.85339" lon="5.90841">
        <ele>605.5</ele>
        <time>2021-02-18T14:15:44Z</time>
      </trkpt>
      <trkpt lat="46.85334" lon="5.90845">
        <ele>605.4</ele>
        <time>2021-02-18T14:15:49Z</time>
      </trkpt>
      <trkpt lat="46.85331" lon="5.9085">
        <ele>605.3</ele>
        <time>2021-02-18T14:15:53Z</time>
      </trkpt>
      <trkpt lat="46.85327" lon="5.90855">
        <ele>605.7</ele>
        <time>2021-02-18T14:15:58Z</time>
      </trkpt>
      <trkpt lat="46.85322" lon="5.9086">
        <ele>606.2</ele>
        <time>2021-02-18T14:16:03Z</time>
      </trkpt>
      <trkpt lat="46.85319" lon="5.90865">
        <ele>606.8</ele>
        <time>2021-02-18T14:16:08Z</time>
      </trkpt>
      <trkpt lat="46.85315" lon="5.90869">
        <ele>607.6</ele>
        <time>2021-02-18T14:16:12Z</time>
      </trkpt>
      <trkpt lat="46.8531" lon="5.90873">
        <ele>608.5</ele>
        <time>2021-02-18T14:16:17Z</time>
      </trkpt>
      <trkpt lat="46.85306" lon="5.90876">
        <ele>609</ele>
        <time>2021-02-18T14:16:21Z</time>
      </trkpt>
      <trkpt lat="46.85302" lon="5.9088">
        <ele>609.5</ele>
        <time>2021-02-18T14:16:25Z</time>
      </trkpt>
      <trkpt lat="46.85298" lon="5.90883">
        <ele>610</ele>
        <time>2021-02-18T14:16:29Z</time>
      </trkpt>
      <trkpt lat="46.85293" lon="5.90886">
        <ele>610.7</ele>
        <time>2021-02-18T14:16:34Z</time>
      </trkpt>
      <trkpt lat="46.85288" lon="5.9089">
        <ele>611.4</ele>
        <time>2021-02-18T14:16:39Z</time>
      </trkpt>
      <trkpt lat="46.85283" lon="5.90893">
        <ele>612.5</ele>
        <time>2021-02-18T14:16:44Z</time>
      </trkpt>
      <trkpt lat="46.85279" lon="5.90896">
        <ele>613.2</ele>
        <time>2021-02-18T14:16:48Z</time>
      </trkpt>
      <trkpt lat="46.85274" lon="5.90899">
        <ele>613.9</ele>
        <time>2021-02-18T14:16:52Z</time>
      </trkpt>
      <trkpt lat="46.85269" lon="5.90902">
        <ele>614.6</ele>
        <time>2021-02-18T14:16:57Z</time>
      </trkpt>
      <trkpt lat="46.85265" lon="5.90903">
        <ele>614.9</ele>
        <time>2021-02-18T14:17:01Z</time>
      </trkpt>
      <trkpt lat="46.85261" lon="5.90906">
        <ele>615.3</ele>
        <time>2021-02-18T14:17:05Z</time>
      </trkpt>
      <trkpt lat="46.85257" lon="5.9091">
        <ele>615.8</ele>
        <time>2021-02-18T14:17:09Z</time>
      </trkpt>
      <trkpt lat="46.85253" lon="5.90916">
        <ele>616</ele>
        <time>2021-02-18T14:17:13Z</time>
      </trkpt>
      <trkpt lat="46.8525" lon="5.90921">
        <ele>616</ele>
        <time>2021-02-18T14:17:19Z</time>
      </trkpt>
      <trkpt lat="46.8525" lon="5.90928">
        <ele>614.9</ele>
        <time>2021-02-18T14:17:31Z</time>
      </trkpt>
      <trkpt lat="46.85246" lon="5.90935">
        <ele>614.3</ele>
        <time>2021-02-18T14:17:36Z</time>
      </trkpt>
      <trkpt lat="46.85242" lon="5.90939">
        <ele>614</ele>
        <time>2021-02-18T14:17:40Z</time>
      </trkpt>
      <trkpt lat="46.85237" lon="5.90942">
        <ele>613.8</ele>
        <time>2021-02-18T14:17:44Z</time>
      </trkpt>
      <trkpt lat="46.85233" lon="5.90946">
        <ele>613.8</ele>
        <time>2021-02-18T14:17:48Z</time>
      </trkpt>
      <trkpt lat="46.85228" lon="5.90948">
        <ele>613.4</ele>
        <time>2021-02-18T14:17:52Z</time>
      </trkpt>
      <trkpt lat="46.85223" lon="5.90949">
        <ele>612.9</ele>
        <time>2021-02-18T14:17:57Z</time>
      </trkpt>
      <trkpt lat="46.85219" lon="5.90951">
        <ele>612.2</ele>
        <time>2021-02-18T14:18:06Z</time>
      </trkpt>
      <trkpt lat="46.85214" lon="5.90948">
        <ele>612.2</ele>
        <time>2021-02-18T14:18:13Z</time>
      </trkpt>
      <trkpt lat="46.8521" lon="5.90946">
        <ele>612.4</ele>
        <time>2021-02-18T14:18:21Z</time>
      </trkpt>
      <trkpt lat="46.85205" lon="5.90943">
        <ele>612.7</ele>
        <time>2021-02-18T14:18:27Z</time>
      </trkpt>
      <trkpt lat="46.85202" lon="5.90938">
        <ele>612.9</ele>
        <time>2021-02-18T14:18:33Z</time>
      </trkpt>
      <trkpt lat="46.85198" lon="5.90932">
        <ele>613.1</ele>
        <time>2021-02-18T14:18:38Z</time>
      </trkpt>
      <trkpt lat="46.85195" lon="5.90927">
        <ele>613.1</ele>
        <time>2021-02-18T14:18:43Z</time>
      </trkpt>
      <trkpt lat="46.85192" lon="5.90922">
        <ele>612.6</ele>
        <time>2021-02-18T14:18:49Z</time>
      </trkpt>
      <trkpt lat="46.85188" lon="5.90918">
        <ele>612.5</ele>
        <time>2021-02-18T14:18:55Z</time>
      </trkpt>
      <trkpt lat="46.85185" lon="5.90911">
        <ele>612.1</ele>
        <time>2021-02-18T14:19:00Z</time>
      </trkpt>
      <trkpt lat="46.85184" lon="5.90905">
        <ele>611.6</ele>
        <time>2021-02-18T14:19:05Z</time>
      </trkpt>
      <trkpt lat="46.85181" lon="5.90898">
        <ele>611.2</ele>
        <time>2021-02-18T14:19:11Z</time>
      </trkpt>
      <trkpt lat="46.85178" lon="5.90893">
        <ele>611.3</ele>
        <time>2021-02-18T14:19:18Z</time>
      </trkpt>
      <trkpt lat="46.85177" lon="5.90885">
        <ele>611.6</ele>
        <time>2021-02-18T14:19:25Z</time>
      </trkpt>
      <trkpt lat="46.85174" lon="5.9088">
        <ele>611.6</ele>
        <time>2021-02-18T14:19:31Z</time>
      </trkpt>
      <trkpt lat="46.85172" lon="5.90874">
        <ele>611.8</ele>
        <time>2021-02-18T14:19:36Z</time>
      </trkpt>
      <trkpt lat="46.85167" lon="5.90871">
        <ele>614.5</ele>
        <time>2021-02-18T14:20:01Z</time>
      </trkpt>
      <trkpt lat="46.85167" lon="5.90865">
        <ele>614.9</ele>
        <time>2021-02-18T14:20:09Z</time>
      </trkpt>
      <trkpt lat="46.85167" lon="5.90857">
        <ele>615.2</ele>
        <time>2021-02-18T14:20:15Z</time>
      </trkpt>
      <trkpt lat="46.8517" lon="5.9085">
        <ele>615.4</ele>
        <time>2021-02-18T14:20:20Z</time>
      </trkpt>
      <trkpt lat="46.85173" lon="5.90844">
        <ele>615.6</ele>
        <time>2021-02-18T14:20:26Z</time>
      </trkpt>
      <trkpt lat="46.85175" lon="5.90837">
        <ele>615.8</ele>
        <time>2021-02-18T14:20:32Z</time>
      </trkpt>
      <trkpt lat="46.8518" lon="5.90834">
        <ele>616.5</ele>
        <time>2021-02-18T14:20:42Z</time>
      </trkpt>
      <trkpt lat="46.85185" lon="5.90832">
        <ele>617.4</ele>
        <time>2021-02-18T14:20:52Z</time>
      </trkpt>
      <trkpt lat="46.85189" lon="5.90827">
        <ele>616.5</ele>
        <time>2021-02-18T14:21:01Z</time>
      </trkpt>
      <trkpt lat="46.85184" lon="5.90825">
        <ele>617</ele>
        <time>2021-02-18T14:21:20Z</time>
      </trkpt>
      <trkpt lat="46.85189" lon="5.90826">
        <ele>617.9</ele>
        <time>2021-02-18T14:21:52Z</time>
      </trkpt>
      <trkpt lat="46.85186" lon="5.9082">
        <ele>618.2</ele>
        <time>2021-02-18T14:22:09Z</time>
      </trkpt>
      <trkpt lat="46.85191" lon="5.90821">
        <ele>618.5</ele>
        <time>2021-02-18T14:22:31Z</time>
      </trkpt>
      <trkpt lat="46.85194" lon="5.90816">
        <ele>621.1</ele>
        <time>2021-02-18T14:23:33Z</time>
      </trkpt>
      <trkpt lat="46.85194" lon="5.90809">
        <ele>621.2</ele>
        <time>2021-02-18T14:23:42Z</time>
      </trkpt>
      <trkpt lat="46.85195" lon="5.90803">
        <ele>623.3</ele>
        <time>2021-02-18T14:23:54Z</time>
      </trkpt>
      <trkpt lat="46.85192" lon="5.90798">
        <ele>626.3</ele>
        <time>2021-02-18T14:24:04Z</time>
      </trkpt>
      <trkpt lat="46.8519" lon="5.90791">
        <ele>627.2</ele>
        <time>2021-02-18T14:24:13Z</time>
      </trkpt>
      <trkpt lat="46.85193" lon="5.90785">
        <ele>627.3</ele>
        <time>2021-02-18T14:24:20Z</time>
      </trkpt>
      <trkpt lat="46.85198" lon="5.90785">
        <ele>627.5</ele>
        <time>2021-02-18T14:25:10Z</time>
      </trkpt>
      <trkpt lat="46.85196" lon="5.90792">
        <ele>633</ele>
        <time>2021-02-18T14:25:21Z</time>
      </trkpt>
      <trkpt lat="46.85194" lon="5.90784">
        <ele>633.7</ele>
        <time>2021-02-18T14:25:47Z</time>
      </trkpt>
      <trkpt lat="46.85193" lon="5.90776">
        <ele>633.2</ele>
        <time>2021-02-18T14:25:52Z</time>
      </trkpt>
      <trkpt lat="46.85191" lon="5.90769">
        <ele>632.7</ele>
        <time>2021-02-18T14:25:55Z</time>
      </trkpt>
      <trkpt lat="46.8519" lon="5.90761">
        <ele>632</ele>
        <time>2021-02-18T14:25:59Z</time>
      </trkpt>
      <trkpt lat="46.85189" lon="5.90754">
        <ele>631</ele>
        <time>2021-02-18T14:26:07Z</time>
      </trkpt>
      <trkpt lat="46.85185" lon="5.90749">
        <ele>630.9</ele>
        <time>2021-02-18T14:26:13Z</time>
      </trkpt>
      <trkpt lat="46.85181" lon="5.90746">
        <ele>630.9</ele>
        <time>2021-02-18T14:26:18Z</time>
      </trkpt>
      <trkpt lat="46.85177" lon="5.90742">
        <ele>630.8</ele>
        <time>2021-02-18T14:26:24Z</time>
      </trkpt>
      <trkpt lat="46.85173" lon="5.90738">
        <ele>630.4</ele>
        <time>2021-02-18T14:26:29Z</time>
      </trkpt>
      <trkpt lat="46.85169" lon="5.90734">
        <ele>630</ele>
        <time>2021-02-18T14:26:36Z</time>
      </trkpt>
      <trkpt lat="46.85167" lon="5.90728">
        <ele>629.6</ele>
        <time>2021-02-18T14:26:44Z</time>
      </trkpt>
      <trkpt lat="46.85166" lon="5.9072">
        <ele>629.2</ele>
        <time>2021-02-18T14:26:49Z</time>
      </trkpt>
      <trkpt lat="46.85162" lon="5.90714">
        <ele>632.9</ele>
        <time>2021-02-18T14:26:52Z</time>
      </trkpt>
      <trkpt lat="46.85159" lon="5.90709">
        <ele>636.5</ele>
        <time>2021-02-18T14:26:57Z</time>
      </trkpt>
      <trkpt lat="46.85158" lon="5.90702">
        <ele>639.4</ele>
        <time>2021-02-18T14:27:06Z</time>
      </trkpt>
      <trkpt lat="46.85156" lon="5.90696">
        <ele>640</ele>
        <time>2021-02-18T14:27:13Z</time>
      </trkpt>
      <trkpt lat="46.85153" lon="5.9069">
        <ele>638.5</ele>
        <time>2021-02-18T14:27:15Z</time>
      </trkpt>
      <trkpt lat="46.85151" lon="5.90684">
        <ele>637.3</ele>
        <time>2021-02-18T14:27:18Z</time>
      </trkpt>
      <trkpt lat="46.8515" lon="5.90678">
        <ele>635.4</ele>
        <time>2021-02-18T14:27:25Z</time>
      </trkpt>
      <trkpt lat="46.85151" lon="5.90671">
        <ele>634.4</ele>
        <time>2021-02-18T14:27:31Z</time>
      </trkpt>
      <trkpt lat="46.85152" lon="5.90664">
        <ele>633.6</ele>
        <time>2021-02-18T14:27:36Z</time>
      </trkpt>
      <trkpt lat="46.85152" lon="5.90657">
        <ele>632.8</ele>
        <time>2021-02-18T14:27:43Z</time>
      </trkpt>
      <trkpt lat="46.85148" lon="5.90653">
        <ele>632.5</ele>
        <time>2021-02-18T14:27:49Z</time>
      </trkpt>
      <trkpt lat="46.85152" lon="5.90647">
        <ele>631.3</ele>
        <time>2021-02-18T14:27:58Z</time>
      </trkpt>
      <trkpt lat="46.85146" lon="5.90648">
        <ele>629.2</ele>
        <time>2021-02-18T14:28:05Z</time>
      </trkpt>
      <trkpt lat="46.85142" lon="5.90653">
        <ele>628.1</ele>
        <time>2021-02-18T14:28:14Z</time>
      </trkpt>
      <trkpt lat="46.85138" lon="5.90658">
        <ele>628.1</ele>
        <time>2021-02-18T14:28:17Z</time>
      </trkpt>
      <trkpt lat="46.85137" lon="5.90652">
        <ele>627.5</ele>
        <time>2021-02-18T14:28:29Z</time>
      </trkpt>
      <trkpt lat="46.85132" lon="5.90654">
        <ele>627.3</ele>
        <time>2021-02-18T14:28:36Z</time>
      </trkpt>
      <trkpt lat="46.85127" lon="5.90659">
        <ele>629.4</ele>
        <time>2021-02-18T14:28:42Z</time>
      </trkpt>
      <trkpt lat="46.85122" lon="5.90662">
        <ele>632.8</ele>
        <time>2021-02-18T14:28:47Z</time>
      </trkpt>
      <trkpt lat="46.85118" lon="5.90665">
        <ele>635.5</ele>
        <time>2021-02-18T14:28:52Z</time>
      </trkpt>
      <trkpt lat="46.85113" lon="5.90667">
        <ele>638.9</ele>
        <time>2021-02-18T14:29:00Z</time>
      </trkpt>
      <trkpt lat="46.85108" lon="5.90669">
        <ele>641.5</ele>
        <time>2021-02-18T14:29:07Z</time>
      </trkpt>
      <trkpt lat="46.85103" lon="5.90671">
        <ele>643.4</ele>
        <time>2021-02-18T14:29:12Z</time>
      </trkpt>
      <trkpt lat="46.85098" lon="5.90672">
        <ele>646.3</ele>
        <time>2021-02-18T14:29:19Z</time>
      </trkpt>
      <trkpt lat="46.85093" lon="5.9067">
        <ele>647.5</ele>
        <time>2021-02-18T14:29:24Z</time>
      </trkpt>
      <trkpt lat="46.85089" lon="5.90668">
        <ele>647.8</ele>
        <time>2021-02-18T14:29:28Z</time>
      </trkpt>
      <trkpt lat="46.85084" lon="5.90669">
        <ele>647.6</ele>
        <time>2021-02-18T14:29:32Z</time>
      </trkpt>
      <trkpt lat="46.85076" lon="5.90675">
        <ele>646.5</ele>
        <time>2021-02-18T14:29:36Z</time>
      </trkpt>
      <trkpt lat="46.85072" lon="5.90679">
        <ele>645.9</ele>
        <time>2021-02-18T14:29:39Z</time>
      </trkpt>
      <trkpt lat="46.8507" lon="5.90673">
        <ele>644.5</ele>
        <time>2021-02-18T14:29:56Z</time>
      </trkpt>
      <trkpt lat="46.85065" lon="5.9067">
        <ele>639.5</ele>
        <time>2021-02-18T14:30:15Z</time>
      </trkpt>
      <trkpt lat="46.8506" lon="5.90666">
        <ele>637.6</ele>
        <time>2021-02-18T14:30:21Z</time>
      </trkpt>
      <trkpt lat="46.85058" lon="5.90661">
        <ele>636.6</ele>
        <time>2021-02-18T14:30:26Z</time>
      </trkpt>
      <trkpt lat="46.85056" lon="5.90654">
        <ele>635.8</ele>
        <time>2021-02-18T14:30:32Z</time>
      </trkpt>
      <trkpt lat="46.85053" lon="5.90648">
        <ele>635.4</ele>
        <time>2021-02-18T14:30:39Z</time>
      </trkpt>
      <trkpt lat="46.85052" lon="5.90641">
        <ele>635</ele>
        <time>2021-02-18T14:30:47Z</time>
      </trkpt>
      <trkpt lat="46.85054" lon="5.90635">
        <ele>632.9</ele>
        <time>2021-02-18T14:30:52Z</time>
      </trkpt>
      <trkpt lat="46.8505" lon="5.90626">
        <ele>632.6</ele>
        <time>2021-02-18T14:30:55Z</time>
      </trkpt>
      <trkpt lat="46.85046" lon="5.9062">
        <ele>632.4</ele>
        <time>2021-02-18T14:30:58Z</time>
      </trkpt>
      <trkpt lat="46.85049" lon="5.90614">
        <ele>631.3</ele>
        <time>2021-02-18T14:31:06Z</time>
      </trkpt>
      <trkpt lat="46.85053" lon="5.90615">
        <ele>630.4</ele>
        <time>2021-02-18T14:31:16Z</time>
      </trkpt>
      <trkpt lat="46.85048" lon="5.90615">
        <ele>628.6</ele>
        <time>2021-02-18T14:31:25Z</time>
      </trkpt>
      <trkpt lat="46.85043" lon="5.90613">
        <ele>627.9</ele>
        <time>2021-02-18T14:31:29Z</time>
      </trkpt>
      <trkpt lat="46.85038" lon="5.90612">
        <ele>627.2</ele>
        <time>2021-02-18T14:31:33Z</time>
      </trkpt>
      <trkpt lat="46.85032" lon="5.9061">
        <ele>626.9</ele>
        <time>2021-02-18T14:31:38Z</time>
      </trkpt>
      <trkpt lat="46.85028" lon="5.90607">
        <ele>626.9</ele>
        <time>2021-02-18T14:31:43Z</time>
      </trkpt>
      <trkpt lat="46.85023" lon="5.90605">
        <ele>627.1</ele>
        <time>2021-02-18T14:31:49Z</time>
      </trkpt>
      <trkpt lat="46.85018" lon="5.90604">
        <ele>628.7</ele>
        <time>2021-02-18T14:31:53Z</time>
      </trkpt>
      <trkpt lat="46.85013" lon="5.90602">
        <ele>630.4</ele>
        <time>2021-02-18T14:31:58Z</time>
      </trkpt>
      <trkpt lat="46.85008" lon="5.906">
        <ele>633.3</ele>
        <time>2021-02-18T14:32:07Z</time>
      </trkpt>
      <trkpt lat="46.85004" lon="5.90598">
        <ele>634.9</ele>
        <time>2021-02-18T14:32:18Z</time>
      </trkpt>
      <trkpt lat="46.84999" lon="5.90599">
        <ele>635.4</ele>
        <time>2021-02-18T14:32:25Z</time>
      </trkpt>
      <trkpt lat="46.84994" lon="5.90601">
        <ele>635.8</ele>
        <time>2021-02-18T14:32:30Z</time>
      </trkpt>
      <trkpt lat="46.84989" lon="5.906">
        <ele>636</ele>
        <time>2021-02-18T14:32:35Z</time>
      </trkpt>
      <trkpt lat="46.84985" lon="5.90599">
        <ele>635.9</ele>
        <time>2021-02-18T14:32:40Z</time>
      </trkpt>
      <trkpt lat="46.8498" lon="5.906">
        <ele>636</ele>
        <time>2021-02-18T14:32:46Z</time>
      </trkpt>
      <trkpt lat="46.84974" lon="5.90601">
        <ele>635.8</ele>
        <time>2021-02-18T14:32:52Z</time>
      </trkpt>
      <trkpt lat="46.8497" lon="5.90603">
        <ele>635.6</ele>
        <time>2021-02-18T14:32:57Z</time>
      </trkpt>
      <trkpt lat="46.84965" lon="5.90604">
        <ele>635.3</ele>
        <time>2021-02-18T14:33:02Z</time>
      </trkpt>
      <trkpt lat="46.84961" lon="5.90607">
        <ele>635.1</ele>
        <time>2021-02-18T14:33:06Z</time>
      </trkpt>
      <trkpt lat="46.84956" lon="5.90609">
        <ele>635.1</ele>
        <time>2021-02-18T14:33:10Z</time>
      </trkpt>
      <trkpt lat="46.84951" lon="5.9061">
        <ele>635</ele>
        <time>2021-02-18T14:33:14Z</time>
      </trkpt>
      <trkpt lat="46.84947" lon="5.90616">
        <ele>638</ele>
        <time>2021-02-18T14:33:16Z</time>
      </trkpt>
      <trkpt lat="46.84943" lon="5.90621">
        <ele>640.3</ele>
        <time>2021-02-18T14:33:19Z</time>
      </trkpt>
      <trkpt lat="46.84938" lon="5.90622">
        <ele>643.9</ele>
        <time>2021-02-18T14:33:28Z</time>
      </trkpt>
      <trkpt lat="46.84933" lon="5.90621">
        <ele>644</ele>
        <time>2021-02-18T14:33:36Z</time>
      </trkpt>
      <trkpt lat="46.84924" lon="5.90626">
        <ele>642.7</ele>
        <time>2021-02-18T14:33:43Z</time>
      </trkpt>
      <trkpt lat="46.84919" lon="5.9063">
        <ele>641.9</ele>
        <time>2021-02-18T14:33:46Z</time>
      </trkpt>
      <trkpt lat="46.84915" lon="5.90633">
        <ele>641.1</ele>
        <time>2021-02-18T14:33:50Z</time>
      </trkpt>
      <trkpt lat="46.8491" lon="5.90631">
        <ele>639.9</ele>
        <time>2021-02-18T14:33:57Z</time>
      </trkpt>
      <trkpt lat="46.84905" lon="5.90631">
        <ele>638.6</ele>
        <time>2021-02-18T14:34:05Z</time>
      </trkpt>
      <trkpt lat="46.84901" lon="5.90636">
        <ele>637.3</ele>
        <time>2021-02-18T14:34:17Z</time>
      </trkpt>
      <trkpt lat="46.84898" lon="5.90639">
        <ele>636.5</ele>
        <time>2021-02-18T14:34:26Z</time>
      </trkpt>
      <trkpt lat="46.84894" lon="5.90643">
        <ele>636.1</ele>
        <time>2021-02-18T14:34:31Z</time>
      </trkpt>
      <trkpt lat="46.84891" lon="5.90649">
        <ele>635.9</ele>
        <time>2021-02-18T14:34:35Z</time>
      </trkpt>
      <trkpt lat="46.84888" lon="5.90653">
        <ele>635.8</ele>
        <time>2021-02-18T14:34:41Z</time>
      </trkpt>
      <trkpt lat="46.84885" lon="5.90659">
        <ele>636.1</ele>
        <time>2021-02-18T14:34:49Z</time>
      </trkpt>
      <trkpt lat="46.84883" lon="5.90665">
        <ele>636.6</ele>
        <time>2021-02-18T14:34:53Z</time>
      </trkpt>
      <trkpt lat="46.8488" lon="5.90657">
        <ele>637.7</ele>
        <time>2021-02-18T14:35:18Z</time>
      </trkpt>
      <trkpt lat="46.8488" lon="5.90664">
        <ele>638.8</ele>
        <time>2021-02-18T14:35:50Z</time>
      </trkpt>
      <trkpt lat="46.84882" lon="5.90675">
        <ele>639.7</ele>
        <time>2021-02-18T14:36:33Z</time>
      </trkpt>
      <trkpt lat="46.84883" lon="5.90681">
        <ele>640.8</ele>
        <time>2021-02-18T14:36:39Z</time>
      </trkpt>
      <trkpt lat="46.84877" lon="5.90679">
        <ele>641.5</ele>
        <time>2021-02-18T14:37:50Z</time>
      </trkpt>
      <trkpt lat="46.84872" lon="5.90683">
        <ele>641.5</ele>
        <time>2021-02-18T14:37:54Z</time>
      </trkpt>
      <trkpt lat="46.84869" lon="5.90688">
        <ele>641.7</ele>
        <time>2021-02-18T14:38:00Z</time>
      </trkpt>
      <trkpt lat="46.84863" lon="5.90688">
        <ele>641.9</ele>
        <time>2021-02-18T14:38:07Z</time>
      </trkpt>
      <trkpt lat="46.84859" lon="5.90689">
        <ele>641.8</ele>
        <time>2021-02-18T14:38:14Z</time>
      </trkpt>
      <trkpt lat="46.84854" lon="5.90687">
        <ele>641.9</ele>
        <time>2021-02-18T14:38:19Z</time>
      </trkpt>
      <trkpt lat="46.84857" lon="5.90682">
        <ele>641.4</ele>
        <time>2021-02-18T14:38:36Z</time>
      </trkpt>
      <trkpt lat="46.84862" lon="5.90683">
        <ele>641.5</ele>
        <time>2021-02-18T14:38:50Z</time>
      </trkpt>
      <trkpt lat="46.84866" lon="5.90687">
        <ele>641.7</ele>
        <time>2021-02-18T14:38:55Z</time>
      </trkpt>
      <trkpt lat="46.84862" lon="5.90692">
        <ele>642.2</ele>
        <time>2021-02-18T14:39:04Z</time>
      </trkpt>
      <trkpt lat="46.84856" lon="5.90694">
        <ele>644.4</ele>
        <time>2021-02-18T14:39:28Z</time>
      </trkpt>
      <trkpt lat="46.84852" lon="5.90695">
        <ele>644.6</ele>
        <time>2021-02-18T14:39:35Z</time>
      </trkpt>
      <trkpt lat="46.84847" lon="5.90694">
        <ele>644.9</ele>
        <time>2021-02-18T14:39:49Z</time>
      </trkpt>
      <trkpt lat="46.84843" lon="5.90693">
        <ele>645</ele>
        <time>2021-02-18T14:39:54Z</time>
      </trkpt>
      <trkpt lat="46.84837" lon="5.90693">
        <ele>645.4</ele>
        <time>2021-02-18T14:39:59Z</time>
      </trkpt>
      <trkpt lat="46.84832" lon="5.90693">
        <ele>645.8</ele>
        <time>2021-02-18T14:40:04Z</time>
      </trkpt>
      <trkpt lat="46.84828" lon="5.90692">
        <ele>646.5</ele>
        <time>2021-02-18T14:40:11Z</time>
      </trkpt>
      <trkpt lat="46.84823" lon="5.90688">
        <ele>647.6</ele>
        <time>2021-02-18T14:40:21Z</time>
      </trkpt>
      <trkpt lat="46.84818" lon="5.90688">
        <ele>648</ele>
        <time>2021-02-18T14:40:28Z</time>
      </trkpt>
      <trkpt lat="46.84813" lon="5.90691">
        <ele>648.5</ele>
        <time>2021-02-18T14:40:35Z</time>
      </trkpt>
      <trkpt lat="46.84809" lon="5.90695">
        <ele>649.1</ele>
        <time>2021-02-18T14:40:41Z</time>
      </trkpt>
      <trkpt lat="46.84805" lon="5.90698">
        <ele>649.6</ele>
        <time>2021-02-18T14:40:46Z</time>
      </trkpt>
      <trkpt lat="46.848" lon="5.90695">
        <ele>649.3</ele>
        <time>2021-02-18T14:40:56Z</time>
      </trkpt>
      <trkpt lat="46.84795" lon="5.90691">
        <ele>648.8</ele>
        <time>2021-02-18T14:41:03Z</time>
      </trkpt>
      <trkpt lat="46.84788" lon="5.90693">
        <ele>648.7</ele>
        <time>2021-02-18T14:41:11Z</time>
      </trkpt>
      <trkpt lat="46.84784" lon="5.90695">
        <ele>649.1</ele>
        <time>2021-02-18T14:41:16Z</time>
      </trkpt>
      <trkpt lat="46.84775" lon="5.90701">
        <ele>649.5</ele>
        <time>2021-02-18T14:41:21Z</time>
      </trkpt>
      <trkpt lat="46.84769" lon="5.90706">
        <ele>649.7</ele>
        <time>2021-02-18T14:41:23Z</time>
      </trkpt>
      <trkpt lat="46.84765" lon="5.9071">
        <ele>650.1</ele>
        <time>2021-02-18T14:41:26Z</time>
      </trkpt>
      <trkpt lat="46.84763" lon="5.90716">
        <ele>651</ele>
        <time>2021-02-18T14:41:33Z</time>
      </trkpt>
      <trkpt lat="46.84763" lon="5.90724">
        <ele>652.2</ele>
        <time>2021-02-18T14:41:43Z</time>
      </trkpt>
      <trkpt lat="46.84761" lon="5.9073">
        <ele>652.7</ele>
        <time>2021-02-18T14:41:56Z</time>
      </trkpt>
      <trkpt lat="46.84759" lon="5.90737">
        <ele>652.6</ele>
        <time>2021-02-18T14:42:02Z</time>
      </trkpt>
      <trkpt lat="46.84756" lon="5.90742">
        <ele>652.2</ele>
        <time>2021-02-18T14:42:08Z</time>
      </trkpt>
      <trkpt lat="46.84754" lon="5.90748">
        <ele>651.9</ele>
        <time>2021-02-18T14:42:14Z</time>
      </trkpt>
      <trkpt lat="46.84749" lon="5.90757">
        <ele>650.7</ele>
        <time>2021-02-18T14:42:17Z</time>
      </trkpt>
      <trkpt lat="46.84746" lon="5.90763">
        <ele>650.1</ele>
        <time>2021-02-18T14:42:19Z</time>
      </trkpt>
      <trkpt lat="46.84743" lon="5.90768">
        <ele>648.6</ele>
        <time>2021-02-18T14:42:24Z</time>
      </trkpt>
      <trkpt lat="46.84738" lon="5.90771">
        <ele>647.5</ele>
        <time>2021-02-18T14:42:32Z</time>
      </trkpt>
      <trkpt lat="46.84735" lon="5.90775">
        <ele>646.8</ele>
        <time>2021-02-18T14:42:39Z</time>
      </trkpt>
      <trkpt lat="46.8473" lon="5.90775">
        <ele>646.3</ele>
        <time>2021-02-18T14:42:45Z</time>
      </trkpt>
      <trkpt lat="46.84725" lon="5.90774">
        <ele>645.8</ele>
        <time>2021-02-18T14:42:50Z</time>
      </trkpt>
      <trkpt lat="46.84715" lon="5.90784">
        <ele>646.5</ele>
        <time>2021-02-18T14:42:55Z</time>
      </trkpt>
      <trkpt lat="46.8471" lon="5.9079">
        <ele>646.8</ele>
        <time>2021-02-18T14:42:57Z</time>
      </trkpt>
      <trkpt lat="46.84706" lon="5.90793">
        <ele>647.4</ele>
        <time>2021-02-18T14:43:00Z</time>
      </trkpt>
      <trkpt lat="46.84701" lon="5.90794">
        <ele>648</ele>
        <time>2021-02-18T14:43:05Z</time>
      </trkpt>
      <trkpt lat="46.84696" lon="5.90792">
        <ele>648.1</ele>
        <time>2021-02-18T14:43:12Z</time>
      </trkpt>
      <trkpt lat="46.84692" lon="5.9079">
        <ele>647.9</ele>
        <time>2021-02-18T14:43:21Z</time>
      </trkpt>
      <trkpt lat="46.84687" lon="5.90786">
        <ele>647.6</ele>
        <time>2021-02-18T14:43:27Z</time>
      </trkpt>
      <trkpt lat="46.84682" lon="5.90783">
        <ele>647.3</ele>
        <time>2021-02-18T14:43:33Z</time>
      </trkpt>
      <trkpt lat="46.84679" lon="5.90787">
        <ele>646.9</ele>
        <time>2021-02-18T14:43:41Z</time>
      </trkpt>
      <trkpt lat="46.84675" lon="5.90792">
        <ele>646.8</ele>
        <time>2021-02-18T14:43:47Z</time>
      </trkpt>
      <trkpt lat="46.8467" lon="5.90793">
        <ele>646.8</ele>
        <time>2021-02-18T14:43:54Z</time>
      </trkpt>
      <trkpt lat="46.84666" lon="5.9079">
        <ele>647.2</ele>
        <time>2021-02-18T14:44:02Z</time>
      </trkpt>
      <trkpt lat="46.84662" lon="5.90787">
        <ele>647.2</ele>
        <time>2021-02-18T14:44:09Z</time>
      </trkpt>
      <trkpt lat="46.84658" lon="5.90783">
        <ele>647.1</ele>
        <time>2021-02-18T14:44:16Z</time>
      </trkpt>
      <trkpt lat="46.84651" lon="5.90783">
        <ele>646.6</ele>
        <time>2021-02-18T14:44:18Z</time>
      </trkpt>
      <trkpt lat="46.84646" lon="5.90782">
        <ele>645.9</ele>
        <time>2021-02-18T14:44:22Z</time>
      </trkpt>
      <trkpt lat="46.8464" lon="5.90781">
        <ele>645.1</ele>
        <time>2021-02-18T14:44:28Z</time>
      </trkpt>
      <trkpt lat="46.84635" lon="5.90781">
        <ele>644.4</ele>
        <time>2021-02-18T14:44:35Z</time>
      </trkpt>
      <trkpt lat="46.84631" lon="5.9078">
        <ele>644</ele>
        <time>2021-02-18T14:44:41Z</time>
      </trkpt>
      <trkpt lat="46.84627" lon="5.90775">
        <ele>643.7</ele>
        <time>2021-02-18T14:44:45Z</time>
      </trkpt>
      <trkpt lat="46.84623" lon="5.90774">
        <ele>643.6</ele>
        <time>2021-02-18T14:44:50Z</time>
      </trkpt>
      <trkpt lat="46.84618" lon="5.90773">
        <ele>643.6</ele>
        <time>2021-02-18T14:44:55Z</time>
      </trkpt>
      <trkpt lat="46.84613" lon="5.9077">
        <ele>643.6</ele>
        <time>2021-02-18T14:45:00Z</time>
      </trkpt>
      <trkpt lat="46.84609" lon="5.90767">
        <ele>643.8</ele>
        <time>2021-02-18T14:45:07Z</time>
      </trkpt>
      <trkpt lat="46.84605" lon="5.90764">
        <ele>644</ele>
        <time>2021-02-18T14:45:26Z</time>
      </trkpt>
      <trkpt lat="46.846" lon="5.90765">
        <ele>644.4</ele>
        <time>2021-02-18T14:45:32Z</time>
      </trkpt>
      <trkpt lat="46.84595" lon="5.90765">
        <ele>645</ele>
        <time>2021-02-18T14:45:38Z</time>
      </trkpt>
      <trkpt lat="46.84588" lon="5.90768">
        <ele>647.9</ele>
        <time>2021-02-18T14:45:42Z</time>
      </trkpt>
      <trkpt lat="46.84582" lon="5.90772">
        <ele>650.2</ele>
        <time>2021-02-18T14:45:45Z</time>
      </trkpt>
      <trkpt lat="46.84577" lon="5.90771">
        <ele>653.8</ele>
        <time>2021-02-18T14:45:52Z</time>
      </trkpt>
      <trkpt lat="46.84573" lon="5.90769">
        <ele>655</ele>
        <time>2021-02-18T14:45:58Z</time>
      </trkpt>
      <trkpt lat="46.84568" lon="5.90766">
        <ele>655.6</ele>
        <time>2021-02-18T14:46:05Z</time>
      </trkpt>
      <trkpt lat="46.84563" lon="5.90764">
        <ele>655.7</ele>
        <time>2021-02-18T14:46:12Z</time>
      </trkpt>
      <trkpt lat="46.84559" lon="5.90767">
        <ele>656.3</ele>
        <time>2021-02-18T14:46:37Z</time>
      </trkpt>
      <trkpt lat="46.84559" lon="5.90756">
        <ele>652.6</ele>
        <time>2021-02-18T14:47:55Z</time>
      </trkpt>
      <trkpt lat="46.84559" lon="5.90749">
        <ele>651.3</ele>
        <time>2021-02-18T14:47:58Z</time>
      </trkpt>
      <trkpt lat="46.84559" lon="5.90757">
        <ele>646.9</ele>
        <time>2021-02-18T14:48:41Z</time>
      </trkpt>
      <trkpt lat="46.84559" lon="5.90764">
        <ele>646.1</ele>
        <time>2021-02-18T14:48:47Z</time>
      </trkpt>
      <trkpt lat="46.84555" lon="5.90763">
        <ele>644.6</ele>
        <time>2021-02-18T14:48:57Z</time>
      </trkpt>
      <trkpt lat="46.8455" lon="5.9076">
        <ele>644.6</ele>
        <time>2021-02-18T14:49:06Z</time>
      </trkpt>
      <trkpt lat="46.84545" lon="5.90758">
        <ele>645.2</ele>
        <time>2021-02-18T14:49:11Z</time>
      </trkpt>
      <trkpt lat="46.8454" lon="5.90758">
        <ele>645.6</ele>
        <time>2021-02-18T14:49:14Z</time>
      </trkpt>
      <trkpt lat="46.84535" lon="5.90757">
        <ele>646.5</ele>
        <time>2021-02-18T14:49:18Z</time>
      </trkpt>
      <trkpt lat="46.84531" lon="5.90758">
        <ele>647.4</ele>
        <time>2021-02-18T14:49:22Z</time>
      </trkpt>
      <trkpt lat="46.84526" lon="5.90759">
        <ele>647.9</ele>
        <time>2021-02-18T14:49:25Z</time>
      </trkpt>
      <trkpt lat="46.8452" lon="5.90761">
        <ele>648.6</ele>
        <time>2021-02-18T14:49:28Z</time>
      </trkpt>
      <trkpt lat="46.84516" lon="5.9076">
        <ele>650.1</ele>
        <time>2021-02-18T14:49:33Z</time>
      </trkpt>
      <trkpt lat="46.84512" lon="5.90756">
        <ele>651.7</ele>
        <time>2021-02-18T14:49:39Z</time>
      </trkpt>
      <trkpt lat="46.84508" lon="5.90753">
        <ele>653.3</ele>
        <time>2021-02-18T14:49:45Z</time>
      </trkpt>
      <trkpt lat="46.84503" lon="5.9075">
        <ele>655.4</ele>
        <time>2021-02-18T14:49:52Z</time>
      </trkpt>
      <trkpt lat="46.84498" lon="5.90746">
        <ele>657.1</ele>
        <time>2021-02-18T14:49:58Z</time>
      </trkpt>
      <trkpt lat="46.84495" lon="5.90742">
        <ele>658.2</ele>
        <time>2021-02-18T14:50:05Z</time>
      </trkpt>
      <trkpt lat="46.8449" lon="5.90743">
        <ele>658.1</ele>
        <time>2021-02-18T14:50:12Z</time>
      </trkpt>
      <trkpt lat="46.84487" lon="5.9075">
        <ele>656.2</ele>
        <time>2021-02-18T14:50:31Z</time>
      </trkpt>
      <trkpt lat="46.84483" lon="5.90754">
        <ele>655.1</ele>
        <time>2021-02-18T14:50:38Z</time>
      </trkpt>
      <trkpt lat="46.8448" lon="5.9076">
        <ele>652.3</ele>
        <time>2021-02-18T14:50:48Z</time>
      </trkpt>
      <trkpt lat="46.84476" lon="5.90763">
        <ele>650.4</ele>
        <time>2021-02-18T14:50:55Z</time>
      </trkpt>
      <trkpt lat="46.84471" lon="5.90763">
        <ele>648.9</ele>
        <time>2021-02-18T14:51:00Z</time>
      </trkpt>
      <trkpt lat="46.84466" lon="5.90763">
        <ele>646.5</ele>
        <time>2021-02-18T14:51:07Z</time>
      </trkpt>
      <trkpt lat="46.84462" lon="5.90764">
        <ele>643.9</ele>
        <time>2021-02-18T14:51:11Z</time>
      </trkpt>
      <trkpt lat="46.84457" lon="5.90769">
        <ele>641.1</ele>
        <time>2021-02-18T14:51:17Z</time>
      </trkpt>
      <trkpt lat="46.84454" lon="5.90775">
        <ele>641.5</ele>
        <time>2021-02-18T14:51:22Z</time>
      </trkpt>
      <trkpt lat="46.8445" lon="5.90779">
        <ele>644.3</ele>
        <time>2021-02-18T14:51:26Z</time>
      </trkpt>
      <trkpt lat="46.84446" lon="5.90782">
        <ele>646.5</ele>
        <time>2021-02-18T14:51:30Z</time>
      </trkpt>
      <trkpt lat="46.84441" lon="5.90783">
        <ele>648.4</ele>
        <time>2021-02-18T14:51:35Z</time>
      </trkpt>
      <trkpt lat="46.84436" lon="5.90784">
        <ele>651.1</ele>
        <time>2021-02-18T14:51:42Z</time>
      </trkpt>
      <trkpt lat="46.84431" lon="5.90785">
        <ele>651.3</ele>
        <time>2021-02-18T14:51:50Z</time>
      </trkpt>
      <trkpt lat="46.84426" lon="5.90788">
        <ele>651.1</ele>
        <time>2021-02-18T14:51:54Z</time>
      </trkpt>
      <trkpt lat="46.84421" lon="5.90792">
        <ele>651.3</ele>
        <time>2021-02-18T14:51:57Z</time>
      </trkpt>
      <trkpt lat="46.84416" lon="5.90796">
        <ele>651.2</ele>
        <time>2021-02-18T14:52:01Z</time>
      </trkpt>
      <trkpt lat="46.84412" lon="5.908">
        <ele>651.2</ele>
        <time>2021-02-18T14:52:05Z</time>
      </trkpt>
      <trkpt lat="46.84409" lon="5.90804">
        <ele>651.4</ele>
        <time>2021-02-18T14:52:09Z</time>
      </trkpt>
      <trkpt lat="46.84404" lon="5.90806">
        <ele>652.2</ele>
        <time>2021-02-18T14:52:15Z</time>
      </trkpt>
      <trkpt lat="46.84401" lon="5.9081">
        <ele>650.6</ele>
        <time>2021-02-18T14:53:13Z</time>
      </trkpt>
      <trkpt lat="46.84396" lon="5.90812">
        <ele>650.1</ele>
        <time>2021-02-18T14:53:25Z</time>
      </trkpt>
      <trkpt lat="46.84391" lon="5.90813">
        <ele>649.9</ele>
        <time>2021-02-18T14:53:30Z</time>
      </trkpt>
      <trkpt lat="46.84387" lon="5.90817">
        <ele>651.8</ele>
        <time>2021-02-18T14:53:42Z</time>
      </trkpt>
      <trkpt lat="46.84382" lon="5.90821">
        <ele>652.7</ele>
        <time>2021-02-18T14:53:46Z</time>
      </trkpt>
      <trkpt lat="46.84376" lon="5.90821">
        <ele>653.1</ele>
        <time>2021-02-18T14:53:50Z</time>
      </trkpt>
      <trkpt lat="46.84371" lon="5.90821">
        <ele>653.3</ele>
        <time>2021-02-18T14:53:54Z</time>
      </trkpt>
      <trkpt lat="46.84366" lon="5.90819">
        <ele>653.9</ele>
        <time>2021-02-18T14:54:01Z</time>
      </trkpt>
      <trkpt lat="46.84361" lon="5.90817">
        <ele>654.5</ele>
        <time>2021-02-18T14:54:06Z</time>
      </trkpt>
      <trkpt lat="46.84357" lon="5.90818">
        <ele>654.9</ele>
        <time>2021-02-18T14:54:10Z</time>
      </trkpt>
      <trkpt lat="46.84351" lon="5.90818">
        <ele>655.1</ele>
        <time>2021-02-18T14:54:14Z</time>
      </trkpt>
      <trkpt lat="46.84346" lon="5.90818">
        <ele>655.3</ele>
        <time>2021-02-18T14:54:19Z</time>
      </trkpt>
      <trkpt lat="46.84341" lon="5.90817">
        <ele>656</ele>
        <time>2021-02-18T14:54:25Z</time>
      </trkpt>
      <trkpt lat="46.84337" lon="5.90814">
        <ele>656.4</ele>
        <time>2021-02-18T14:54:29Z</time>
      </trkpt>
      <trkpt lat="46.84333" lon="5.9081">
        <ele>656.8</ele>
        <time>2021-02-18T14:54:33Z</time>
      </trkpt>
      <trkpt lat="46.84328" lon="5.90806">
        <ele>657.6</ele>
        <time>2021-02-18T14:54:38Z</time>
      </trkpt>
      <trkpt lat="46.84323" lon="5.90804">
        <ele>658.3</ele>
        <time>2021-02-18T14:54:45Z</time>
      </trkpt>
      <trkpt lat="46.84319" lon="5.90802">
        <ele>658.1</ele>
        <time>2021-02-18T14:54:50Z</time>
      </trkpt>
      <trkpt lat="46.84315" lon="5.90797">
        <ele>656.6</ele>
        <time>2021-02-18T14:54:55Z</time>
      </trkpt>
      <trkpt lat="46.84311" lon="5.90793">
        <ele>655.2</ele>
        <time>2021-02-18T14:55:00Z</time>
      </trkpt>
      <trkpt lat="46.84305" lon="5.90791">
        <ele>653.8</ele>
        <time>2021-02-18T14:55:03Z</time>
      </trkpt>
      <trkpt lat="46.84301" lon="5.9079">
        <ele>652.6</ele>
        <time>2021-02-18T14:55:06Z</time>
      </trkpt>
      <trkpt lat="46.84297" lon="5.90787">
        <ele>650.3</ele>
        <time>2021-02-18T14:55:12Z</time>
      </trkpt>
      <trkpt lat="46.84294" lon="5.90782">
        <ele>648.6</ele>
        <time>2021-02-18T14:55:17Z</time>
      </trkpt>
      <trkpt lat="46.84291" lon="5.90775">
        <ele>647.7</ele>
        <time>2021-02-18T14:55:21Z</time>
      </trkpt>
      <trkpt lat="46.84287" lon="5.90771">
        <ele>646.9</ele>
        <time>2021-02-18T14:55:26Z</time>
      </trkpt>
      <trkpt lat="46.84284" lon="5.90767">
        <ele>646.4</ele>
        <time>2021-02-18T14:55:31Z</time>
      </trkpt>
      <trkpt lat="46.84279" lon="5.90763">
        <ele>646</ele>
        <time>2021-02-18T14:55:35Z</time>
      </trkpt>
      <trkpt lat="46.84276" lon="5.90759">
        <ele>645.8</ele>
        <time>2021-02-18T14:55:40Z</time>
      </trkpt>
      <trkpt lat="46.84272" lon="5.90755">
        <ele>646.2</ele>
        <time>2021-02-18T14:55:46Z</time>
      </trkpt>
      <trkpt lat="46.84266" lon="5.90749">
        <ele>645.5</ele>
        <time>2021-02-18T14:55:50Z</time>
      </trkpt>
      <trkpt lat="46.84263" lon="5.90744">
        <ele>644.7</ele>
        <time>2021-02-18T14:55:53Z</time>
      </trkpt>
      <trkpt lat="46.8426" lon="5.90738">
        <ele>643.8</ele>
        <time>2021-02-18T14:55:58Z</time>
      </trkpt>
      <trkpt lat="46.84258" lon="5.90731">
        <ele>643.3</ele>
        <time>2021-02-18T14:56:02Z</time>
      </trkpt>
      <trkpt lat="46.84258" lon="5.90724">
        <ele>643.1</ele>
        <time>2021-02-18T14:56:06Z</time>
      </trkpt>
      <trkpt lat="46.84258" lon="5.90717">
        <ele>643</ele>
        <time>2021-02-18T14:56:11Z</time>
      </trkpt>
      <trkpt lat="46.84258" lon="5.9071">
        <ele>642.6</ele>
        <time>2021-02-18T14:56:16Z</time>
      </trkpt>
      <trkpt lat="46.84258" lon="5.90703">
        <ele>641.9</ele>
        <time>2021-02-18T14:56:21Z</time>
      </trkpt>
      <trkpt lat="46.84258" lon="5.90695">
        <ele>640.9</ele>
        <time>2021-02-18T14:56:26Z</time>
      </trkpt>
      <trkpt lat="46.84257" lon="5.90687">
        <ele>640.1</ele>
        <time>2021-02-18T14:56:30Z</time>
      </trkpt>
      <trkpt lat="46.84257" lon="5.9068">
        <ele>639.1</ele>
        <time>2021-02-18T14:56:35Z</time>
      </trkpt>
      <trkpt lat="46.84258" lon="5.90673">
        <ele>637.9</ele>
        <time>2021-02-18T14:56:41Z</time>
      </trkpt>
      <trkpt lat="46.84259" lon="5.90667">
        <ele>636.5</ele>
        <time>2021-02-18T14:56:47Z</time>
      </trkpt>
      <trkpt lat="46.84259" lon="5.9066">
        <ele>635.4</ele>
        <time>2021-02-18T14:56:53Z</time>
      </trkpt>
      <trkpt lat="46.84258" lon="5.90652">
        <ele>634.4</ele>
        <time>2021-02-18T14:56:59Z</time>
      </trkpt>
      <trkpt lat="46.84257" lon="5.90645">
        <ele>633.4</ele>
        <time>2021-02-18T14:57:05Z</time>
      </trkpt>
      <trkpt lat="46.84255" lon="5.90638">
        <ele>632.8</ele>
        <time>2021-02-18T14:57:10Z</time>
      </trkpt>
      <trkpt lat="46.84251" lon="5.90631">
        <ele>632.4</ele>
        <time>2021-02-18T14:57:14Z</time>
      </trkpt>
      <trkpt lat="46.84248" lon="5.90626">
        <ele>632</ele>
        <time>2021-02-18T14:57:18Z</time>
      </trkpt>
      <trkpt lat="46.84246" lon="5.9062">
        <ele>631.1</ele>
        <time>2021-02-18T14:57:28Z</time>
      </trkpt>
      <trkpt lat="46.84243" lon="5.90614">
        <ele>629.9</ele>
        <time>2021-02-18T14:57:39Z</time>
      </trkpt>
      <trkpt lat="46.84246" lon="5.90609">
        <ele>629</ele>
        <time>2021-02-18T14:57:50Z</time>
      </trkpt>
      <trkpt lat="46.84242" lon="5.90607">
        <ele>627.9</ele>
        <time>2021-02-18T14:58:13Z</time>
      </trkpt>
      <trkpt lat="46.84238" lon="5.90601">
        <ele>627.8</ele>
        <time>2021-02-18T14:58:20Z</time>
      </trkpt>
      <trkpt lat="46.84236" lon="5.90595">
        <ele>627.5</ele>
        <time>2021-02-18T14:58:25Z</time>
      </trkpt>
      <trkpt lat="46.84233" lon="5.9059">
        <ele>627.4</ele>
        <time>2021-02-18T14:58:30Z</time>
      </trkpt>
      <trkpt lat="46.84228" lon="5.90588">
        <ele>627.6</ele>
        <time>2021-02-18T14:58:34Z</time>
      </trkpt>
      <trkpt lat="46.84224" lon="5.90585">
        <ele>628.1</ele>
        <time>2021-02-18T14:58:38Z</time>
      </trkpt>
      <trkpt lat="46.8422" lon="5.9058">
        <ele>628.3</ele>
        <time>2021-02-18T14:58:47Z</time>
      </trkpt>
      <trkpt lat="46.84218" lon="5.90573">
        <ele>628.6</ele>
        <time>2021-02-18T14:58:53Z</time>
      </trkpt>
      <trkpt lat="46.84216" lon="5.90567">
        <ele>628.5</ele>
        <time>2021-02-18T14:58:57Z</time>
      </trkpt>
      <trkpt lat="46.84214" lon="5.9056">
        <ele>628.6</ele>
        <time>2021-02-18T14:59:02Z</time>
      </trkpt>
      <trkpt lat="46.84214" lon="5.90553">
        <ele>629.6</ele>
        <time>2021-02-18T14:59:09Z</time>
      </trkpt>
      <trkpt lat="46.84215" lon="5.90545">
        <ele>631.9</ele>
        <time>2021-02-18T14:59:15Z</time>
      </trkpt>
      <trkpt lat="46.84216" lon="5.90537">
        <ele>634</ele>
        <time>2021-02-18T14:59:21Z</time>
      </trkpt>
      <trkpt lat="46.84217" lon="5.9053">
        <ele>636.9</ele>
        <time>2021-02-18T14:59:29Z</time>
      </trkpt>
      <trkpt lat="46.84216" lon="5.90523">
        <ele>638.3</ele>
        <time>2021-02-18T14:59:34Z</time>
      </trkpt>
      <trkpt lat="46.84215" lon="5.90516">
        <ele>639.2</ele>
        <time>2021-02-18T14:59:39Z</time>
      </trkpt>
      <trkpt lat="46.84214" lon="5.90508">
        <ele>639.2</ele>
        <time>2021-02-18T14:59:44Z</time>
      </trkpt>
      <trkpt lat="46.84213" lon="5.90501">
        <ele>638.4</ele>
        <time>2021-02-18T14:59:47Z</time>
      </trkpt>
      <trkpt lat="46.84212" lon="5.90495">
        <ele>636.3</ele>
        <time>2021-02-18T14:59:50Z</time>
      </trkpt>
      <trkpt lat="46.8421" lon="5.90487">
        <ele>633.5</ele>
        <time>2021-02-18T14:59:55Z</time>
      </trkpt>
      <trkpt lat="46.84207" lon="5.90482">
        <ele>631.7</ele>
        <time>2021-02-18T14:59:59Z</time>
      </trkpt>
      <trkpt lat="46.84206" lon="5.90474">
        <ele>629.9</ele>
        <time>2021-02-18T15:00:04Z</time>
      </trkpt>
      <trkpt lat="46.84204" lon="5.90468">
        <ele>628.6</ele>
        <time>2021-02-18T15:00:09Z</time>
      </trkpt>
      <trkpt lat="46.84202" lon="5.90462">
        <ele>627.5</ele>
        <time>2021-02-18T15:00:13Z</time>
      </trkpt>
      <trkpt lat="46.842" lon="5.90456">
        <ele>625.9</ele>
        <time>2021-02-18T15:00:17Z</time>
      </trkpt>
      <trkpt lat="46.84197" lon="5.9045">
        <ele>624.6</ele>
        <time>2021-02-18T15:00:22Z</time>
      </trkpt>
      <trkpt lat="46.84197" lon="5.90442">
        <ele>624.4</ele>
        <time>2021-02-18T15:00:29Z</time>
      </trkpt>
      <trkpt lat="46.84196" lon="5.90436">
        <ele>625.3</ele>
        <time>2021-02-18T15:00:33Z</time>
      </trkpt>
      <trkpt lat="46.84194" lon="5.9043">
        <ele>625.2</ele>
        <time>2021-02-18T15:00:38Z</time>
      </trkpt>
      <trkpt lat="46.8419" lon="5.90425">
        <ele>624.2</ele>
        <time>2021-02-18T15:00:44Z</time>
      </trkpt>
      <trkpt lat="46.84186" lon="5.9042">
        <ele>621.3</ele>
        <time>2021-02-18T15:00:50Z</time>
      </trkpt>
      <trkpt lat="46.8418" lon="5.90419">
        <ele>619.3</ele>
        <time>2021-02-18T15:00:54Z</time>
      </trkpt>
      <trkpt lat="46.84175" lon="5.90417">
        <ele>616.5</ele>
        <time>2021-02-18T15:00:59Z</time>
      </trkpt>
      <trkpt lat="46.8417" lon="5.90418">
        <ele>613.9</ele>
        <time>2021-02-18T15:01:05Z</time>
      </trkpt>
      <trkpt lat="46.84165" lon="5.90415">
        <ele>611.7</ele>
        <time>2021-02-18T15:01:12Z</time>
      </trkpt>
      <trkpt lat="46.84162" lon="5.90409">
        <ele>610.8</ele>
        <time>2021-02-18T15:01:16Z</time>
      </trkpt>
      <trkpt lat="46.8416" lon="5.90404">
        <ele>609.6</ele>
        <time>2021-02-18T15:01:21Z</time>
      </trkpt>
      <trkpt lat="46.84155" lon="5.90401">
        <ele>610.2</ele>
        <time>2021-02-18T15:01:27Z</time>
      </trkpt>
      <trkpt lat="46.84151" lon="5.90397">
        <ele>611</ele>
        <time>2021-02-18T15:01:31Z</time>
      </trkpt>
      <trkpt lat="46.84147" lon="5.90393">
        <ele>611.8</ele>
        <time>2021-02-18T15:01:34Z</time>
      </trkpt>
      <trkpt lat="46.84143" lon="5.90388">
        <ele>613</ele>
        <time>2021-02-18T15:01:39Z</time>
      </trkpt>
      <trkpt lat="46.84142" lon="5.90381">
        <ele>617.2</ele>
        <time>2021-02-18T15:01:57Z</time>
      </trkpt>
      <trkpt lat="46.84137" lon="5.90376">
        <ele>617.5</ele>
        <time>2021-02-18T15:02:02Z</time>
      </trkpt>
      <trkpt lat="46.84133" lon="5.90371">
        <ele>617.7</ele>
        <time>2021-02-18T15:02:08Z</time>
      </trkpt>
      <trkpt lat="46.84129" lon="5.90368">
        <ele>619.2</ele>
        <time>2021-02-18T15:02:13Z</time>
      </trkpt>
      <trkpt lat="46.84124" lon="5.90365">
        <ele>622.2</ele>
        <time>2021-02-18T15:02:19Z</time>
      </trkpt>
      <trkpt lat="46.84119" lon="5.90362">
        <ele>624.8</ele>
        <time>2021-02-18T15:02:24Z</time>
      </trkpt>
      <trkpt lat="46.84115" lon="5.90358">
        <ele>627.8</ele>
        <time>2021-02-18T15:02:29Z</time>
      </trkpt>
      <trkpt lat="46.84111" lon="5.90354">
        <ele>631.4</ele>
        <time>2021-02-18T15:02:35Z</time>
      </trkpt>
      <trkpt lat="46.84108" lon="5.90348">
        <ele>634.5</ele>
        <time>2021-02-18T15:02:42Z</time>
      </trkpt>
      <trkpt lat="46.84105" lon="5.90343">
        <ele>635.3</ele>
        <time>2021-02-18T15:02:46Z</time>
      </trkpt>
      <trkpt lat="46.84101" lon="5.90339">
        <ele>636.2</ele>
        <time>2021-02-18T15:02:51Z</time>
      </trkpt>
      <trkpt lat="46.84097" lon="5.90336">
        <ele>637.8</ele>
        <time>2021-02-18T15:02:58Z</time>
      </trkpt>
      <trkpt lat="46.84093" lon="5.90333">
        <ele>639.4</ele>
        <time>2021-02-18T15:03:05Z</time>
      </trkpt>
      <trkpt lat="46.8409" lon="5.90327">
        <ele>640.3</ele>
        <time>2021-02-18T15:03:10Z</time>
      </trkpt>
      <trkpt lat="46.84088" lon="5.9032">
        <ele>640.8</ele>
        <time>2021-02-18T15:03:14Z</time>
      </trkpt>
      <trkpt lat="46.84085" lon="5.90314">
        <ele>641.4</ele>
        <time>2021-02-18T15:03:18Z</time>
      </trkpt>
      <trkpt lat="46.84082" lon="5.90308">
        <ele>642</ele>
        <time>2021-02-18T15:03:22Z</time>
      </trkpt>
      <trkpt lat="46.8408" lon="5.90302">
        <ele>642.6</ele>
        <time>2021-02-18T15:03:26Z</time>
      </trkpt>
      <trkpt lat="46.84078" lon="5.90296">
        <ele>643.3</ele>
        <time>2021-02-18T15:03:30Z</time>
      </trkpt>
      <trkpt lat="46.84076" lon="5.90289">
        <ele>642.4</ele>
        <time>2021-02-18T15:03:34Z</time>
      </trkpt>
      <trkpt lat="46.84075" lon="5.90282">
        <ele>641.9</ele>
        <time>2021-02-18T15:03:42Z</time>
      </trkpt>
      <trkpt lat="46.84074" lon="5.90275">
        <ele>642.4</ele>
        <time>2021-02-18T15:03:48Z</time>
      </trkpt>
      <trkpt lat="46.84075" lon="5.90268">
        <ele>640.3</ele>
        <time>2021-02-18T15:03:52Z</time>
      </trkpt>
      <trkpt lat="46.84075" lon="5.9026">
        <ele>638.5</ele>
        <time>2021-02-18T15:03:55Z</time>
      </trkpt>
      <trkpt lat="46.84075" lon="5.90253">
        <ele>636</ele>
        <time>2021-02-18T15:03:59Z</time>
      </trkpt>
      <trkpt lat="46.84074" lon="5.90247">
        <ele>634</ele>
        <time>2021-02-18T15:04:06Z</time>
      </trkpt>
      <trkpt lat="46.84072" lon="5.9024">
        <ele>633.2</ele>
        <time>2021-02-18T15:04:11Z</time>
      </trkpt>
      <trkpt lat="46.84072" lon="5.90233">
        <ele>632.8</ele>
        <time>2021-02-18T15:04:16Z</time>
      </trkpt>
      <trkpt lat="46.84071" lon="5.90225">
        <ele>632.5</ele>
        <time>2021-02-18T15:04:21Z</time>
      </trkpt>
      <trkpt lat="46.84069" lon="5.90218">
        <ele>632.3</ele>
        <time>2021-02-18T15:04:26Z</time>
      </trkpt>
      <trkpt lat="46.84068" lon="5.90212">
        <ele>632</ele>
        <time>2021-02-18T15:04:31Z</time>
      </trkpt>
      <trkpt lat="46.84068" lon="5.90205">
        <ele>631.8</ele>
        <time>2021-02-18T15:04:37Z</time>
      </trkpt>
      <trkpt lat="46.84071" lon="5.90199">
        <ele>631.6</ele>
        <time>2021-02-18T15:04:43Z</time>
      </trkpt>
      <trkpt lat="46.84072" lon="5.90192">
        <ele>631.6</ele>
        <time>2021-02-18T15:04:50Z</time>
      </trkpt>
      <trkpt lat="46.84073" lon="5.90185">
        <ele>631</ele>
        <time>2021-02-18T15:04:55Z</time>
      </trkpt>
      <trkpt lat="46.84072" lon="5.90178">
        <ele>627.2</ele>
        <time>2021-02-18T15:05:04Z</time>
      </trkpt>
      <trkpt lat="46.84069" lon="5.90172">
        <ele>623.9</ele>
        <time>2021-02-18T15:05:13Z</time>
      </trkpt>
      <trkpt lat="46.84066" lon="5.90168">
        <ele>622.7</ele>
        <time>2021-02-18T15:05:19Z</time>
      </trkpt>
      <trkpt lat="46.84063" lon="5.90163">
        <ele>622.3</ele>
        <time>2021-02-18T15:05:26Z</time>
      </trkpt>
      <trkpt lat="46.8406" lon="5.90157">
        <ele>622</ele>
        <time>2021-02-18T15:05:32Z</time>
      </trkpt>
      <trkpt lat="46.84059" lon="5.90149">
        <ele>621.7</ele>
        <time>2021-02-18T15:05:38Z</time>
      </trkpt>
      <trkpt lat="46.84058" lon="5.90141">
        <ele>621.5</ele>
        <time>2021-02-18T15:05:42Z</time>
      </trkpt>
      <trkpt lat="46.84057" lon="5.90134">
        <ele>621.1</ele>
        <time>2021-02-18T15:05:47Z</time>
      </trkpt>
      <trkpt lat="46.84055" lon="5.90128">
        <ele>620.6</ele>
        <time>2021-02-18T15:05:53Z</time>
      </trkpt>
      <trkpt lat="46.84053" lon="5.90121">
        <ele>620.7</ele>
        <time>2021-02-18T15:05:58Z</time>
      </trkpt>
      <trkpt lat="46.84051" lon="5.90114">
        <ele>621</ele>
        <time>2021-02-18T15:06:03Z</time>
      </trkpt>
      <trkpt lat="46.84046" lon="5.9011">
        <ele>621.5</ele>
        <time>2021-02-18T15:06:12Z</time>
      </trkpt>
      <trkpt lat="46.84042" lon="5.90107">
        <ele>621.6</ele>
        <time>2021-02-18T15:06:21Z</time>
      </trkpt>
      <trkpt lat="46.84039" lon="5.90101">
        <ele>621.7</ele>
        <time>2021-02-18T15:06:27Z</time>
      </trkpt>
      <trkpt lat="46.84036" lon="5.90095">
        <ele>621.7</ele>
        <time>2021-02-18T15:06:33Z</time>
      </trkpt>
      <trkpt lat="46.84034" lon="5.9009">
        <ele>620.4</ele>
        <time>2021-02-18T15:07:02Z</time>
      </trkpt>
      <trkpt lat="46.84031" lon="5.90078">
        <ele>624.8</ele>
        <time>2021-02-18T15:08:31Z</time>
      </trkpt>
      <trkpt lat="46.84031" lon="5.90071">
        <ele>625.7</ele>
        <time>2021-02-18T15:08:38Z</time>
      </trkpt>
      <trkpt lat="46.8403" lon="5.90065">
        <ele>624.8</ele>
        <time>2021-02-18T15:08:45Z</time>
      </trkpt>
      <trkpt lat="46.84025" lon="5.90062">
        <ele>623.8</ele>
        <time>2021-02-18T15:08:50Z</time>
      </trkpt>
      <trkpt lat="46.84019" lon="5.90062">
        <ele>623.3</ele>
        <time>2021-02-18T15:08:54Z</time>
      </trkpt>
      <trkpt lat="46.84015" lon="5.90059">
        <ele>622.7</ele>
        <time>2021-02-18T15:09:00Z</time>
      </trkpt>
      <trkpt lat="46.84014" lon="5.90052">
        <ele>621.5</ele>
        <time>2021-02-18T15:09:07Z</time>
      </trkpt>
      <trkpt lat="46.84011" lon="5.90047">
        <ele>620.1</ele>
        <time>2021-02-18T15:09:15Z</time>
      </trkpt>
      <trkpt lat="46.84006" lon="5.90046">
        <ele>619.7</ele>
        <time>2021-02-18T15:09:23Z</time>
      </trkpt>
      <trkpt lat="46.84003" lon="5.90041">
        <ele>620.1</ele>
        <time>2021-02-18T15:09:28Z</time>
      </trkpt>
      <trkpt lat="46.84" lon="5.90035">
        <ele>620.7</ele>
        <time>2021-02-18T15:09:33Z</time>
      </trkpt>
      <trkpt lat="46.83998" lon="5.90029">
        <ele>620.5</ele>
        <time>2021-02-18T15:09:38Z</time>
      </trkpt>
      <trkpt lat="46.83996" lon="5.90021">
        <ele>619.8</ele>
        <time>2021-02-18T15:09:43Z</time>
      </trkpt>
      <trkpt lat="46.83994" lon="5.90014">
        <ele>619</ele>
        <time>2021-02-18T15:09:49Z</time>
      </trkpt>
      <trkpt lat="46.83991" lon="5.9001">
        <ele>619</ele>
        <time>2021-02-18T15:09:53Z</time>
      </trkpt>
      <trkpt lat="46.83987" lon="5.90007">
        <ele>619.5</ele>
        <time>2021-02-18T15:09:57Z</time>
      </trkpt>
      <trkpt lat="46.83983" lon="5.90003">
        <ele>620.4</ele>
        <time>2021-02-18T15:10:01Z</time>
      </trkpt>
      <trkpt lat="46.83979" lon="5.89999">
        <ele>621.6</ele>
        <time>2021-02-18T15:10:05Z</time>
      </trkpt>
      <trkpt lat="46.83975" lon="5.89996">
        <ele>622.2</ele>
        <time>2021-02-18T15:10:10Z</time>
      </trkpt>
      <trkpt lat="46.8397" lon="5.89992">
        <ele>622.5</ele>
        <time>2021-02-18T15:10:15Z</time>
      </trkpt>
      <trkpt lat="46.83966" lon="5.89988">
        <ele>623.2</ele>
        <time>2021-02-18T15:10:19Z</time>
      </trkpt>
      <trkpt lat="46.83961" lon="5.89986">
        <ele>624.9</ele>
        <time>2021-02-18T15:10:30Z</time>
      </trkpt>
      <trkpt lat="46.83957" lon="5.89983">
        <ele>626.8</ele>
        <time>2021-02-18T15:10:37Z</time>
      </trkpt>
      <trkpt lat="46.83952" lon="5.8998">
        <ele>628.4</ele>
        <time>2021-02-18T15:10:42Z</time>
      </trkpt>
      <trkpt lat="46.83948" lon="5.89978">
        <ele>629.8</ele>
        <time>2021-02-18T15:10:46Z</time>
      </trkpt>
      <trkpt lat="46.83943" lon="5.89973">
        <ele>630.6</ele>
        <time>2021-02-18T15:10:52Z</time>
      </trkpt>
      <trkpt lat="46.8394" lon="5.89969">
        <ele>629.9</ele>
        <time>2021-02-18T15:10:56Z</time>
      </trkpt>
      <trkpt lat="46.83937" lon="5.89963">
        <ele>629.4</ele>
        <time>2021-02-18T15:11:01Z</time>
      </trkpt>
      <trkpt lat="46.83934" lon="5.89957">
        <ele>629.5</ele>
        <time>2021-02-18T15:11:05Z</time>
      </trkpt>
      <trkpt lat="46.83931" lon="5.89953">
        <ele>630.5</ele>
        <time>2021-02-18T15:11:09Z</time>
      </trkpt>
      <trkpt lat="46.83926" lon="5.89949">
        <ele>632.4</ele>
        <time>2021-02-18T15:11:14Z</time>
      </trkpt>
      <trkpt lat="46.83923" lon="5.89945">
        <ele>634.8</ele>
        <time>2021-02-18T15:11:19Z</time>
      </trkpt>
      <trkpt lat="46.83919" lon="5.89939">
        <ele>637.5</ele>
        <time>2021-02-18T15:11:24Z</time>
      </trkpt>
      <trkpt lat="46.83915" lon="5.89935">
        <ele>639.5</ele>
        <time>2021-02-18T15:11:28Z</time>
      </trkpt>
      <trkpt lat="46.83911" lon="5.8993">
        <ele>641.9</ele>
        <time>2021-02-18T15:11:34Z</time>
      </trkpt>
      <trkpt lat="46.83907" lon="5.89925">
        <ele>643.3</ele>
        <time>2021-02-18T15:11:39Z</time>
      </trkpt>
      <trkpt lat="46.83904" lon="5.89918">
        <ele>645.3</ele>
        <time>2021-02-18T15:11:45Z</time>
      </trkpt>
      <trkpt lat="46.83901" lon="5.89913">
        <ele>646.4</ele>
        <time>2021-02-18T15:11:49Z</time>
      </trkpt>
      <trkpt lat="46.83897" lon="5.89909">
        <ele>647.6</ele>
        <time>2021-02-18T15:11:53Z</time>
      </trkpt>
      <trkpt lat="46.83894" lon="5.89905">
        <ele>648.9</ele>
        <time>2021-02-18T15:11:57Z</time>
      </trkpt>
      <trkpt lat="46.8389" lon="5.899">
        <ele>650.3</ele>
        <time>2021-02-18T15:12:01Z</time>
      </trkpt>
      <trkpt lat="46.83887" lon="5.89894">
        <ele>651.7</ele>
        <time>2021-02-18T15:12:05Z</time>
      </trkpt>
      <trkpt lat="46.83885" lon="5.89887">
        <ele>652.7</ele>
        <time>2021-02-18T15:12:09Z</time>
      </trkpt>
      <trkpt lat="46.83883" lon="5.8988">
        <ele>653.5</ele>
        <time>2021-02-18T15:12:13Z</time>
      </trkpt>
      <trkpt lat="46.83879" lon="5.89875">
        <ele>654.3</ele>
        <time>2021-02-18T15:12:18Z</time>
      </trkpt>
      <trkpt lat="46.83876" lon="5.89869">
        <ele>654.9</ele>
        <time>2021-02-18T15:12:23Z</time>
      </trkpt>
      <trkpt lat="46.83873" lon="5.89863">
        <ele>655.2</ele>
        <time>2021-02-18T15:12:27Z</time>
      </trkpt>
      <trkpt lat="46.8387" lon="5.89858">
        <ele>655.7</ele>
        <time>2021-02-18T15:12:32Z</time>
      </trkpt>
      <trkpt lat="46.83866" lon="5.89853">
        <ele>656.2</ele>
        <time>2021-02-18T15:12:37Z</time>
      </trkpt>
      <trkpt lat="46.83864" lon="5.89846">
        <ele>656.4</ele>
        <time>2021-02-18T15:12:41Z</time>
      </trkpt>
      <trkpt lat="46.83862" lon="5.89839">
        <ele>656.5</ele>
        <time>2021-02-18T15:12:45Z</time>
      </trkpt>
      <trkpt lat="46.83859" lon="5.89834">
        <ele>656.5</ele>
        <time>2021-02-18T15:12:51Z</time>
      </trkpt>
      <trkpt lat="46.83853" lon="5.89833">
        <ele>656.8</ele>
        <time>2021-02-18T15:12:57Z</time>
      </trkpt>
      <trkpt lat="46.83849" lon="5.89831">
        <ele>657.2</ele>
        <time>2021-02-18T15:13:02Z</time>
      </trkpt>
      <trkpt lat="46.83845" lon="5.89827">
        <ele>657.7</ele>
        <time>2021-02-18T15:13:07Z</time>
      </trkpt>
      <trkpt lat="46.83841" lon="5.89821">
        <ele>658</ele>
        <time>2021-02-18T15:13:12Z</time>
      </trkpt>
      <trkpt lat="46.83838" lon="5.89817">
        <ele>658.6</ele>
        <time>2021-02-18T15:13:18Z</time>
      </trkpt>
      <trkpt lat="46.83834" lon="5.89812">
        <ele>658.5</ele>
        <time>2021-02-18T15:13:22Z</time>
      </trkpt>
      <trkpt lat="46.8383" lon="5.89808">
        <ele>657.9</ele>
        <time>2021-02-18T15:13:27Z</time>
      </trkpt>
      <trkpt lat="46.83824" lon="5.89805">
        <ele>656.1</ele>
        <time>2021-02-18T15:13:32Z</time>
      </trkpt>
      <trkpt lat="46.8382" lon="5.89802">
        <ele>655</ele>
        <time>2021-02-18T15:13:36Z</time>
      </trkpt>
      <trkpt lat="46.83817" lon="5.89797">
        <ele>654</ele>
        <time>2021-02-18T15:13:41Z</time>
      </trkpt>
      <trkpt lat="46.83813" lon="5.89793">
        <ele>653.1</ele>
        <time>2021-02-18T15:13:46Z</time>
      </trkpt>
      <trkpt lat="46.83808" lon="5.8979">
        <ele>652.6</ele>
        <time>2021-02-18T15:13:52Z</time>
      </trkpt>
      <trkpt lat="46.83804" lon="5.89787">
        <ele>651.9</ele>
        <time>2021-02-18T15:13:57Z</time>
      </trkpt>
      <trkpt lat="46.838" lon="5.89782">
        <ele>651.2</ele>
        <time>2021-02-18T15:14:02Z</time>
      </trkpt>
      <trkpt lat="46.83796" lon="5.89775">
        <ele>650.3</ele>
        <time>2021-02-18T15:14:06Z</time>
      </trkpt>
      <trkpt lat="46.83794" lon="5.8977">
        <ele>649</ele>
        <time>2021-02-18T15:14:12Z</time>
      </trkpt>
      <trkpt lat="46.83791" lon="5.89763">
        <ele>648</ele>
        <time>2021-02-18T15:14:37Z</time>
      </trkpt>
      <trkpt lat="46.83791" lon="5.89756">
        <ele>647.3</ele>
        <time>2021-02-18T15:14:44Z</time>
      </trkpt>
      <trkpt lat="46.83792" lon="5.89764">
        <ele>639.9</ele>
        <time>2021-02-18T15:16:00Z</time>
      </trkpt>
      <trkpt lat="46.83792" lon="5.89771">
        <ele>638.1</ele>
        <time>2021-02-18T15:16:05Z</time>
      </trkpt>
      <trkpt lat="46.83791" lon="5.89765">
        <ele>633.4</ele>
        <time>2021-02-18T15:16:25Z</time>
      </trkpt>
      <trkpt lat="46.83786" lon="5.89759">
        <ele>632.8</ele>
        <time>2021-02-18T15:16:30Z</time>
      </trkpt>
      <trkpt lat="46.83785" lon="5.89752">
        <ele>632.2</ele>
        <time>2021-02-18T15:16:36Z</time>
      </trkpt>
      <trkpt lat="46.83782" lon="5.89746">
        <ele>631.3</ele>
        <time>2021-02-18T15:16:41Z</time>
      </trkpt>
      <trkpt lat="46.83781" lon="5.8974">
        <ele>630.5</ele>
        <time>2021-02-18T15:16:46Z</time>
      </trkpt>
      <trkpt lat="46.83778" lon="5.89734">
        <ele>629.7</ele>
        <time>2021-02-18T15:16:51Z</time>
      </trkpt>
      <trkpt lat="46.83776" lon="5.89727">
        <ele>629.1</ele>
        <time>2021-02-18T15:16:57Z</time>
      </trkpt>
      <trkpt lat="46.83775" lon="5.89719">
        <ele>628.6</ele>
        <time>2021-02-18T15:17:02Z</time>
      </trkpt>
      <trkpt lat="46.83773" lon="5.89712">
        <ele>628.3</ele>
        <time>2021-02-18T15:17:06Z</time>
      </trkpt>
      <trkpt lat="46.83771" lon="5.89706">
        <ele>628</ele>
        <time>2021-02-18T15:17:10Z</time>
      </trkpt>
      <trkpt lat="46.8377" lon="5.89698">
        <ele>628.2</ele>
        <time>2021-02-18T15:17:15Z</time>
      </trkpt>
      <trkpt lat="46.83769" lon="5.89691">
        <ele>628.5</ele>
        <time>2021-02-18T15:17:20Z</time>
      </trkpt>
      <trkpt lat="46.83767" lon="5.89685">
        <ele>628.4</ele>
        <time>2021-02-18T15:17:24Z</time>
      </trkpt>
      <trkpt lat="46.83765" lon="5.89679">
        <ele>628.3</ele>
        <time>2021-02-18T15:17:29Z</time>
      </trkpt>
      <trkpt lat="46.83762" lon="5.89673">
        <ele>628.1</ele>
        <time>2021-02-18T15:17:34Z</time>
      </trkpt>
      <trkpt lat="46.83759" lon="5.89666">
        <ele>627.8</ele>
        <time>2021-02-18T15:17:39Z</time>
      </trkpt>
      <trkpt lat="46.83756" lon="5.89661">
        <ele>627.5</ele>
        <time>2021-02-18T15:17:43Z</time>
      </trkpt>
      <trkpt lat="46.83753" lon="5.89657">
        <ele>627.3</ele>
        <time>2021-02-18T15:17:47Z</time>
      </trkpt>
      <trkpt lat="46.8375" lon="5.8965">
        <ele>627.1</ele>
        <time>2021-02-18T15:17:52Z</time>
      </trkpt>
      <trkpt lat="46.83747" lon="5.89643">
        <ele>626.8</ele>
        <time>2021-02-18T15:17:57Z</time>
      </trkpt>
      <trkpt lat="46.83744" lon="5.89638">
        <ele>626.5</ele>
        <time>2021-02-18T15:18:01Z</time>
      </trkpt>
      <trkpt lat="46.83741" lon="5.89632">
        <ele>626</ele>
        <time>2021-02-18T15:18:06Z</time>
      </trkpt>
      <trkpt lat="46.83738" lon="5.89625">
        <ele>625.4</ele>
        <time>2021-02-18T15:18:12Z</time>
      </trkpt>
      <trkpt lat="46.83737" lon="5.89619">
        <ele>625.8</ele>
        <time>2021-02-18T15:18:17Z</time>
      </trkpt>
      <trkpt lat="46.83736" lon="5.8961">
        <ele>626.4</ele>
        <time>2021-02-18T15:18:22Z</time>
      </trkpt>
      <trkpt lat="46.83736" lon="5.89604">
        <ele>627.5</ele>
        <time>2021-02-18T15:18:26Z</time>
      </trkpt>
      <trkpt lat="46.83734" lon="5.89597">
        <ele>629.1</ele>
        <time>2021-02-18T15:18:31Z</time>
      </trkpt>
      <trkpt lat="46.83729" lon="5.89598">
        <ele>631.2</ele>
        <time>2021-02-18T15:18:46Z</time>
      </trkpt>
      <trkpt lat="46.83728" lon="5.8959">
        <ele>632</ele>
        <time>2021-02-18T15:18:56Z</time>
      </trkpt>
      <trkpt lat="46.83727" lon="5.89583">
        <ele>632.3</ele>
        <time>2021-02-18T15:19:01Z</time>
      </trkpt>
      <trkpt lat="46.83725" lon="5.89577">
        <ele>632.6</ele>
        <time>2021-02-18T15:19:06Z</time>
      </trkpt>
      <trkpt lat="46.83723" lon="5.8957">
        <ele>632.9</ele>
        <time>2021-02-18T15:19:11Z</time>
      </trkpt>
      <trkpt lat="46.83722" lon="5.89562">
        <ele>633.3</ele>
        <time>2021-02-18T15:19:16Z</time>
      </trkpt>
      <trkpt lat="46.8372" lon="5.89555">
        <ele>633.5</ele>
        <time>2021-02-18T15:19:21Z</time>
      </trkpt>
      <trkpt lat="46.83718" lon="5.89547">
        <ele>633.8</ele>
        <time>2021-02-18T15:19:26Z</time>
      </trkpt>
      <trkpt lat="46.83717" lon="5.8954">
        <ele>634.1</ele>
        <time>2021-02-18T15:19:31Z</time>
      </trkpt>
      <trkpt lat="46.83715" lon="5.89533">
        <ele>634.1</ele>
        <time>2021-02-18T15:19:35Z</time>
      </trkpt>
      <trkpt lat="46.83713" lon="5.89527">
        <ele>633.8</ele>
        <time>2021-02-18T15:19:40Z</time>
      </trkpt>
      <trkpt lat="46.83711" lon="5.89521">
        <ele>633.4</ele>
        <time>2021-02-18T15:19:45Z</time>
      </trkpt>
      <trkpt lat="46.83709" lon="5.89514">
        <ele>633</ele>
        <time>2021-02-18T15:19:50Z</time>
      </trkpt>
      <trkpt lat="46.83706" lon="5.89508">
        <ele>633.1</ele>
        <time>2021-02-18T15:19:54Z</time>
      </trkpt>
      <trkpt lat="46.83703" lon="5.89502">
        <ele>633</ele>
        <time>2021-02-18T15:19:58Z</time>
      </trkpt>
      <trkpt lat="46.83701" lon="5.89496">
        <ele>632.4</ele>
        <time>2021-02-18T15:20:03Z</time>
      </trkpt>
      <trkpt lat="46.83698" lon="5.89489">
        <ele>631.2</ele>
        <time>2021-02-18T15:20:26Z</time>
      </trkpt>
      <trkpt lat="46.83699" lon="5.89482">
        <ele>629.4</ele>
        <time>2021-02-18T15:20:34Z</time>
      </trkpt>
      <trkpt lat="46.83696" lon="5.89476">
        <ele>628.3</ele>
        <time>2021-02-18T15:20:48Z</time>
      </trkpt>
      <trkpt lat="46.83696" lon="5.8947">
        <ele>628.1</ele>
        <time>2021-02-18T15:20:53Z</time>
      </trkpt>
      <trkpt lat="46.83695" lon="5.89463">
        <ele>627</ele>
        <time>2021-02-18T15:21:09Z</time>
      </trkpt>
      <trkpt lat="46.83695" lon="5.89456">
        <ele>627.6</ele>
        <time>2021-02-18T15:21:18Z</time>
      </trkpt>
      <trkpt lat="46.83697" lon="5.89449">
        <ele>627.5</ele>
        <time>2021-02-18T15:21:22Z</time>
      </trkpt>
      <trkpt lat="46.83692" lon="5.89445">
        <ele>628.7</ele>
        <time>2021-02-18T15:21:41Z</time>
      </trkpt>
      <trkpt lat="46.8369" lon="5.89439">
        <ele>629.6</ele>
        <time>2021-02-18T15:21:46Z</time>
      </trkpt>
      <trkpt lat="46.83691" lon="5.89432">
        <ele>630.6</ele>
        <time>2021-02-18T15:21:50Z</time>
      </trkpt>
      <trkpt lat="46.83692" lon="5.89424">
        <ele>632.1</ele>
        <time>2021-02-18T15:21:54Z</time>
      </trkpt>
      <trkpt lat="46.83691" lon="5.89416">
        <ele>634.1</ele>
        <time>2021-02-18T15:21:58Z</time>
      </trkpt>
      <trkpt lat="46.83691" lon="5.89408">
        <ele>636</ele>
        <time>2021-02-18T15:22:02Z</time>
      </trkpt>
      <trkpt lat="46.83689" lon="5.89401">
        <ele>637.9</ele>
        <time>2021-02-18T15:22:06Z</time>
      </trkpt>
      <trkpt lat="46.8369" lon="5.89394">
        <ele>639.5</ele>
        <time>2021-02-18T15:22:10Z</time>
      </trkpt>
      <trkpt lat="46.83689" lon="5.89386">
        <ele>641.4</ele>
        <time>2021-02-18T15:22:16Z</time>
      </trkpt>
      <trkpt lat="46.83688" lon="5.8938">
        <ele>643.1</ele>
        <time>2021-02-18T15:22:22Z</time>
      </trkpt>
      <trkpt lat="46.83683" lon="5.89378">
        <ele>645.5</ele>
        <time>2021-02-18T15:22:33Z</time>
      </trkpt>
      <trkpt lat="46.8368" lon="5.89372">
        <ele>646.5</ele>
        <time>2021-02-18T15:22:38Z</time>
      </trkpt>
      <trkpt lat="46.83677" lon="5.89366">
        <ele>647.8</ele>
        <time>2021-02-18T15:22:43Z</time>
      </trkpt>
      <trkpt lat="46.83674" lon="5.8936">
        <ele>649.7</ele>
        <time>2021-02-18T15:22:51Z</time>
      </trkpt>
      <trkpt lat="46.8367" lon="5.89355">
        <ele>649.5</ele>
        <time>2021-02-18T15:22:55Z</time>
      </trkpt>
      <trkpt lat="46.83666" lon="5.8935">
        <ele>647.3</ele>
        <time>2021-02-18T15:23:00Z</time>
      </trkpt>
      <trkpt lat="46.83663" lon="5.89344">
        <ele>643.7</ele>
        <time>2021-02-18T15:23:05Z</time>
      </trkpt>
      <trkpt lat="46.8366" lon="5.89339">
        <ele>639.9</ele>
        <time>2021-02-18T15:23:10Z</time>
      </trkpt>
      <trkpt lat="46.83662" lon="5.8933">
        <ele>635.8</ele>
        <time>2021-02-18T15:23:17Z</time>
      </trkpt>
      <trkpt lat="46.83666" lon="5.89325">
        <ele>634.1</ele>
        <time>2021-02-18T15:23:21Z</time>
      </trkpt>
      <trkpt lat="46.83669" lon="5.8932">
        <ele>632.6</ele>
        <time>2021-02-18T15:23:26Z</time>
      </trkpt>
      <trkpt lat="46.8367" lon="5.89313">
        <ele>632.1</ele>
        <time>2021-02-18T15:23:32Z</time>
      </trkpt>
      <trkpt lat="46.83668" lon="5.89306">
        <ele>632.5</ele>
        <time>2021-02-18T15:23:45Z</time>
      </trkpt>
      <trkpt lat="46.83665" lon="5.89301">
        <ele>632.3</ele>
        <time>2021-02-18T15:23:51Z</time>
      </trkpt>
      <trkpt lat="46.83662" lon="5.89295">
        <ele>631.1</ele>
        <time>2021-02-18T15:23:57Z</time>
      </trkpt>
      <trkpt lat="46.83659" lon="5.8929">
        <ele>630.1</ele>
        <time>2021-02-18T15:24:02Z</time>
      </trkpt>
      <trkpt lat="46.83656" lon="5.89286">
        <ele>631.4</ele>
        <time>2021-02-18T15:24:07Z</time>
      </trkpt>
      <trkpt lat="46.83652" lon="5.8928">
        <ele>633.2</ele>
        <time>2021-02-18T15:24:12Z</time>
      </trkpt>
      <trkpt lat="46.83649" lon="5.89275">
        <ele>634.2</ele>
        <time>2021-02-18T15:24:16Z</time>
      </trkpt>
      <trkpt lat="46.83646" lon="5.89268">
        <ele>636.1</ele>
        <time>2021-02-18T15:24:21Z</time>
      </trkpt>
      <trkpt lat="46.83647" lon="5.89261">
        <ele>638.2</ele>
        <time>2021-02-18T15:24:27Z</time>
      </trkpt>
      <trkpt lat="46.83645" lon="5.89254">
        <ele>639.2</ele>
        <time>2021-02-18T15:24:32Z</time>
      </trkpt>
      <trkpt lat="46.83642" lon="5.89248">
        <ele>641.1</ele>
        <time>2021-02-18T15:24:38Z</time>
      </trkpt>
      <trkpt lat="46.83638" lon="5.89244">
        <ele>643</ele>
        <time>2021-02-18T15:24:43Z</time>
      </trkpt>
      <trkpt lat="46.83634" lon="5.89241">
        <ele>644.5</ele>
        <time>2021-02-18T15:24:48Z</time>
      </trkpt>
      <trkpt lat="46.83628" lon="5.89239">
        <ele>645.7</ele>
        <time>2021-02-18T15:24:52Z</time>
      </trkpt>
      <trkpt lat="46.83624" lon="5.89236">
        <ele>647.1</ele>
        <time>2021-02-18T15:24:57Z</time>
      </trkpt>
      <trkpt lat="46.83621" lon="5.8923">
        <ele>648</ele>
        <time>2021-02-18T15:25:02Z</time>
      </trkpt>
      <trkpt lat="46.83617" lon="5.89225">
        <ele>648.5</ele>
        <time>2021-02-18T15:25:07Z</time>
      </trkpt>
      <trkpt lat="46.83612" lon="5.89223">
        <ele>648.8</ele>
        <time>2021-02-18T15:25:11Z</time>
      </trkpt>
      <trkpt lat="46.83608" lon="5.89221">
        <ele>649</ele>
        <time>2021-02-18T15:25:15Z</time>
      </trkpt>
      <trkpt lat="46.83603" lon="5.89216">
        <ele>648.8</ele>
        <time>2021-02-18T15:25:21Z</time>
      </trkpt>
      <trkpt lat="46.83601" lon="5.8921">
        <ele>648.4</ele>
        <time>2021-02-18T15:25:25Z</time>
      </trkpt>
      <trkpt lat="46.83597" lon="5.89206">
        <ele>648</ele>
        <time>2021-02-18T15:25:29Z</time>
      </trkpt>
      <trkpt lat="46.83594" lon="5.89201">
        <ele>647.2</ele>
        <time>2021-02-18T15:25:34Z</time>
      </trkpt>
      <trkpt lat="46.8359" lon="5.89194">
        <ele>646.8</ele>
        <time>2021-02-18T15:25:38Z</time>
      </trkpt>
      <trkpt lat="46.83586" lon="5.89189">
        <ele>646.2</ele>
        <time>2021-02-18T15:25:42Z</time>
      </trkpt>
      <trkpt lat="46.8358" lon="5.89187">
        <ele>645.9</ele>
        <time>2021-02-18T15:25:47Z</time>
      </trkpt>
      <trkpt lat="46.83575" lon="5.89186">
        <ele>646.3</ele>
        <time>2021-02-18T15:25:51Z</time>
      </trkpt>
      <trkpt lat="46.83571" lon="5.89184">
        <ele>646.3</ele>
        <time>2021-02-18T15:25:55Z</time>
      </trkpt>
      <trkpt lat="46.83565" lon="5.89184">
        <ele>646</ele>
        <time>2021-02-18T15:25:59Z</time>
      </trkpt>
      <trkpt lat="46.83561" lon="5.89181">
        <ele>644.9</ele>
        <time>2021-02-18T15:26:05Z</time>
      </trkpt>
      <trkpt lat="46.83559" lon="5.89174">
        <ele>643.1</ele>
        <time>2021-02-18T15:26:13Z</time>
      </trkpt>
      <trkpt lat="46.83555" lon="5.89169">
        <ele>641.2</ele>
        <time>2021-02-18T15:26:18Z</time>
      </trkpt>
      <trkpt lat="46.83552" lon="5.89163">
        <ele>638.1</ele>
        <time>2021-02-18T15:26:24Z</time>
      </trkpt>
      <trkpt lat="46.83546" lon="5.89165">
        <ele>639.4</ele>
        <time>2021-02-18T15:26:26Z</time>
      </trkpt>
      <trkpt lat="46.83541" lon="5.89163">
        <ele>639.9</ele>
        <time>2021-02-18T15:26:30Z</time>
      </trkpt>
      <trkpt lat="46.83538" lon="5.89159">
        <ele>640.4</ele>
        <time>2021-02-18T15:26:37Z</time>
      </trkpt>
      <trkpt lat="46.83534" lon="5.89154">
        <ele>640.4</ele>
        <time>2021-02-18T15:26:42Z</time>
      </trkpt>
      <trkpt lat="46.83529" lon="5.89151">
        <ele>640.5</ele>
        <time>2021-02-18T15:26:48Z</time>
      </trkpt>
      <trkpt lat="46.83524" lon="5.89151">
        <ele>641</ele>
        <time>2021-02-18T15:26:54Z</time>
      </trkpt>
      <trkpt lat="46.83519" lon="5.8915">
        <ele>641.4</ele>
        <time>2021-02-18T15:26:59Z</time>
      </trkpt>
      <trkpt lat="46.83514" lon="5.8915">
        <ele>641.7</ele>
        <time>2021-02-18T15:27:04Z</time>
      </trkpt>
      <trkpt lat="46.83509" lon="5.89149">
        <ele>642.3</ele>
        <time>2021-02-18T15:27:10Z</time>
      </trkpt>
      <trkpt lat="46.83504" lon="5.8915">
        <ele>643</ele>
        <time>2021-02-18T15:27:14Z</time>
      </trkpt>
      <trkpt lat="46.83499" lon="5.89148">
        <ele>644.1</ele>
        <time>2021-02-18T15:27:17Z</time>
      </trkpt>
      <trkpt lat="46.83495" lon="5.89146">
        <ele>645.5</ele>
        <time>2021-02-18T15:27:21Z</time>
      </trkpt>
      <trkpt lat="46.8349" lon="5.89144">
        <ele>646.5</ele>
        <time>2021-02-18T15:27:25Z</time>
      </trkpt>
      <trkpt lat="46.83484" lon="5.89143">
        <ele>647.8</ele>
        <time>2021-02-18T15:27:30Z</time>
      </trkpt>
      <trkpt lat="46.8348" lon="5.89143">
        <ele>649</ele>
        <time>2021-02-18T15:27:35Z</time>
      </trkpt>
      <trkpt lat="46.83475" lon="5.89139">
        <ele>651.2</ele>
        <time>2021-02-18T15:27:41Z</time>
      </trkpt>
      <trkpt lat="46.83471" lon="5.89136">
        <ele>653</ele>
        <time>2021-02-18T15:27:46Z</time>
      </trkpt>
      <trkpt lat="46.83467" lon="5.89131">
        <ele>654.9</ele>
        <time>2021-02-18T15:27:52Z</time>
      </trkpt>
      <trkpt lat="46.83463" lon="5.89126">
        <ele>657</ele>
        <time>2021-02-18T15:27:59Z</time>
      </trkpt>
      <trkpt lat="46.83465" lon="5.8912">
        <ele>657.8</ele>
        <time>2021-02-18T15:28:03Z</time>
      </trkpt>
      <trkpt lat="46.83465" lon="5.89113">
        <ele>657.9</ele>
        <time>2021-02-18T15:28:09Z</time>
      </trkpt>
      <trkpt lat="46.83461" lon="5.89109">
        <ele>655.4</ele>
        <time>2021-02-18T15:28:16Z</time>
      </trkpt>
      <trkpt lat="46.83456" lon="5.89108">
        <ele>654.1</ele>
        <time>2021-02-18T15:28:23Z</time>
      </trkpt>
      <trkpt lat="46.83452" lon="5.89111">
        <ele>653.9</ele>
        <time>2021-02-18T15:28:26Z</time>
      </trkpt>
      <trkpt lat="46.83444" lon="5.89117">
        <ele>653.2</ele>
        <time>2021-02-18T15:28:29Z</time>
      </trkpt>
      <trkpt lat="46.8344" lon="5.8912">
        <ele>652.9</ele>
        <time>2021-02-18T15:28:31Z</time>
      </trkpt>
      <trkpt lat="46.83435" lon="5.89118">
        <ele>651.7</ele>
        <time>2021-02-18T15:28:35Z</time>
      </trkpt>
      <trkpt lat="46.83431" lon="5.89113">
        <ele>649.9</ele>
        <time>2021-02-18T15:28:40Z</time>
      </trkpt>
      <trkpt lat="46.8343" lon="5.89107">
        <ele>641.4</ele>
        <time>2021-02-18T15:29:06Z</time>
      </trkpt>
      <trkpt lat="46.83425" lon="5.89104">
        <ele>641</ele>
        <time>2021-02-18T15:29:10Z</time>
      </trkpt>
      <trkpt lat="46.8342" lon="5.89104">
        <ele>640.7</ele>
        <time>2021-02-18T15:29:13Z</time>
      </trkpt>
      <trkpt lat="46.83415" lon="5.89104">
        <ele>640.1</ele>
        <time>2021-02-18T15:29:16Z</time>
      </trkpt>
      <trkpt lat="46.83409" lon="5.89103">
        <ele>639</ele>
        <time>2021-02-18T15:29:20Z</time>
      </trkpt>
      <trkpt lat="46.83404" lon="5.89098">
        <ele>638.5</ele>
        <time>2021-02-18T15:29:25Z</time>
      </trkpt>
      <trkpt lat="46.83401" lon="5.89092">
        <ele>638.1</ele>
        <time>2021-02-18T15:29:29Z</time>
      </trkpt>
      <trkpt lat="46.83398" lon="5.89086">
        <ele>637.9</ele>
        <time>2021-02-18T15:29:34Z</time>
      </trkpt>
      <trkpt lat="46.83395" lon="5.89081">
        <ele>638</ele>
        <time>2021-02-18T15:29:39Z</time>
      </trkpt>
      <trkpt lat="46.83391" lon="5.89075">
        <ele>638.3</ele>
        <time>2021-02-18T15:29:44Z</time>
      </trkpt>
      <trkpt lat="46.83388" lon="5.89069">
        <ele>639</ele>
        <time>2021-02-18T15:29:49Z</time>
      </trkpt>
      <trkpt lat="46.83386" lon="5.89062">
        <ele>640.5</ele>
        <time>2021-02-18T15:29:56Z</time>
      </trkpt>
      <trkpt lat="46.83383" lon="5.89056">
        <ele>640.8</ele>
        <time>2021-02-18T15:30:01Z</time>
      </trkpt>
      <trkpt lat="46.83381" lon="5.89049">
        <ele>639.9</ele>
        <time>2021-02-18T15:30:06Z</time>
      </trkpt>
      <trkpt lat="46.83378" lon="5.89042">
        <ele>638.9</ele>
        <time>2021-02-18T15:30:10Z</time>
      </trkpt>
      <trkpt lat="46.83375" lon="5.89037">
        <ele>638.4</ele>
        <time>2021-02-18T15:30:14Z</time>
      </trkpt>
      <trkpt lat="46.83371" lon="5.89033">
        <ele>638.1</ele>
        <time>2021-02-18T15:30:18Z</time>
      </trkpt>
      <trkpt lat="46.83366" lon="5.89031">
        <ele>638.6</ele>
        <time>2021-02-18T15:30:22Z</time>
      </trkpt>
      <trkpt lat="46.83364" lon="5.89025">
        <ele>640.5</ele>
        <time>2021-02-18T15:30:28Z</time>
      </trkpt>
      <trkpt lat="46.83368" lon="5.8902">
        <ele>644.2</ele>
        <time>2021-02-18T15:30:38Z</time>
      </trkpt>
      <trkpt lat="46.83373" lon="5.89021">
        <ele>644.4</ele>
        <time>2021-02-18T15:30:45Z</time>
      </trkpt>
      <trkpt lat="46.83378" lon="5.89021">
        <ele>642.6</ele>
        <time>2021-02-18T15:30:52Z</time>
      </trkpt>
      <trkpt lat="46.83383" lon="5.89023">
        <ele>640.9</ele>
        <time>2021-02-18T15:30:57Z</time>
      </trkpt>
      <trkpt lat="46.83388" lon="5.89023">
        <ele>639.4</ele>
        <time>2021-02-18T15:31:03Z</time>
      </trkpt>
      <trkpt lat="46.83393" lon="5.89023">
        <ele>638.3</ele>
        <time>2021-02-18T15:31:09Z</time>
      </trkpt>
      <trkpt lat="46.83398" lon="5.89023">
        <ele>637.8</ele>
        <time>2021-02-18T15:31:15Z</time>
      </trkpt>
      <trkpt lat="46.83403" lon="5.89023">
        <ele>637.5</ele>
        <time>2021-02-18T15:31:21Z</time>
      </trkpt>
      <trkpt lat="46.83408" lon="5.89023">
        <ele>637.3</ele>
        <time>2021-02-18T15:31:25Z</time>
      </trkpt>
      <trkpt lat="46.83413" lon="5.89023">
        <ele>637.8</ele>
        <time>2021-02-18T15:31:30Z</time>
      </trkpt>
      <trkpt lat="46.83417" lon="5.89019">
        <ele>639.1</ele>
        <time>2021-02-18T15:31:35Z</time>
      </trkpt>
      <trkpt lat="46.8342" lon="5.89014">
        <ele>639.6</ele>
        <time>2021-02-18T15:31:40Z</time>
      </trkpt>
      <trkpt lat="46.83424" lon="5.8901">
        <ele>639.6</ele>
        <time>2021-02-18T15:31:45Z</time>
      </trkpt>
      <trkpt lat="46.83429" lon="5.89007">
        <ele>639.3</ele>
        <time>2021-02-18T15:31:51Z</time>
      </trkpt>
      <trkpt lat="46.83432" lon="5.89002">
        <ele>639</ele>
        <time>2021-02-18T15:31:58Z</time>
      </trkpt>
      <trkpt lat="46.83437" lon="5.88999">
        <ele>639.7</ele>
        <time>2021-02-18T15:32:01Z</time>
      </trkpt>
      <trkpt lat="46.83442" lon="5.88995">
        <ele>640.6</ele>
        <time>2021-02-18T15:32:04Z</time>
      </trkpt>
      <trkpt lat="46.83446" lon="5.88991">
        <ele>641.3</ele>
        <time>2021-02-18T15:32:06Z</time>
      </trkpt>
      <trkpt lat="46.8345" lon="5.88988">
        <ele>642</ele>
        <time>2021-02-18T15:32:09Z</time>
      </trkpt>
      <trkpt lat="46.83455" lon="5.88985">
        <ele>642.4</ele>
        <time>2021-02-18T15:32:13Z</time>
      </trkpt>
      <trkpt lat="46.8346" lon="5.88979">
        <ele>642.7</ele>
        <time>2021-02-18T15:32:17Z</time>
      </trkpt>
      <trkpt lat="46.83462" lon="5.88974">
        <ele>643.5</ele>
        <time>2021-02-18T15:32:25Z</time>
      </trkpt>
      <trkpt lat="46.83464" lon="5.88967">
        <ele>643.6</ele>
        <time>2021-02-18T15:32:36Z</time>
      </trkpt>
      <trkpt lat="46.83467" lon="5.88962">
        <ele>644.2</ele>
        <time>2021-02-18T15:32:42Z</time>
      </trkpt>
      <trkpt lat="46.8347" lon="5.88956">
        <ele>645.2</ele>
        <time>2021-02-18T15:32:47Z</time>
      </trkpt>
      <trkpt lat="46.83474" lon="5.88952">
        <ele>645.7</ele>
        <time>2021-02-18T15:32:52Z</time>
      </trkpt>
      <trkpt lat="46.83477" lon="5.88947">
        <ele>645.6</ele>
        <time>2021-02-18T15:32:58Z</time>
      </trkpt>
      <trkpt lat="46.83481" lon="5.88943">
        <ele>645.3</ele>
        <time>2021-02-18T15:33:02Z</time>
      </trkpt>
      <trkpt lat="46.83486" lon="5.88937">
        <ele>645.2</ele>
        <time>2021-02-18T15:33:05Z</time>
      </trkpt>
      <trkpt lat="46.83488" lon="5.88932">
        <ele>644.8</ele>
        <time>2021-02-18T15:33:08Z</time>
      </trkpt>
      <trkpt lat="46.83491" lon="5.88926">
        <ele>644.1</ele>
        <time>2021-02-18T15:33:12Z</time>
      </trkpt>
      <trkpt lat="46.83494" lon="5.8892">
        <ele>643.4</ele>
        <time>2021-02-18T15:33:16Z</time>
      </trkpt>
      <trkpt lat="46.83498" lon="5.88915">
        <ele>642.5</ele>
        <time>2021-02-18T15:33:20Z</time>
      </trkpt>
      <trkpt lat="46.83502" lon="5.88909">
        <ele>642.1</ele>
        <time>2021-02-18T15:33:24Z</time>
      </trkpt>
      <trkpt lat="46.83505" lon="5.88905">
        <ele>641.5</ele>
        <time>2021-02-18T15:33:30Z</time>
      </trkpt>
      <trkpt lat="46.83509" lon="5.88901">
        <ele>641.1</ele>
        <time>2021-02-18T15:33:35Z</time>
      </trkpt>
      <trkpt lat="46.83514" lon="5.88896">
        <ele>640.8</ele>
        <time>2021-02-18T15:33:39Z</time>
      </trkpt>
      <trkpt lat="46.83517" lon="5.8889">
        <ele>640.4</ele>
        <time>2021-02-18T15:33:44Z</time>
      </trkpt>
      <trkpt lat="46.8352" lon="5.88884">
        <ele>639.6</ele>
        <time>2021-02-18T15:33:49Z</time>
      </trkpt>
      <trkpt lat="46.83524" lon="5.88881">
        <ele>638.9</ele>
        <time>2021-02-18T15:33:53Z</time>
      </trkpt>
      <trkpt lat="46.83529" lon="5.88876">
        <ele>638.6</ele>
        <time>2021-02-18T15:33:58Z</time>
      </trkpt>
      <trkpt lat="46.83532" lon="5.88871">
        <ele>638.5</ele>
        <time>2021-02-18T15:34:02Z</time>
      </trkpt>
      <trkpt lat="46.83536" lon="5.88865">
        <ele>639.2</ele>
        <time>2021-02-18T15:34:07Z</time>
      </trkpt>
      <trkpt lat="46.83538" lon="5.8886">
        <ele>640.5</ele>
        <time>2021-02-18T15:34:13Z</time>
      </trkpt>
      <trkpt lat="46.83539" lon="5.88853">
        <ele>640.9</ele>
        <time>2021-02-18T15:34:22Z</time>
      </trkpt>
      <trkpt lat="46.83543" lon="5.88848">
        <ele>640.8</ele>
        <time>2021-02-18T15:34:27Z</time>
      </trkpt>
      <trkpt lat="46.83547" lon="5.88843">
        <ele>640.1</ele>
        <time>2021-02-18T15:34:31Z</time>
      </trkpt>
      <trkpt lat="46.83551" lon="5.88838">
        <ele>639.2</ele>
        <time>2021-02-18T15:34:35Z</time>
      </trkpt>
      <trkpt lat="46.83554" lon="5.88833">
        <ele>638.3</ele>
        <time>2021-02-18T15:34:40Z</time>
      </trkpt>
      <trkpt lat="46.83558" lon="5.88828">
        <ele>637.1</ele>
        <time>2021-02-18T15:34:45Z</time>
      </trkpt>
      <trkpt lat="46.83563" lon="5.88822">
        <ele>636.3</ele>
        <time>2021-02-18T15:34:48Z</time>
      </trkpt>
      <trkpt lat="46.83566" lon="5.88816">
        <ele>635.7</ele>
        <time>2021-02-18T15:34:52Z</time>
      </trkpt>
      <trkpt lat="46.8357" lon="5.88811">
        <ele>635.3</ele>
        <time>2021-02-18T15:34:57Z</time>
      </trkpt>
      <trkpt lat="46.83574" lon="5.88805">
        <ele>635.2</ele>
        <time>2021-02-18T15:35:02Z</time>
      </trkpt>
      <trkpt lat="46.83576" lon="5.88799">
        <ele>635.4</ele>
        <time>2021-02-18T15:35:06Z</time>
      </trkpt>
      <trkpt lat="46.83578" lon="5.88793">
        <ele>635.5</ele>
        <time>2021-02-18T15:35:10Z</time>
      </trkpt>
      <trkpt lat="46.83582" lon="5.8879">
        <ele>635.6</ele>
        <time>2021-02-18T15:35:15Z</time>
      </trkpt>
      <trkpt lat="46.83586" lon="5.88785">
        <ele>635.5</ele>
        <time>2021-02-18T15:35:21Z</time>
      </trkpt>
      <trkpt lat="46.8359" lon="5.88781">
        <ele>635.3</ele>
        <time>2021-02-18T15:35:26Z</time>
      </trkpt>
      <trkpt lat="46.83592" lon="5.88775">
        <ele>634.8</ele>
        <time>2021-02-18T15:35:31Z</time>
      </trkpt>
      <trkpt lat="46.83596" lon="5.88769">
        <ele>634.4</ele>
        <time>2021-02-18T15:35:36Z</time>
      </trkpt>
      <trkpt lat="46.83598" lon="5.88764">
        <ele>634</ele>
        <time>2021-02-18T15:35:42Z</time>
      </trkpt>
      <trkpt lat="46.83601" lon="5.88758">
        <ele>634.4</ele>
        <time>2021-02-18T15:35:49Z</time>
      </trkpt>
      <trkpt lat="46.83604" lon="5.88753">
        <ele>634.9</ele>
        <time>2021-02-18T15:35:53Z</time>
      </trkpt>
      <trkpt lat="46.83607" lon="5.88748">
        <ele>635.6</ele>
        <time>2021-02-18T15:35:58Z</time>
      </trkpt>
      <trkpt lat="46.8361" lon="5.88743">
        <ele>636.4</ele>
        <time>2021-02-18T15:36:06Z</time>
      </trkpt>
      <trkpt lat="46.83614" lon="5.88738">
        <ele>637.5</ele>
        <time>2021-02-18T15:36:09Z</time>
      </trkpt>
      <trkpt lat="46.83617" lon="5.88732">
        <ele>639.3</ele>
        <time>2021-02-18T15:36:13Z</time>
      </trkpt>
      <trkpt lat="46.8362" lon="5.88727">
        <ele>640.4</ele>
        <time>2021-02-18T15:36:20Z</time>
      </trkpt>
      <trkpt lat="46.83624" lon="5.88723">
        <ele>640.3</ele>
        <time>2021-02-18T15:36:25Z</time>
      </trkpt>
      <trkpt lat="46.83629" lon="5.88718">
        <ele>639.9</ele>
        <time>2021-02-18T15:36:30Z</time>
      </trkpt>
      <trkpt lat="46.83632" lon="5.88712">
        <ele>639.9</ele>
        <time>2021-02-18T15:36:34Z</time>
      </trkpt>
      <trkpt lat="46.83635" lon="5.88707">
        <ele>639.8</ele>
        <time>2021-02-18T15:36:40Z</time>
      </trkpt>
      <trkpt lat="46.83639" lon="5.88704">
        <ele>641.2</ele>
        <time>2021-02-18T15:37:18Z</time>
      </trkpt>
      <trkpt lat="46.83643" lon="5.88698">
        <ele>642</ele>
        <time>2021-02-18T15:37:22Z</time>
      </trkpt>
      <trkpt lat="46.83647" lon="5.88692">
        <ele>642.6</ele>
        <time>2021-02-18T15:37:27Z</time>
      </trkpt>
      <trkpt lat="46.83649" lon="5.88686">
        <ele>643.3</ele>
        <time>2021-02-18T15:37:31Z</time>
      </trkpt>
      <trkpt lat="46.83653" lon="5.8868">
        <ele>644.4</ele>
        <time>2021-02-18T15:37:35Z</time>
      </trkpt>
      <trkpt lat="46.83656" lon="5.88674">
        <ele>645.6</ele>
        <time>2021-02-18T15:37:39Z</time>
      </trkpt>
      <trkpt lat="46.8366" lon="5.8867">
        <ele>646.7</ele>
        <time>2021-02-18T15:37:42Z</time>
      </trkpt>
      <trkpt lat="46.83664" lon="5.88667">
        <ele>648.2</ele>
        <time>2021-02-18T15:37:46Z</time>
      </trkpt>
      <trkpt lat="46.83669" lon="5.88663">
        <ele>649.8</ele>
        <time>2021-02-18T15:37:50Z</time>
      </trkpt>
      <trkpt lat="46.83673" lon="5.88661">
        <ele>650.9</ele>
        <time>2021-02-18T15:37:53Z</time>
      </trkpt>
      <trkpt lat="46.83678" lon="5.88657">
        <ele>652.4</ele>
        <time>2021-02-18T15:37:58Z</time>
      </trkpt>
      <trkpt lat="46.83681" lon="5.88651">
        <ele>654.1</ele>
        <time>2021-02-18T15:38:05Z</time>
      </trkpt>
      <trkpt lat="46.83683" lon="5.88645">
        <ele>655.6</ele>
        <time>2021-02-18T15:38:10Z</time>
      </trkpt>
      <trkpt lat="46.83686" lon="5.8864">
        <ele>657.5</ele>
        <time>2021-02-18T15:38:16Z</time>
      </trkpt>
      <trkpt lat="46.83688" lon="5.88629">
        <ele>658.3</ele>
        <time>2021-02-18T15:38:22Z</time>
      </trkpt>
      <trkpt lat="46.8369" lon="5.88623">
        <ele>658.5</ele>
        <time>2021-02-18T15:38:26Z</time>
      </trkpt>
      <trkpt lat="46.83694" lon="5.88617">
        <ele>657.5</ele>
        <time>2021-02-18T15:38:34Z</time>
      </trkpt>
      <trkpt lat="46.83698" lon="5.88614">
        <ele>654.5</ele>
        <time>2021-02-18T15:38:46Z</time>
      </trkpt>
      <trkpt lat="46.83702" lon="5.8861">
        <ele>653.4</ele>
        <time>2021-02-18T15:38:52Z</time>
      </trkpt>
      <trkpt lat="46.83707" lon="5.88604">
        <ele>652.7</ele>
        <time>2021-02-18T15:38:56Z</time>
      </trkpt>
      <trkpt lat="46.8371" lon="5.886">
        <ele>652</ele>
        <time>2021-02-18T15:39:00Z</time>
      </trkpt>
      <trkpt lat="46.83713" lon="5.88595">
        <ele>651.3</ele>
        <time>2021-02-18T15:39:04Z</time>
      </trkpt>
      <trkpt lat="46.83716" lon="5.88588">
        <ele>650.5</ele>
        <time>2021-02-18T15:39:09Z</time>
      </trkpt>
      <trkpt lat="46.83719" lon="5.88582">
        <ele>649.6</ele>
        <time>2021-02-18T15:39:14Z</time>
      </trkpt>
      <trkpt lat="46.83722" lon="5.88576">
        <ele>648.3</ele>
        <time>2021-02-18T15:39:20Z</time>
      </trkpt>
      <trkpt lat="46.83725" lon="5.88569">
        <ele>647.5</ele>
        <time>2021-02-18T15:39:25Z</time>
      </trkpt>
      <trkpt lat="46.83728" lon="5.88565">
        <ele>647.5</ele>
        <time>2021-02-18T15:39:29Z</time>
      </trkpt>
      <trkpt lat="46.83732" lon="5.8856">
        <ele>648.6</ele>
        <time>2021-02-18T15:39:33Z</time>
      </trkpt>
      <trkpt lat="46.83735" lon="5.88556">
        <ele>650.2</ele>
        <time>2021-02-18T15:39:37Z</time>
      </trkpt>
      <trkpt lat="46.83739" lon="5.88551">
        <ele>652.5</ele>
        <time>2021-02-18T15:39:42Z</time>
      </trkpt>
      <trkpt lat="46.83738" lon="5.88544">
        <ele>654.3</ele>
        <time>2021-02-18T15:39:51Z</time>
      </trkpt>
      <trkpt lat="46.83737" lon="5.88537">
        <ele>653.7</ele>
        <time>2021-02-18T15:40:14Z</time>
      </trkpt>
      <trkpt lat="46.83732" lon="5.88534">
        <ele>654</ele>
        <time>2021-02-18T15:40:20Z</time>
      </trkpt>
      <trkpt lat="46.83728" lon="5.88532">
        <ele>653.9</ele>
        <time>2021-02-18T15:40:26Z</time>
      </trkpt>
      <trkpt lat="46.83723" lon="5.88529">
        <ele>653.5</ele>
        <time>2021-02-18T15:40:31Z</time>
      </trkpt>
      <trkpt lat="46.83718" lon="5.88528">
        <ele>652.9</ele>
        <time>2021-02-18T15:40:37Z</time>
      </trkpt>
      <trkpt lat="46.83714" lon="5.88522">
        <ele>652.2</ele>
        <time>2021-02-18T15:40:42Z</time>
      </trkpt>
      <trkpt lat="46.83713" lon="5.88516">
        <ele>651.9</ele>
        <time>2021-02-18T15:40:46Z</time>
      </trkpt>
      <trkpt lat="46.83712" lon="5.88509">
        <ele>651</ele>
        <time>2021-02-18T15:40:50Z</time>
      </trkpt>
      <trkpt lat="46.8371" lon="5.88503">
        <ele>648.4</ele>
        <time>2021-02-18T15:40:54Z</time>
      </trkpt>
      <trkpt lat="46.83707" lon="5.88498">
        <ele>644.2</ele>
        <time>2021-02-18T15:40:59Z</time>
      </trkpt>
      <trkpt lat="46.83702" lon="5.88498">
        <ele>642.4</ele>
        <time>2021-02-18T15:41:02Z</time>
      </trkpt>
      <trkpt lat="46.83696" lon="5.88499">
        <ele>641</ele>
        <time>2021-02-18T15:41:05Z</time>
      </trkpt>
      <trkpt lat="46.83694" lon="5.88493">
        <ele>637.6</ele>
        <time>2021-02-18T15:41:12Z</time>
      </trkpt>
      <trkpt lat="46.83691" lon="5.88487">
        <ele>634.2</ele>
        <time>2021-02-18T15:41:19Z</time>
      </trkpt>
      <trkpt lat="46.83687" lon="5.88482">
        <ele>634.1</ele>
        <time>2021-02-18T15:41:24Z</time>
      </trkpt>
      <trkpt lat="46.83684" lon="5.88475">
        <ele>635.5</ele>
        <time>2021-02-18T15:41:28Z</time>
      </trkpt>
      <trkpt lat="46.8368" lon="5.88471">
        <ele>637.5</ele>
        <time>2021-02-18T15:41:32Z</time>
      </trkpt>
      <trkpt lat="46.83678" lon="5.88464">
        <ele>639.6</ele>
        <time>2021-02-18T15:41:37Z</time>
      </trkpt>
      <trkpt lat="46.83676" lon="5.88458">
        <ele>641.2</ele>
        <time>2021-02-18T15:41:42Z</time>
      </trkpt>
      <trkpt lat="46.83673" lon="5.88452">
        <ele>643.2</ele>
        <time>2021-02-18T15:41:48Z</time>
      </trkpt>
      <trkpt lat="46.83668" lon="5.88448">
        <ele>644.4</ele>
        <time>2021-02-18T15:41:53Z</time>
      </trkpt>
      <trkpt lat="46.83664" lon="5.88446">
        <ele>645.8</ele>
        <time>2021-02-18T15:41:59Z</time>
      </trkpt>
      <trkpt lat="46.83661" lon="5.8844">
        <ele>646.8</ele>
        <time>2021-02-18T15:42:05Z</time>
      </trkpt>
      <trkpt lat="46.83658" lon="5.88435">
        <ele>647.1</ele>
        <time>2021-02-18T15:42:11Z</time>
      </trkpt>
      <trkpt lat="46.83653" lon="5.88433">
        <ele>646.9</ele>
        <time>2021-02-18T15:42:16Z</time>
      </trkpt>
      <trkpt lat="46.83651" lon="5.88427">
        <ele>646</ele>
        <time>2021-02-18T15:42:22Z</time>
      </trkpt>
      <trkpt lat="46.83647" lon="5.8842">
        <ele>644.4</ele>
        <time>2021-02-18T15:42:36Z</time>
      </trkpt>
      <trkpt lat="46.83643" lon="5.88418">
        <ele>643.9</ele>
        <time>2021-02-18T15:42:40Z</time>
      </trkpt>
      <trkpt lat="46.83638" lon="5.88417">
        <ele>643.4</ele>
        <time>2021-02-18T15:42:44Z</time>
      </trkpt>
      <trkpt lat="46.83633" lon="5.88413">
        <ele>642.8</ele>
        <time>2021-02-18T15:42:49Z</time>
      </trkpt>
      <trkpt lat="46.83629" lon="5.88411">
        <ele>642.7</ele>
        <time>2021-02-18T15:42:53Z</time>
      </trkpt>
      <trkpt lat="46.83625" lon="5.88406">
        <ele>642.8</ele>
        <time>2021-02-18T15:42:58Z</time>
      </trkpt>
      <trkpt lat="46.83622" lon="5.884">
        <ele>643</ele>
        <time>2021-02-18T15:43:03Z</time>
      </trkpt>
      <trkpt lat="46.83619" lon="5.88395">
        <ele>643</ele>
        <time>2021-02-18T15:43:08Z</time>
      </trkpt>
      <trkpt lat="46.83615" lon="5.8839">
        <ele>642.8</ele>
        <time>2021-02-18T15:43:13Z</time>
      </trkpt>
      <trkpt lat="46.83612" lon="5.88384">
        <ele>642.7</ele>
        <time>2021-02-18T15:43:18Z</time>
      </trkpt>
      <trkpt lat="46.83609" lon="5.88378">
        <ele>642.7</ele>
        <time>2021-02-18T15:43:24Z</time>
      </trkpt>
      <trkpt lat="46.83608" lon="5.88372">
        <ele>642.6</ele>
        <time>2021-02-18T15:43:33Z</time>
      </trkpt>
      <trkpt lat="46.83605" lon="5.88367">
        <ele>642.4</ele>
        <time>2021-02-18T15:43:39Z</time>
      </trkpt>
      <trkpt lat="46.83602" lon="5.88361">
        <ele>641.7</ele>
        <time>2021-02-18T15:43:46Z</time>
      </trkpt>
      <trkpt lat="46.836" lon="5.88355">
        <ele>640.9</ele>
        <time>2021-02-18T15:43:53Z</time>
      </trkpt>
      <trkpt lat="46.83596" lon="5.8835">
        <ele>640</ele>
        <time>2021-02-18T15:44:01Z</time>
      </trkpt>
      <trkpt lat="46.83593" lon="5.88344">
        <ele>639.1</ele>
        <time>2021-02-18T15:44:12Z</time>
      </trkpt>
      <trkpt lat="46.83591" lon="5.88338">
        <ele>639.7</ele>
        <time>2021-02-18T15:44:16Z</time>
      </trkpt>
      <trkpt lat="46.83589" lon="5.88332">
        <ele>640.6</ele>
        <time>2021-02-18T15:44:23Z</time>
      </trkpt>
      <trkpt lat="46.83584" lon="5.88328">
        <ele>641</ele>
        <time>2021-02-18T15:44:29Z</time>
      </trkpt>
      <trkpt lat="46.8358" lon="5.88326">
        <ele>640.9</ele>
        <time>2021-02-18T15:44:38Z</time>
      </trkpt>
      <trkpt lat="46.83579" lon="5.88319">
        <ele>641.1</ele>
        <time>2021-02-18T15:44:46Z</time>
      </trkpt>
      <trkpt lat="46.83573" lon="5.8832">
        <ele>642.7</ele>
        <time>2021-02-18T15:44:51Z</time>
      </trkpt>
      <trkpt lat="46.83572" lon="5.88314">
        <ele>644.1</ele>
        <time>2021-02-18T15:44:59Z</time>
      </trkpt>
      <trkpt lat="46.83568" lon="5.88309">
        <ele>644.3</ele>
        <time>2021-02-18T15:45:06Z</time>
      </trkpt>
      <trkpt lat="46.83565" lon="5.88304">
        <ele>644.7</ele>
        <time>2021-02-18T15:45:10Z</time>
      </trkpt>
      <trkpt lat="46.83561" lon="5.883">
        <ele>645.7</ele>
        <time>2021-02-18T15:45:14Z</time>
      </trkpt>
      <trkpt lat="46.83557" lon="5.88295">
        <ele>646.6</ele>
        <time>2021-02-18T15:45:18Z</time>
      </trkpt>
      <trkpt lat="46.83552" lon="5.88292">
        <ele>647.8</ele>
        <time>2021-02-18T15:45:23Z</time>
      </trkpt>
      <trkpt lat="46.83549" lon="5.88286">
        <ele>648.7</ele>
        <time>2021-02-18T15:45:28Z</time>
      </trkpt>
      <trkpt lat="46.83545" lon="5.88281">
        <ele>649.5</ele>
        <time>2021-02-18T15:45:33Z</time>
      </trkpt>
      <trkpt lat="46.83541" lon="5.88278">
        <ele>649.9</ele>
        <time>2021-02-18T15:45:37Z</time>
      </trkpt>
      <trkpt lat="46.83536" lon="5.88275">
        <ele>650.1</ele>
        <time>2021-02-18T15:45:40Z</time>
      </trkpt>
      <trkpt lat="46.83532" lon="5.88272">
        <ele>650.6</ele>
        <time>2021-02-18T15:45:45Z</time>
      </trkpt>
      <trkpt lat="46.83529" lon="5.88265">
        <ele>650.9</ele>
        <time>2021-02-18T15:45:50Z</time>
      </trkpt>
      <trkpt lat="46.83527" lon="5.8826">
        <ele>651.3</ele>
        <time>2021-02-18T15:45:55Z</time>
      </trkpt>
      <trkpt lat="46.83524" lon="5.88254">
        <ele>651</ele>
        <time>2021-02-18T15:46:03Z</time>
      </trkpt>
      <trkpt lat="46.83519" lon="5.88254">
        <ele>645.3</ele>
        <time>2021-02-18T15:46:41Z</time>
      </trkpt>
      <trkpt lat="46.83517" lon="5.88247">
        <ele>643.6</ele>
        <time>2021-02-18T15:47:04Z</time>
      </trkpt>
      <trkpt lat="46.83516" lon="5.8824">
        <ele>642.8</ele>
        <time>2021-02-18T15:47:10Z</time>
      </trkpt>
      <trkpt lat="46.83517" lon="5.88233">
        <ele>642.6</ele>
        <time>2021-02-18T15:47:15Z</time>
      </trkpt>
      <trkpt lat="46.83517" lon="5.88226">
        <ele>642.6</ele>
        <time>2021-02-18T15:47:21Z</time>
      </trkpt>
      <trkpt lat="46.83516" lon="5.88219">
        <ele>642.5</ele>
        <time>2021-02-18T15:47:26Z</time>
      </trkpt>
      <trkpt lat="46.83515" lon="5.88211">
        <ele>642.4</ele>
        <time>2021-02-18T15:47:32Z</time>
      </trkpt>
      <trkpt lat="46.83512" lon="5.88206">
        <ele>641.8</ele>
        <time>2021-02-18T15:47:43Z</time>
      </trkpt>
      <trkpt lat="46.83514" lon="5.88199">
        <ele>640.8</ele>
        <time>2021-02-18T15:47:52Z</time>
      </trkpt>
      <trkpt lat="46.83517" lon="5.88195">
        <ele>640.1</ele>
        <time>2021-02-18T15:48:02Z</time>
      </trkpt>
      <trkpt lat="46.83521" lon="5.8819">
        <ele>640.4</ele>
        <time>2021-02-18T15:48:11Z</time>
      </trkpt>
      <trkpt lat="46.83525" lon="5.88184">
        <ele>641.4</ele>
        <time>2021-02-18T15:48:16Z</time>
      </trkpt>
      <trkpt lat="46.83529" lon="5.88179">
        <ele>642.7</ele>
        <time>2021-02-18T15:48:20Z</time>
      </trkpt>
      <trkpt lat="46.83533" lon="5.88173">
        <ele>643.8</ele>
        <time>2021-02-18T15:48:24Z</time>
      </trkpt>
      <trkpt lat="46.83535" lon="5.88166">
        <ele>645</ele>
        <time>2021-02-18T15:48:28Z</time>
      </trkpt>
      <trkpt lat="46.83536" lon="5.88159">
        <ele>645.9</ele>
        <time>2021-02-18T15:48:31Z</time>
      </trkpt>
      <trkpt lat="46.83538" lon="5.88152">
        <ele>647.4</ele>
        <time>2021-02-18T15:48:36Z</time>
      </trkpt>
      <trkpt lat="46.83541" lon="5.88147">
        <ele>648.7</ele>
        <time>2021-02-18T15:48:40Z</time>
      </trkpt>
      <trkpt lat="46.83546" lon="5.88144">
        <ele>650</ele>
        <time>2021-02-18T15:48:44Z</time>
      </trkpt>
      <trkpt lat="46.8355" lon="5.88139">
        <ele>651.1</ele>
        <time>2021-02-18T15:48:50Z</time>
      </trkpt>
      <trkpt lat="46.83554" lon="5.88135">
        <ele>651.8</ele>
        <time>2021-02-18T15:48:54Z</time>
      </trkpt>
      <trkpt lat="46.83558" lon="5.8813">
        <ele>652</ele>
        <time>2021-02-18T15:49:00Z</time>
      </trkpt>
      <trkpt lat="46.83561" lon="5.88125">
        <ele>652</ele>
        <time>2021-02-18T15:49:06Z</time>
      </trkpt>
      <trkpt lat="46.83564" lon="5.8812">
        <ele>650.8</ele>
        <time>2021-02-18T15:49:12Z</time>
      </trkpt>
      <trkpt lat="46.83567" lon="5.88115">
        <ele>650</ele>
        <time>2021-02-18T15:49:17Z</time>
      </trkpt>
      <trkpt lat="46.83571" lon="5.88109">
        <ele>649.8</ele>
        <time>2021-02-18T15:49:21Z</time>
      </trkpt>
      <trkpt lat="46.83574" lon="5.88102">
        <ele>649.9</ele>
        <time>2021-02-18T15:49:26Z</time>
      </trkpt>
      <trkpt lat="46.83577" lon="5.88097">
        <ele>650.1</ele>
        <time>2021-02-18T15:49:29Z</time>
      </trkpt>
      <trkpt lat="46.83581" lon="5.88093">
        <ele>650.3</ele>
        <time>2021-02-18T15:49:32Z</time>
      </trkpt>
      <trkpt lat="46.83584" lon="5.88087">
        <ele>650.6</ele>
        <time>2021-02-18T15:49:36Z</time>
      </trkpt>
      <trkpt lat="46.83587" lon="5.8808">
        <ele>650.5</ele>
        <time>2021-02-18T15:49:41Z</time>
      </trkpt>
      <trkpt lat="46.8359" lon="5.88074">
        <ele>650.1</ele>
        <time>2021-02-18T15:49:46Z</time>
      </trkpt>
      <trkpt lat="46.83594" lon="5.88068">
        <ele>649.6</ele>
        <time>2021-02-18T15:49:51Z</time>
      </trkpt>
      <trkpt lat="46.83598" lon="5.88063">
        <ele>649.2</ele>
        <time>2021-02-18T15:49:56Z</time>
      </trkpt>
      <trkpt lat="46.83602" lon="5.88058">
        <ele>648.7</ele>
        <time>2021-02-18T15:50:01Z</time>
      </trkpt>
      <trkpt lat="46.83605" lon="5.88053">
        <ele>648.3</ele>
        <time>2021-02-18T15:50:06Z</time>
      </trkpt>
      <trkpt lat="46.83607" lon="5.88046">
        <ele>648.1</ele>
        <time>2021-02-18T15:50:12Z</time>
      </trkpt>
      <trkpt lat="46.8361" lon="5.8804">
        <ele>648.2</ele>
        <time>2021-02-18T15:50:16Z</time>
      </trkpt>
      <trkpt lat="46.83613" lon="5.88033">
        <ele>648.1</ele>
        <time>2021-02-18T15:50:20Z</time>
      </trkpt>
      <trkpt lat="46.83615" lon="5.88027">
        <ele>648.1</ele>
        <time>2021-02-18T15:50:24Z</time>
      </trkpt>
      <trkpt lat="46.83618" lon="5.88021">
        <ele>647.8</ele>
        <time>2021-02-18T15:50:29Z</time>
      </trkpt>
      <trkpt lat="46.83622" lon="5.88017">
        <ele>646.9</ele>
        <time>2021-02-18T15:50:35Z</time>
      </trkpt>
      <trkpt lat="46.83626" lon="5.88016">
        <ele>645.9</ele>
        <time>2021-02-18T15:50:40Z</time>
      </trkpt>
      <trkpt lat="46.83631" lon="5.88012">
        <ele>644.8</ele>
        <time>2021-02-18T15:50:45Z</time>
      </trkpt>
      <trkpt lat="46.83634" lon="5.88006">
        <ele>643.1</ele>
        <time>2021-02-18T15:50:52Z</time>
      </trkpt>
      <trkpt lat="46.83638" lon="5.88001">
        <ele>642</ele>
        <time>2021-02-18T15:50:57Z</time>
      </trkpt>
      <trkpt lat="46.83642" lon="5.87997">
        <ele>641</ele>
        <time>2021-02-18T15:51:02Z</time>
      </trkpt>
      <trkpt lat="46.83646" lon="5.87992">
        <ele>640.3</ele>
        <time>2021-02-18T15:51:12Z</time>
      </trkpt>
      <trkpt lat="46.8365" lon="5.87987">
        <ele>640.1</ele>
        <time>2021-02-18T15:51:17Z</time>
      </trkpt>
      <trkpt lat="46.83652" lon="5.87982">
        <ele>639.9</ele>
        <time>2021-02-18T15:51:21Z</time>
      </trkpt>
      <trkpt lat="46.83655" lon="5.87975">
        <ele>639.3</ele>
        <time>2021-02-18T15:51:26Z</time>
      </trkpt>
      <trkpt lat="46.83657" lon="5.8797">
        <ele>639</ele>
        <time>2021-02-18T15:51:29Z</time>
      </trkpt>
      <trkpt lat="46.83659" lon="5.87963">
        <ele>638.3</ele>
        <time>2021-02-18T15:51:34Z</time>
      </trkpt>
      <trkpt lat="46.83662" lon="5.87957">
        <ele>637.9</ele>
        <time>2021-02-18T15:51:38Z</time>
      </trkpt>
      <trkpt lat="46.83666" lon="5.87952">
        <ele>637.9</ele>
        <time>2021-02-18T15:51:43Z</time>
      </trkpt>
      <trkpt lat="46.83669" lon="5.87946">
        <ele>638.1</ele>
        <time>2021-02-18T15:51:47Z</time>
      </trkpt>
      <trkpt lat="46.83673" lon="5.87941">
        <ele>638.7</ele>
        <time>2021-02-18T15:51:52Z</time>
      </trkpt>
      <trkpt lat="46.83676" lon="5.87937">
        <ele>639.9</ele>
        <time>2021-02-18T15:52:00Z</time>
      </trkpt>
      <trkpt lat="46.83681" lon="5.87934">
        <ele>640.7</ele>
        <time>2021-02-18T15:52:07Z</time>
      </trkpt>
      <trkpt lat="46.83684" lon="5.8793">
        <ele>641.4</ele>
        <time>2021-02-18T15:52:14Z</time>
      </trkpt>
      <trkpt lat="46.83688" lon="5.87923">
        <ele>640.6</ele>
        <time>2021-02-18T15:52:22Z</time>
      </trkpt>
      <trkpt lat="46.83691" lon="5.87919">
        <ele>640</ele>
        <time>2021-02-18T15:52:25Z</time>
      </trkpt>
      <trkpt lat="46.83698" lon="5.87908">
        <ele>643.6</ele>
        <time>2021-02-18T15:52:29Z</time>
      </trkpt>
      <trkpt lat="46.83701" lon="5.87902">
        <ele>645.2</ele>
        <time>2021-02-18T15:52:31Z</time>
      </trkpt>
      <trkpt lat="46.83705" lon="5.87897">
        <ele>648.6</ele>
        <time>2021-02-18T15:52:35Z</time>
      </trkpt>
      <trkpt lat="46.83709" lon="5.87894">
        <ele>650.6</ele>
        <time>2021-02-18T15:52:40Z</time>
      </trkpt>
      <trkpt lat="46.83713" lon="5.87888">
        <ele>651.7</ele>
        <time>2021-02-18T15:52:45Z</time>
      </trkpt>
      <trkpt lat="46.83717" lon="5.87883">
        <ele>652.2</ele>
        <time>2021-02-18T15:52:49Z</time>
      </trkpt>
      <trkpt lat="46.8372" lon="5.87879">
        <ele>652.6</ele>
        <time>2021-02-18T15:52:53Z</time>
      </trkpt>
      <trkpt lat="46.83724" lon="5.87873">
        <ele>653.1</ele>
        <time>2021-02-18T15:52:58Z</time>
      </trkpt>
      <trkpt lat="46.83728" lon="5.87869">
        <ele>653.8</ele>
        <time>2021-02-18T15:53:04Z</time>
      </trkpt>
      <trkpt lat="46.83732" lon="5.87865">
        <ele>653.9</ele>
        <time>2021-02-18T15:53:09Z</time>
      </trkpt>
      <trkpt lat="46.83736" lon="5.8786">
        <ele>653.1</ele>
        <time>2021-02-18T15:53:14Z</time>
      </trkpt>
      <trkpt lat="46.8374" lon="5.87856">
        <ele>652.2</ele>
        <time>2021-02-18T15:53:19Z</time>
      </trkpt>
      <trkpt lat="46.83744" lon="5.87851">
        <ele>651.5</ele>
        <time>2021-02-18T15:53:24Z</time>
      </trkpt>
      <trkpt lat="46.83747" lon="5.87844">
        <ele>650.8</ele>
        <time>2021-02-18T15:53:29Z</time>
      </trkpt>
      <trkpt lat="46.83749" lon="5.87838">
        <ele>650.1</ele>
        <time>2021-02-18T15:53:34Z</time>
      </trkpt>
      <trkpt lat="46.8375" lon="5.87831">
        <ele>649.3</ele>
        <time>2021-02-18T15:53:42Z</time>
      </trkpt>
      <trkpt lat="46.83751" lon="5.87823">
        <ele>648.6</ele>
        <time>2021-02-18T15:53:48Z</time>
      </trkpt>
      <trkpt lat="46.83752" lon="5.87817">
        <ele>649</ele>
        <time>2021-02-18T15:53:53Z</time>
      </trkpt>
      <trkpt lat="46.83756" lon="5.87812">
        <ele>646.5</ele>
        <time>2021-02-18T15:54:01Z</time>
      </trkpt>
      <trkpt lat="46.83759" lon="5.87807">
        <ele>641.5</ele>
        <time>2021-02-18T15:54:10Z</time>
      </trkpt>
      <trkpt lat="46.83764" lon="5.87802">
        <ele>639.2</ele>
        <time>2021-02-18T15:54:15Z</time>
      </trkpt>
      <trkpt lat="46.83769" lon="5.87798">
        <ele>637.7</ele>
        <time>2021-02-18T15:54:19Z</time>
      </trkpt>
      <trkpt lat="46.83772" lon="5.87793">
        <ele>636.8</ele>
        <time>2021-02-18T15:54:22Z</time>
      </trkpt>
      <trkpt lat="46.83776" lon="5.87788">
        <ele>634.7</ele>
        <time>2021-02-18T15:54:29Z</time>
      </trkpt>
      <trkpt lat="46.8378" lon="5.87783">
        <ele>633.3</ele>
        <time>2021-02-18T15:54:35Z</time>
      </trkpt>
      <trkpt lat="46.83783" lon="5.87777">
        <ele>632.4</ele>
        <time>2021-02-18T15:54:44Z</time>
      </trkpt>
      <trkpt lat="46.83786" lon="5.87772">
        <ele>632.7</ele>
        <time>2021-02-18T15:54:51Z</time>
      </trkpt>
      <trkpt lat="46.83789" lon="5.87767">
        <ele>633.5</ele>
        <time>2021-02-18T15:54:57Z</time>
      </trkpt>
      <trkpt lat="46.83793" lon="5.87762">
        <ele>633.9</ele>
        <time>2021-02-18T15:55:01Z</time>
      </trkpt>
      <trkpt lat="46.83796" lon="5.87757">
        <ele>634.6</ele>
        <time>2021-02-18T15:55:06Z</time>
      </trkpt>
      <trkpt lat="46.83799" lon="5.87752">
        <ele>636.5</ele>
        <time>2021-02-18T15:55:14Z</time>
      </trkpt>
      <trkpt lat="46.83802" lon="5.87747">
        <ele>638.1</ele>
        <time>2021-02-18T15:55:25Z</time>
      </trkpt>
      <trkpt lat="46.83801" lon="5.87754">
        <ele>640.3</ele>
        <time>2021-02-18T15:55:46Z</time>
      </trkpt>
      <trkpt lat="46.83798" lon="5.87759">
        <ele>643.7</ele>
        <time>2021-02-18T15:55:54Z</time>
      </trkpt>
      <trkpt lat="46.83795" lon="5.87766">
        <ele>647.5</ele>
        <time>2021-02-18T15:56:00Z</time>
      </trkpt>
      <trkpt lat="46.83792" lon="5.87772">
        <ele>649.8</ele>
        <time>2021-02-18T15:56:04Z</time>
      </trkpt>
      <trkpt lat="46.83788" lon="5.87775">
        <ele>652.2</ele>
        <time>2021-02-18T15:56:08Z</time>
      </trkpt>
      <trkpt lat="46.83786" lon="5.87781">
        <ele>655.5</ele>
        <time>2021-02-18T15:56:13Z</time>
      </trkpt>
      <trkpt lat="46.83782" lon="5.87788">
        <ele>656.7</ele>
        <time>2021-02-18T15:56:16Z</time>
      </trkpt>
      <trkpt lat="46.83777" lon="5.87791">
        <ele>657.6</ele>
        <time>2021-02-18T15:56:19Z</time>
      </trkpt>
      <trkpt lat="46.83772" lon="5.87794">
        <ele>660.5</ele>
        <time>2021-02-18T15:56:25Z</time>
      </trkpt>
      <trkpt lat="46.83768" lon="5.87799">
        <ele>662.1</ele>
        <time>2021-02-18T15:56:28Z</time>
      </trkpt>
      <trkpt lat="46.83764" lon="5.87799">
        <ele>665</ele>
        <time>2021-02-18T15:56:50Z</time>
      </trkpt>
      <trkpt lat="46.83759" lon="5.87794">
        <ele>660.8</ele>
        <time>2021-02-18T15:56:57Z</time>
      </trkpt>
      <trkpt lat="46.83757" lon="5.87788">
        <ele>656</ele>
        <time>2021-02-18T15:57:07Z</time>
      </trkpt>
      <trkpt lat="46.83754" lon="5.87783">
        <ele>653</ele>
        <time>2021-02-18T15:57:15Z</time>
      </trkpt>
      <trkpt lat="46.83749" lon="5.87783">
        <ele>651.7</ele>
        <time>2021-02-18T15:57:20Z</time>
      </trkpt>
      <trkpt lat="46.83744" lon="5.87781">
        <ele>650.2</ele>
        <time>2021-02-18T15:57:26Z</time>
      </trkpt>
      <trkpt lat="46.83743" lon="5.87772">
        <ele>648.2</ele>
        <time>2021-02-18T15:57:45Z</time>
      </trkpt>
      <trkpt lat="46.83745" lon="5.87765">
        <ele>647.8</ele>
        <time>2021-02-18T15:57:49Z</time>
      </trkpt>
      <trkpt lat="46.83745" lon="5.87758">
        <ele>647.4</ele>
        <time>2021-02-18T15:57:55Z</time>
      </trkpt>
      <trkpt lat="46.83741" lon="5.87756">
        <ele>646.7</ele>
        <time>2021-02-18T15:58:03Z</time>
      </trkpt>
      <trkpt lat="46.83739" lon="5.87749">
        <ele>645</ele>
        <time>2021-02-18T15:58:18Z</time>
      </trkpt>
      <trkpt lat="46.83732" lon="5.87751">
        <ele>643.3</ele>
        <time>2021-02-18T15:58:47Z</time>
      </trkpt>
      <trkpt lat="46.83727" lon="5.87749">
        <ele>643.5</ele>
        <time>2021-02-18T15:58:51Z</time>
      </trkpt>
      <trkpt lat="46.83723" lon="5.87746">
        <ele>643.6</ele>
        <time>2021-02-18T15:58:56Z</time>
      </trkpt>
      <trkpt lat="46.8372" lon="5.87741">
        <ele>644</ele>
        <time>2021-02-18T15:59:02Z</time>
      </trkpt>
      <trkpt lat="46.83717" lon="5.87735">
        <ele>644.4</ele>
        <time>2021-02-18T15:59:09Z</time>
      </trkpt>
      <trkpt lat="46.83715" lon="5.87728">
        <ele>644.5</ele>
        <time>2021-02-18T15:59:15Z</time>
      </trkpt>
      <trkpt lat="46.83712" lon="5.87723">
        <ele>644.4</ele>
        <time>2021-02-18T15:59:22Z</time>
      </trkpt>
      <trkpt lat="46.83707" lon="5.8772">
        <ele>644.4</ele>
        <time>2021-02-18T15:59:28Z</time>
      </trkpt>
      <trkpt lat="46.83704" lon="5.87715">
        <ele>644.1</ele>
        <time>2021-02-18T15:59:35Z</time>
      </trkpt>
      <trkpt lat="46.83702" lon="5.87709">
        <ele>643.8</ele>
        <time>2021-02-18T15:59:41Z</time>
      </trkpt>
      <trkpt lat="46.837" lon="5.87702">
        <ele>643.5</ele>
        <time>2021-02-18T15:59:47Z</time>
      </trkpt>
      <trkpt lat="46.83696" lon="5.87697">
        <ele>642.9</ele>
        <time>2021-02-18T15:59:56Z</time>
      </trkpt>
      <trkpt lat="46.83692" lon="5.87692">
        <ele>643</ele>
        <time>2021-02-18T16:00:00Z</time>
      </trkpt>
      <trkpt lat="46.83688" lon="5.87689">
        <ele>644</ele>
        <time>2021-02-18T16:00:06Z</time>
      </trkpt>
      <trkpt lat="46.83684" lon="5.87684">
        <ele>644.4</ele>
        <time>2021-02-18T16:00:12Z</time>
      </trkpt>
      <trkpt lat="46.8368" lon="5.87681">
        <ele>644.7</ele>
        <time>2021-02-18T16:00:24Z</time>
      </trkpt>
      <trkpt lat="46.83677" lon="5.87676">
        <ele>645.4</ele>
        <time>2021-02-18T16:00:28Z</time>
      </trkpt>
      <trkpt lat="46.83672" lon="5.87673">
        <ele>646.1</ele>
        <time>2021-02-18T16:00:36Z</time>
      </trkpt>
      <trkpt lat="46.83669" lon="5.87666">
        <ele>646.7</ele>
        <time>2021-02-18T16:00:43Z</time>
      </trkpt>
      <trkpt lat="46.83667" lon="5.8766">
        <ele>647.1</ele>
        <time>2021-02-18T16:00:49Z</time>
      </trkpt>
      <trkpt lat="46.83668" lon="5.87654">
        <ele>648</ele>
        <time>2021-02-18T16:01:03Z</time>
      </trkpt>
      <trkpt lat="46.83664" lon="5.87648">
        <ele>647.9</ele>
        <time>2021-02-18T16:01:12Z</time>
      </trkpt>
      <trkpt lat="46.8366" lon="5.87644">
        <ele>648.4</ele>
        <time>2021-02-18T16:01:17Z</time>
      </trkpt>
      <trkpt lat="46.83656" lon="5.87639">
        <ele>649.3</ele>
        <time>2021-02-18T16:01:22Z</time>
      </trkpt>
      <trkpt lat="46.83652" lon="5.87635">
        <ele>650.9</ele>
        <time>2021-02-18T16:01:31Z</time>
      </trkpt>
      <trkpt lat="46.83649" lon="5.87631">
        <ele>651.9</ele>
        <time>2021-02-18T16:01:38Z</time>
      </trkpt>
      <trkpt lat="46.83645" lon="5.87626">
        <ele>652.3</ele>
        <time>2021-02-18T16:01:41Z</time>
      </trkpt>
      <trkpt lat="46.8364" lon="5.87623">
        <ele>652.8</ele>
        <time>2021-02-18T16:01:46Z</time>
      </trkpt>
      <trkpt lat="46.83636" lon="5.87622">
        <ele>653.2</ele>
        <time>2021-02-18T16:01:54Z</time>
      </trkpt>
      <trkpt lat="46.83633" lon="5.87616">
        <ele>653.3</ele>
        <time>2021-02-18T16:02:00Z</time>
      </trkpt>
      <trkpt lat="46.83631" lon="5.87609">
        <ele>653.1</ele>
        <time>2021-02-18T16:02:05Z</time>
      </trkpt>
      <trkpt lat="46.83631" lon="5.87602">
        <ele>652.8</ele>
        <time>2021-02-18T16:02:10Z</time>
      </trkpt>
      <trkpt lat="46.83626" lon="5.87601">
        <ele>651.3</ele>
        <time>2021-02-18T16:02:29Z</time>
      </trkpt>
      <trkpt lat="46.83622" lon="5.87598">
        <ele>651.2</ele>
        <time>2021-02-18T16:02:36Z</time>
      </trkpt>
      <trkpt lat="46.83618" lon="5.87593">
        <ele>651.3</ele>
        <time>2021-02-18T16:02:42Z</time>
      </trkpt>
      <trkpt lat="46.83614" lon="5.87591">
        <ele>651.3</ele>
        <time>2021-02-18T16:02:49Z</time>
      </trkpt>
      <trkpt lat="46.8361" lon="5.87588">
        <ele>651.4</ele>
        <time>2021-02-18T16:02:58Z</time>
      </trkpt>
      <trkpt lat="46.83606" lon="5.87583">
        <ele>651.5</ele>
        <time>2021-02-18T16:03:04Z</time>
      </trkpt>
      <trkpt lat="46.83603" lon="5.87577">
        <ele>651.6</ele>
        <time>2021-02-18T16:03:11Z</time>
      </trkpt>
      <trkpt lat="46.836" lon="5.87571">
        <ele>651.5</ele>
        <time>2021-02-18T16:03:19Z</time>
      </trkpt>
      <trkpt lat="46.83596" lon="5.87567">
        <ele>651.2</ele>
        <time>2021-02-18T16:03:26Z</time>
      </trkpt>
      <trkpt lat="46.83593" lon="5.8756">
        <ele>650</ele>
        <time>2021-02-18T16:03:41Z</time>
      </trkpt>
      <trkpt lat="46.8359" lon="5.87556">
        <ele>650</ele>
        <time>2021-02-18T16:03:46Z</time>
      </trkpt>
      <trkpt lat="46.83587" lon="5.8755">
        <ele>650</ele>
        <time>2021-02-18T16:03:55Z</time>
      </trkpt>
      <trkpt lat="46.83586" lon="5.87543">
        <ele>650.8</ele>
        <time>2021-02-18T16:04:04Z</time>
      </trkpt>
      <trkpt lat="46.83587" lon="5.87536">
        <ele>651.6</ele>
        <time>2021-02-18T16:04:14Z</time>
      </trkpt>
      <trkpt lat="46.83588" lon="5.8753">
        <ele>651.6</ele>
        <time>2021-02-18T16:04:18Z</time>
      </trkpt>
      <trkpt lat="46.83591" lon="5.87523">
        <ele>651.6</ele>
        <time>2021-02-18T16:04:22Z</time>
      </trkpt>
      <trkpt lat="46.83594" lon="5.87518">
        <ele>651.7</ele>
        <time>2021-02-18T16:04:25Z</time>
      </trkpt>
      <trkpt lat="46.83596" lon="5.87511">
        <ele>651.9</ele>
        <time>2021-02-18T16:04:30Z</time>
      </trkpt>
      <trkpt lat="46.83599" lon="5.87505">
        <ele>652.1</ele>
        <time>2021-02-18T16:04:35Z</time>
      </trkpt>
      <trkpt lat="46.83603" lon="5.87501">
        <ele>652.3</ele>
        <time>2021-02-18T16:04:39Z</time>
      </trkpt>
      <trkpt lat="46.83607" lon="5.87496">
        <ele>652.3</ele>
        <time>2021-02-18T16:04:44Z</time>
      </trkpt>
      <trkpt lat="46.83609" lon="5.8749">
        <ele>652.4</ele>
        <time>2021-02-18T16:04:52Z</time>
      </trkpt>
      <trkpt lat="46.83613" lon="5.87485">
        <ele>652.8</ele>
        <time>2021-02-18T16:05:02Z</time>
      </trkpt>
      <trkpt lat="46.83617" lon="5.8748">
        <ele>653</ele>
        <time>2021-02-18T16:05:08Z</time>
      </trkpt>
      <trkpt lat="46.8362" lon="5.87475">
        <ele>653.3</ele>
        <time>2021-02-18T16:05:14Z</time>
      </trkpt>
      <trkpt lat="46.83623" lon="5.87468">
        <ele>653.7</ele>
        <time>2021-02-18T16:05:20Z</time>
      </trkpt>
      <trkpt lat="46.83626" lon="5.87463">
        <ele>654.1</ele>
        <time>2021-02-18T16:05:25Z</time>
      </trkpt>
      <trkpt lat="46.83629" lon="5.87458">
        <ele>654.5</ele>
        <time>2021-02-18T16:05:31Z</time>
      </trkpt>
      <trkpt lat="46.83633" lon="5.87455">
        <ele>654.9</ele>
        <time>2021-02-18T16:05:39Z</time>
      </trkpt>
      <trkpt lat="46.83637" lon="5.87449">
        <ele>655.2</ele>
        <time>2021-02-18T16:05:46Z</time>
      </trkpt>
      <trkpt lat="46.8364" lon="5.87444">
        <ele>655.5</ele>
        <time>2021-02-18T16:05:54Z</time>
      </trkpt>
      <trkpt lat="46.83645" lon="5.87446">
        <ele>657.4</ele>
        <time>2021-02-18T16:06:08Z</time>
      </trkpt>
      <trkpt lat="46.83649" lon="5.8744">
        <ele>658.3</ele>
        <time>2021-02-18T16:06:16Z</time>
      </trkpt>
      <trkpt lat="46.83653" lon="5.87436">
        <ele>659.2</ele>
        <time>2021-02-18T16:06:27Z</time>
      </trkpt>
      <trkpt lat="46.83657" lon="5.87436">
        <ele>659.2</ele>
        <time>2021-02-18T16:06:34Z</time>
      </trkpt>
      <trkpt lat="46.83662" lon="5.87436">
        <ele>659.3</ele>
        <time>2021-02-18T16:06:40Z</time>
      </trkpt>
      <trkpt lat="46.83666" lon="5.87431">
        <ele>659.4</ele>
        <time>2021-02-18T16:06:47Z</time>
      </trkpt>
      <trkpt lat="46.83667" lon="5.87425">
        <ele>659.2</ele>
        <time>2021-02-18T16:06:56Z</time>
      </trkpt>
      <trkpt lat="46.83668" lon="5.87416">
        <ele>659.6</ele>
        <time>2021-02-18T16:07:17Z</time>
      </trkpt>
      <trkpt lat="46.83669" lon="5.87409">
        <ele>660.3</ele>
        <time>2021-02-18T16:07:21Z</time>
      </trkpt>
      <trkpt lat="46.83672" lon="5.87403">
        <ele>661.9</ele>
        <time>2021-02-18T16:07:28Z</time>
      </trkpt>
      <trkpt lat="46.83675" lon="5.87397">
        <ele>664.5</ele>
        <time>2021-02-18T16:07:44Z</time>
      </trkpt>
      <trkpt lat="46.83679" lon="5.87395">
        <ele>664.8</ele>
        <time>2021-02-18T16:07:53Z</time>
      </trkpt>
      <trkpt lat="46.83683" lon="5.87391">
        <ele>664.6</ele>
        <time>2021-02-18T16:07:59Z</time>
      </trkpt>
      <trkpt lat="46.83686" lon="5.87384">
        <ele>664.1</ele>
        <time>2021-02-18T16:08:10Z</time>
      </trkpt>
      <trkpt lat="46.8369" lon="5.87386">
        <ele>663.4</ele>
        <time>2021-02-18T16:08:22Z</time>
      </trkpt>
      <trkpt lat="46.83693" lon="5.87392">
        <ele>663.1</ele>
        <time>2021-02-18T16:08:27Z</time>
      </trkpt>
      <trkpt lat="46.83695" lon="5.87399">
        <ele>662.4</ele>
        <time>2021-02-18T16:08:33Z</time>
      </trkpt>
      <trkpt lat="46.837" lon="5.874">
        <ele>661.3</ele>
        <time>2021-02-18T16:08:49Z</time>
      </trkpt>
      <trkpt lat="46.83704" lon="5.87401">
        <ele>661.2</ele>
        <time>2021-02-18T16:08:59Z</time>
      </trkpt>
      <trkpt lat="46.83709" lon="5.87398">
        <ele>660.5</ele>
        <time>2021-02-18T16:09:26Z</time>
      </trkpt>
      <trkpt lat="46.83713" lon="5.87397">
        <ele>660.5</ele>
        <time>2021-02-18T16:09:35Z</time>
      </trkpt>
      <trkpt lat="46.83718" lon="5.87395">
        <ele>659.9</ele>
        <time>2021-02-18T16:09:46Z</time>
      </trkpt>
      <trkpt lat="46.83717" lon="5.87388">
        <ele>659.8</ele>
        <time>2021-02-18T16:10:27Z</time>
      </trkpt>
      <trkpt lat="46.83714" lon="5.87382">
        <ele>659.7</ele>
        <time>2021-02-18T16:10:32Z</time>
      </trkpt>
      <trkpt lat="46.83711" lon="5.87376">
        <ele>659.7</ele>
        <time>2021-02-18T16:10:39Z</time>
      </trkpt>
      <trkpt lat="46.83707" lon="5.87372">
        <ele>659.8</ele>
        <time>2021-02-18T16:10:44Z</time>
      </trkpt>
      <trkpt lat="46.83704" lon="5.87367">
        <ele>659.7</ele>
        <time>2021-02-18T16:10:49Z</time>
      </trkpt>
      <trkpt lat="46.83699" lon="5.87365">
        <ele>658.4</ele>
        <time>2021-02-18T16:10:59Z</time>
      </trkpt>
      <trkpt lat="46.83696" lon="5.87359">
        <ele>657.7</ele>
        <time>2021-02-18T16:11:08Z</time>
      </trkpt>
      <trkpt lat="46.83693" lon="5.87353">
        <ele>657.1</ele>
        <time>2021-02-18T16:11:12Z</time>
      </trkpt>
      <trkpt lat="46.83691" lon="5.87347">
        <ele>656.2</ele>
        <time>2021-02-18T16:11:15Z</time>
      </trkpt>
      <trkpt lat="46.83687" lon="5.87341">
        <ele>654.9</ele>
        <time>2021-02-18T16:11:19Z</time>
      </trkpt>
      <trkpt lat="46.83682" lon="5.87337">
        <ele>653.5</ele>
        <time>2021-02-18T16:11:23Z</time>
      </trkpt>
      <trkpt lat="46.83678" lon="5.87332">
        <ele>652.8</ele>
        <time>2021-02-18T16:11:27Z</time>
      </trkpt>
      <trkpt lat="46.83674" lon="5.87327">
        <ele>652.7</ele>
        <time>2021-02-18T16:11:31Z</time>
      </trkpt>
      <trkpt lat="46.83671" lon="5.87321">
        <ele>653</ele>
        <time>2021-02-18T16:11:36Z</time>
      </trkpt>
      <trkpt lat="46.83667" lon="5.87318">
        <ele>653.3</ele>
        <time>2021-02-18T16:11:40Z</time>
      </trkpt>
      <trkpt lat="46.83662" lon="5.87315">
        <ele>653.8</ele>
        <time>2021-02-18T16:11:44Z</time>
      </trkpt>
      <trkpt lat="46.83658" lon="5.8731">
        <ele>654.6</ele>
        <time>2021-02-18T16:11:49Z</time>
      </trkpt>
      <trkpt lat="46.83654" lon="5.87306">
        <ele>655.2</ele>
        <time>2021-02-18T16:11:53Z</time>
      </trkpt>
      <trkpt lat="46.83651" lon="5.87301">
        <ele>656.2</ele>
        <time>2021-02-18T16:11:58Z</time>
      </trkpt>
      <trkpt lat="46.83647" lon="5.87297">
        <ele>656.7</ele>
        <time>2021-02-18T16:12:02Z</time>
      </trkpt>
      <trkpt lat="46.83643" lon="5.87293">
        <ele>656.8</ele>
        <time>2021-02-18T16:12:06Z</time>
      </trkpt>
      <trkpt lat="46.83638" lon="5.8729">
        <ele>656.6</ele>
        <time>2021-02-18T16:12:10Z</time>
      </trkpt>
      <trkpt lat="46.83634" lon="5.87284">
        <ele>656.8</ele>
        <time>2021-02-18T16:12:15Z</time>
      </trkpt>
      <trkpt lat="46.8363" lon="5.87278">
        <ele>657</ele>
        <time>2021-02-18T16:12:20Z</time>
      </trkpt>
      <trkpt lat="46.83627" lon="5.87273">
        <ele>657.2</ele>
        <time>2021-02-18T16:12:25Z</time>
      </trkpt>
      <trkpt lat="46.83623" lon="5.8727">
        <ele>657.2</ele>
        <time>2021-02-18T16:12:30Z</time>
      </trkpt>
      <trkpt lat="46.83618" lon="5.87265">
        <ele>657.1</ele>
        <time>2021-02-18T16:12:35Z</time>
      </trkpt>
      <trkpt lat="46.83614" lon="5.87262">
        <ele>656.8</ele>
        <time>2021-02-18T16:12:39Z</time>
      </trkpt>
      <trkpt lat="46.8361" lon="5.87259">
        <ele>656.7</ele>
        <time>2021-02-18T16:12:43Z</time>
      </trkpt>
      <trkpt lat="46.83606" lon="5.87254">
        <ele>657.1</ele>
        <time>2021-02-18T16:12:48Z</time>
      </trkpt>
      <trkpt lat="46.83602" lon="5.87248">
        <ele>657.6</ele>
        <time>2021-02-18T16:12:53Z</time>
      </trkpt>
      <trkpt lat="46.83598" lon="5.87243">
        <ele>658.5</ele>
        <time>2021-02-18T16:12:57Z</time>
      </trkpt>
      <trkpt lat="46.83594" lon="5.8724">
        <ele>659.4</ele>
        <time>2021-02-18T16:13:01Z</time>
      </trkpt>
      <trkpt lat="46.8359" lon="5.87236">
        <ele>660.3</ele>
        <time>2021-02-18T16:13:05Z</time>
      </trkpt>
      <trkpt lat="46.83587" lon="5.87232">
        <ele>661.1</ele>
        <time>2021-02-18T16:13:09Z</time>
      </trkpt>
      <trkpt lat="46.83583" lon="5.87227">
        <ele>661.9</ele>
        <time>2021-02-18T16:13:16Z</time>
      </trkpt>
      <trkpt lat="46.83583" lon="5.87218">
        <ele>662.4</ele>
        <time>2021-02-18T16:13:22Z</time>
      </trkpt>
      <trkpt lat="46.83582" lon="5.87211">
        <ele>662.6</ele>
        <time>2021-02-18T16:13:26Z</time>
      </trkpt>
      <trkpt lat="46.83579" lon="5.87206">
        <ele>662.8</ele>
        <time>2021-02-18T16:13:30Z</time>
      </trkpt>
      <trkpt lat="46.83575" lon="5.872">
        <ele>663</ele>
        <time>2021-02-18T16:13:34Z</time>
      </trkpt>
      <trkpt lat="46.8357" lon="5.87195">
        <ele>663.1</ele>
        <time>2021-02-18T16:13:38Z</time>
      </trkpt>
      <trkpt lat="46.83566" lon="5.8719">
        <ele>663.2</ele>
        <time>2021-02-18T16:13:42Z</time>
      </trkpt>
      <trkpt lat="46.83563" lon="5.87184">
        <ele>662.9</ele>
        <time>2021-02-18T16:13:47Z</time>
      </trkpt>
      <trkpt lat="46.83558" lon="5.87179">
        <ele>662.7</ele>
        <time>2021-02-18T16:13:51Z</time>
      </trkpt>
      <trkpt lat="46.83554" lon="5.87175">
        <ele>662</ele>
        <time>2021-02-18T16:13:55Z</time>
      </trkpt>
      <trkpt lat="46.83551" lon="5.87168">
        <ele>660.7</ele>
        <time>2021-02-18T16:14:01Z</time>
      </trkpt>
      <trkpt lat="46.83548" lon="5.87162">
        <ele>658.6</ele>
        <time>2021-02-18T16:14:07Z</time>
      </trkpt>
      <trkpt lat="46.83545" lon="5.87156">
        <ele>656.7</ele>
        <time>2021-02-18T16:14:12Z</time>
      </trkpt>
      <trkpt lat="46.83543" lon="5.87148">
        <ele>655.1</ele>
        <time>2021-02-18T16:14:18Z</time>
      </trkpt>
      <trkpt lat="46.83542" lon="5.87141">
        <ele>654.8</ele>
        <time>2021-02-18T16:14:22Z</time>
      </trkpt>
      <trkpt lat="46.83539" lon="5.87134">
        <ele>655.1</ele>
        <time>2021-02-18T16:14:26Z</time>
      </trkpt>
      <trkpt lat="46.83537" lon="5.87128">
        <ele>655.5</ele>
        <time>2021-02-18T16:14:30Z</time>
      </trkpt>
      <trkpt lat="46.83534" lon="5.8712">
        <ele>655.5</ele>
        <time>2021-02-18T16:14:34Z</time>
      </trkpt>
      <trkpt lat="46.83533" lon="5.87114">
        <ele>655.1</ele>
        <time>2021-02-18T16:14:38Z</time>
      </trkpt>
      <trkpt lat="46.83529" lon="5.87109">
        <ele>654.5</ele>
        <time>2021-02-18T16:14:42Z</time>
      </trkpt>
      <trkpt lat="46.83525" lon="5.87105">
        <ele>654.2</ele>
        <time>2021-02-18T16:14:46Z</time>
      </trkpt>
      <trkpt lat="46.8352" lon="5.871">
        <ele>653.9</ele>
        <time>2021-02-18T16:14:50Z</time>
      </trkpt>
      <trkpt lat="46.83517" lon="5.87094">
        <ele>653.8</ele>
        <time>2021-02-18T16:14:55Z</time>
      </trkpt>
      <trkpt lat="46.83513" lon="5.8709">
        <ele>653.6</ele>
        <time>2021-02-18T16:15:00Z</time>
      </trkpt>
      <trkpt lat="46.8351" lon="5.87084">
        <ele>654.1</ele>
        <time>2021-02-18T16:15:04Z</time>
      </trkpt>
      <trkpt lat="46.83506" lon="5.87078">
        <ele>655.6</ele>
        <time>2021-02-18T16:15:08Z</time>
      </trkpt>
      <trkpt lat="46.83502" lon="5.87073">
        <ele>656.9</ele>
        <time>2021-02-18T16:15:12Z</time>
      </trkpt>
      <trkpt lat="46.83499" lon="5.87069">
        <ele>658.6</ele>
        <time>2021-02-18T16:15:16Z</time>
      </trkpt>
      <trkpt lat="46.83495" lon="5.87064">
        <ele>661</ele>
        <time>2021-02-18T16:15:22Z</time>
      </trkpt>
      <trkpt lat="46.83492" lon="5.87057">
        <ele>662.7</ele>
        <time>2021-02-18T16:15:27Z</time>
      </trkpt>
      <trkpt lat="46.83489" lon="5.87052">
        <ele>663.5</ele>
        <time>2021-02-18T16:15:31Z</time>
      </trkpt>
      <trkpt lat="46.83486" lon="5.87047">
        <ele>663.9</ele>
        <time>2021-02-18T16:15:35Z</time>
      </trkpt>
      <trkpt lat="46.83483" lon="5.8704">
        <ele>664</ele>
        <time>2021-02-18T16:15:40Z</time>
      </trkpt>
      <trkpt lat="46.8348" lon="5.87035">
        <ele>664.1</ele>
        <time>2021-02-18T16:15:44Z</time>
      </trkpt>
      <trkpt lat="46.83477" lon="5.87029">
        <ele>664.4</ele>
        <time>2021-02-18T16:15:49Z</time>
      </trkpt>
      <trkpt lat="46.83474" lon="5.87022">
        <ele>664.1</ele>
        <time>2021-02-18T16:15:54Z</time>
      </trkpt>
      <trkpt lat="46.83473" lon="5.87016">
        <ele>664.2</ele>
        <time>2021-02-18T16:15:58Z</time>
      </trkpt>
      <trkpt lat="46.83473" lon="5.87009">
        <ele>664.1</ele>
        <time>2021-02-18T16:16:15Z</time>
      </trkpt>
      <trkpt lat="46.83468" lon="5.87011">
        <ele>667.2</ele>
        <time>2021-02-18T16:16:35Z</time>
      </trkpt>
      <trkpt lat="46.83472" lon="5.87007">
        <ele>670.6</ele>
        <time>2021-02-18T16:16:48Z</time>
      </trkpt>
      <trkpt lat="46.83467" lon="5.87005">
        <ele>671.1</ele>
        <time>2021-02-18T16:16:57Z</time>
      </trkpt>
    </trkseg>
  </trk>
</gpx>